Illinois River (Oklahoma), Tahlequah (07196500)

StateOklahomaLatestGood (756 cfs)
RiverIllinois RiverRatingObservedEstimated
Updated2021-01-24 9:30 (20 minutes ago)Flood - The river is flooding. Obstacles can be treacherous or deadly. The river should be avoided at this stage for casual trips and definitely for the inexperienced. Trips should be attempted only with protective gear and equipment.Flood(none)3443
Discharge756 cfs (median: 439 cfs)High - The river is high and potentially dangerous, especially for the young and / or inexperienced. Normal stream obstacles are sometimes difficult to navigate. Extended distances can be attempted, but canoe travel may not be advisable.High(none)1734
Height5.55 feetGood - Conditions are ideal for a canoe or kayak. Boats typically will drag on fewer than one-quarter of riffles, if at all, and portages are unnecessary or rare. Normal float lengths can be attempted without a problem.Good300924
TrendSteady (falling over 24 hours)Low - River is low but can still be floated. Some riffles are okay but most come with significant dragging and might need a portage. Float lengths should be reduced to accommodate low flow, dragging, and portages.Low(none)607
USGSExternal icon USGS Site (External icon Google Maps)Poor - River is too low to float comfortably. Most or all riffles will drag or must be portaged and some obstacles (such as slick shelf rock) cause undue problems. Avoid the river at this stage for casual paddling trips.Poor(none)234

Trending Data

Plot Image

Trips for Illinois River (Oklahoma), Tahlequah (07196500)

DateStartEndDistanceConditionDischargeHeightFishingDetails

A total of 0 rows are displayed.

Condition Descriptions

Fishing Conditions

Fish Species

Notes

Classic Trip List

The classic River Trips application is still available for use. It is updated with the new system using a data retrofit. It is no longer maintained. The original River Trips application is no longer updated (as of 1 Dec 2016) but can be checked for errors or for the condition of the data before it was converted to the new system.

Gauge Data Table

ObservationHeightDischargeMaximum
Discharge
Minimum
Discharge
Mean
Discharge
P05P10P20P25P50
(Median)
P75P80P90P95
2021-01-24 09:30 5.55 756 5230 (1973) 82 (1956) 738 108 184 217 267 439 973 1210 1650 2130
2021-01-24 08:30 5.55 756 5230 (1973) 82 (1956) 738 108 184 217 267 439 973 1210 1650 2130
2021-01-24 07:30 5.54 749 5230 (1973) 82 (1956) 738 108 184 217 267 439 973 1210 1650 2130
2021-01-24 06:30 5.54 749 5230 (1973) 82 (1956) 738 108 184 217 267 439 973 1210 1650 2130
2021-01-24 05:30 5.55 756 5230 (1973) 82 (1956) 738 108 184 217 267 439 973 1210 1650 2130
2021-01-24 04:30 5.55 756 5230 (1973) 82 (1956) 738 108 184 217 267 439 973 1210 1650 2130
2021-01-24 03:30 5.55 756 5230 (1973) 82 (1956) 738 108 184 217 267 439 973 1210 1650 2130
2021-01-24 02:30 5.56 762 5230 (1973) 82 (1956) 738 108 184 217 267 439 973 1210 1650 2130
2021-01-24 01:30 5.55 756 5230 (1973) 82 (1956) 738 108 184 217 267 439 973 1210 1650 2130
2021-01-24 00:30 5.55 756 5230 (1973) 82 (1956) 738 108 184 217 267 439 973 1210 1650 2130
2021-01-23 23:30 5.56 762 8380 (1973) 78 (1956) 810 108 173 219 266 420 1040 1180 1900 2470
2021-01-23 22:30 5.55 756 8380 (1973) 78 (1956) 810 108 173 219 266 420 1040 1180 1900 2470
2021-01-23 21:30 5.55 756 8380 (1973) 78 (1956) 810 108 173 219 266 420 1040 1180 1900 2470
2021-01-23 20:30 5.56 762 8380 (1973) 78 (1956) 810 108 173 219 266 420 1040 1180 1900 2470
2021-01-23 19:30 5.55 756 8380 (1973) 78 (1956) 810 108 173 219 266 420 1040 1180 1900 2470
2021-01-23 18:30 5.56 762 8380 (1973) 78 (1956) 810 108 173 219 266 420 1040 1180 1900 2470
2021-01-23 17:30 5.56 762 8380 (1973) 78 (1956) 810 108 173 219 266 420 1040 1180 1900 2470
2021-01-23 16:30 5.56 762 8380 (1973) 78 (1956) 810 108 173 219 266 420 1040 1180 1900 2470
2021-01-23 15:30 5.56 762 8380 (1973) 78 (1956) 810 108 173 219 266 420 1040 1180 1900 2470
2021-01-23 14:30 5.58 775 8380 (1973) 78 (1956) 810 108 173 219 266 420 1040 1180 1900 2470
2021-01-23 13:30 5.57 768 8380 (1973) 78 (1956) 810 108 173 219 266 420 1040 1180 1900 2470
2021-01-23 12:30 5.57 768 8380 (1973) 78 (1956) 810 108 173 219 266 420 1040 1180 1900 2470
2021-01-23 11:30 5.59 781 8380 (1973) 78 (1956) 810 108 173 219 266 420 1040 1180 1900 2470
2021-01-23 10:30 5.56 762 8380 (1973) 78 (1956) 810 108 173 219 266 420 1040 1180 1900 2470
2021-01-23 09:30 5.57 768 8380 (1973) 78 (1956) 810 108 173 219 266 420 1040 1180 1900 2470
2021-01-23 08:30 5.58 775 8380 (1973) 78 (1956) 810 108 173 219 266 420 1040 1180 1900 2470
2021-01-23 07:30 5.59 781 8380 (1973) 78 (1956) 810 108 173 219 266 420 1040 1180 1900 2470
2021-01-23 06:30 5.57 768 8380 (1973) 78 (1956) 810 108 173 219 266 420 1040 1180 1900 2470
2021-01-23 05:30 5.59 781 8380 (1973) 78 (1956) 810 108 173 219 266 420 1040 1180 1900 2470
2021-01-23 04:30 5.57 768 8380 (1973) 78 (1956) 810 108 173 219 266 420 1040 1180 1900 2470
2021-01-23 03:30 5.59 781 8380 (1973) 78 (1956) 810 108 173 219 266 420 1040 1180 1900 2470
2021-01-23 02:30 5.59 781 8380 (1973) 78 (1956) 810 108 173 219 266 420 1040 1180 1900 2470
2021-01-23 01:30 5.57 768 8380 (1973) 78 (1956) 810 108 173 219 266 420 1040 1180 1900 2470
2021-01-23 00:30 5.59 781 8380 (1973) 78 (1956) 810 108 173 219 266 420 1040 1180 1900 2470
2021-01-22 23:30 5.59 781 6560 (1973) 73 (1956) 800 106 150 215 265 419 1050 1210 2010 2740
2021-01-22 22:30 5.58 775 6560 (1973) 73 (1956) 800 106 150 215 265 419 1050 1210 2010 2740
2021-01-22 21:30 5.60 788 6560 (1973) 73 (1956) 800 106 150 215 265 419 1050 1210 2010 2740
2021-01-22 20:30 5.60 788 6560 (1973) 73 (1956) 800 106 150 215 265 419 1050 1210 2010 2740
2021-01-22 19:30 5.59 781 6560 (1973) 73 (1956) 800 106 150 215 265 419 1050 1210 2010 2740
2021-01-22 18:30 5.59 781 6560 (1973) 73 (1956) 800 106 150 215 265 419 1050 1210 2010 2740
2021-01-22 17:30 5.58 775 6560 (1973) 73 (1956) 800 106 150 215 265 419 1050 1210 2010 2740
2021-01-22 16:30 5.59 781 6560 (1973) 73 (1956) 800 106 150 215 265 419 1050 1210 2010 2740
2021-01-22 15:30 5.58 775 6560 (1973) 73 (1956) 800 106 150 215 265 419 1050 1210 2010 2740
2021-01-22 14:30 5.59 781 6560 (1973) 73 (1956) 800 106 150 215 265 419 1050 1210 2010 2740
2021-01-22 13:30 5.59 781 6560 (1973) 73 (1956) 800 106 150 215 265 419 1050 1210 2010 2740
2021-01-22 12:30 5.58 775 6560 (1973) 73 (1956) 800 106 150 215 265 419 1050 1210 2010 2740
2021-01-22 11:30 5.59 781 6560 (1973) 73 (1956) 800 106 150 215 265 419 1050 1210 2010 2740
2021-01-22 10:30 5.59 781 6560 (1973) 73 (1956) 800 106 150 215 265 419 1050 1210 2010 2740
2021-01-22 09:30 5.59 781 6560 (1973) 73 (1956) 800 106 150 215 265 419 1050 1210 2010 2740
2021-01-22 08:30 5.59 781 6560 (1973) 73 (1956) 800 106 150 215 265 419 1050 1210 2010 2740
2021-01-22 07:30 5.60 788 6560 (1973) 73 (1956) 800 106 150 215 265 419 1050 1210 2010 2740
2021-01-22 06:30 5.60 788 6560 (1973) 73 (1956) 800 106 150 215 265 419 1050 1210 2010 2740
2021-01-22 05:30 5.60 788 6560 (1973) 73 (1956) 800 106 150 215 265 419 1050 1210 2010 2740
2021-01-22 04:30 5.59 781 6560 (1973) 73 (1956) 800 106 150 215 265 419 1050 1210 2010 2740
2021-01-22 03:30 5.62 801 6560 (1973) 73 (1956) 800 106 150 215 265 419 1050 1210 2010 2740
2021-01-22 02:30 5.61 794 6560 (1973) 73 (1956) 800 106 150 215 265 419 1050 1210 2010 2740
2021-01-22 01:30 5.61 794 6560 (1973) 73 (1956) 800 106 150 215 265 419 1050 1210 2010 2740
2021-01-22 00:30 5.61 794 6560 (1973) 73 (1956) 800 106 150 215 265 419 1050 1210 2010 2740
2021-01-21 23:30 5.60 788 6100 (1990) 71 (1956) 840 99 149 213 261 425 1080 1400 2150 3090
2021-01-21 22:30 5.62 801 6100 (1990) 71 (1956) 840 99 149 213 261 425 1080 1400 2150 3090
2021-01-21 21:30 5.60 788 6100 (1990) 71 (1956) 840 99 149 213 261 425 1080 1400 2150 3090
2021-01-21 20:30 5.60 788 6100 (1990) 71 (1956) 840 99 149 213 261 425 1080 1400 2150 3090
2021-01-21 19:30 5.60 788 6100 (1990) 71 (1956) 840 99 149 213 261 425 1080 1400 2150 3090
2021-01-21 18:30 5.60 788 6100 (1990) 71 (1956) 840 99 149 213 261 425 1080 1400 2150 3090
2021-01-21 17:30 5.61 794 6100 (1990) 71 (1956) 840 99 149 213 261 425 1080 1400 2150 3090
2021-01-21 16:30 5.59 781 6100 (1990) 71 (1956) 840 99 149 213 261 425 1080 1400 2150 3090
2021-01-21 15:30 5.60 788 6100 (1990) 71 (1956) 840 99 149 213 261 425 1080 1400 2150 3090
2021-01-21 14:30 5.60 788 6100 (1990) 71 (1956) 840 99 149 213 261 425 1080 1400 2150 3090
2021-01-21 13:30 5.61 794 6100 (1990) 71 (1956) 840 99 149 213 261 425 1080 1400 2150 3090
2021-01-21 12:30 5.61 794 6100 (1990) 71 (1956) 840 99 149 213 261 425 1080 1400 2150 3090
2021-01-21 11:30 5.62 801 6100 (1990) 71 (1956) 840 99 149 213 261 425 1080 1400 2150 3090
2021-01-21 10:30 5.63 807 6100 (1990) 71 (1956) 840 99 149 213 261 425 1080 1400 2150 3090
2021-01-21 09:30 5.63 807 6100 (1990) 71 (1956) 840 99 149 213 261 425 1080 1400 2150 3090
2021-01-21 08:30 5.62 801 6100 (1990) 71 (1956) 840 99 149 213 261 425 1080 1400 2150 3090
2021-01-21 07:30 5.63 807 6100 (1990) 71 (1956) 840 99 149 213 261 425 1080 1400 2150 3090
2021-01-21 06:30 5.61 794 6100 (1990) 71 (1956) 840 99 149 213 261 425 1080 1400 2150 3090
2021-01-21 05:30 5.63 807 6100 (1990) 71 (1956) 840 99 149 213 261 425 1080 1400 2150 3090
2021-01-21 04:30 5.63 807 6100 (1990) 71 (1956) 840 99 149 213 261 425 1080 1400 2150 3090
2021-01-21 03:30 5.63 807 6100 (1990) 71 (1956) 840 99 149 213 261 425 1080 1400 2150 3090
2021-01-21 02:30 5.64 814 6100 (1990) 71 (1956) 840 99 149 213 261 425 1080 1400 2150 3090
2021-01-21 01:30 5.63 807 6100 (1990) 71 (1956) 840 99 149 213 261 425 1080 1400 2150 3090
2021-01-21 00:30 5.64 814 6100 (1990) 71 (1956) 840 99 149 213 261 425 1080 1400 2150 3090
2021-01-20 23:30 5.65 821 4810 (1990) 69 (1956) 876 99 151 209 251 430 1150 1500 2150 3500
2021-01-20 22:30 5.64 814 4810 (1990) 69 (1956) 876 99 151 209 251 430 1150 1500 2150 3500
2021-01-20 21:30 5.64 814 4810 (1990) 69 (1956) 876 99 151 209 251 430 1150 1500 2150 3500
2021-01-20 20:30 5.65 821 4810 (1990) 69 (1956) 876 99 151 209 251 430 1150 1500 2150 3500
2021-01-20 19:30 5.65 821 4810 (1990) 69 (1956) 876 99 151 209 251 430 1150 1500 2150 3500
2021-01-20 18:30 5.65 821 4810 (1990) 69 (1956) 876 99 151 209 251 430 1150 1500 2150 3500
2021-01-20 17:30 5.65 821 4810 (1990) 69 (1956) 876 99 151 209 251 430 1150 1500 2150 3500
2021-01-20 16:30 5.65 821 4810 (1990) 69 (1956) 876 99 151 209 251 430 1150 1500 2150 3500
2021-01-20 15:30 5.66 827 4810 (1990) 69 (1956) 876 99 151 209 251 430 1150 1500 2150 3500
2021-01-20 14:30 5.65 821 4810 (1990) 69 (1956) 876 99 151 209 251 430 1150 1500 2150 3500
2021-01-20 13:30 5.65 821 4810 (1990) 69 (1956) 876 99 151 209 251 430 1150 1500 2150 3500
2021-01-20 12:30 5.66 827 4810 (1990) 69 (1956) 876 99 151 209 251 430 1150 1500 2150 3500
2021-01-20 11:30 5.66 827 4810 (1990) 69 (1956) 876 99 151 209 251 430 1150 1500 2150 3500
2021-01-20 10:30 5.67 834 4810 (1990) 69 (1956) 876 99 151 209 251 430 1150 1500 2150 3500
2021-01-20 09:30 5.66 827 4810 (1990) 69 (1956) 876 99 151 209 251 430 1150 1500 2150 3500
2021-01-20 08:30 5.68 841 4810 (1990) 69 (1956) 876 99 151 209 251 430 1150 1500 2150 3500
2021-01-20 07:30 5.66 827 4810 (1990) 69 (1956) 876 99 151 209 251 430 1150 1500 2150 3500
2021-01-20 06:30 5.67 834 4810 (1990) 69 (1956) 876 99 151 209 251 430 1150 1500 2150 3500
2021-01-20 05:30 5.67 834 4810 (1990) 69 (1956) 876 99 151 209 251 430 1150 1500 2150 3500
2021-01-20 04:30 5.67 834 4810 (1990) 69 (1956) 876 99 151 209 251 430 1150 1500 2150 3500
2021-01-20 03:30 5.68 841 4810 (1990) 69 (1956) 876 99 151 209 251 430 1150 1500 2150 3500
2021-01-20 02:30 5.68 841 4810 (1990) 69 (1956) 876 99 151 209 251 430 1150 1500 2150 3500
2021-01-20 01:30 5.68 841 4810 (1990) 69 (1956) 876 99 151 209 251 430 1150 1500 2150 3500
2021-01-20 00:30 5.66 827 4810 (1990) 69 (1956) 876 99 151 209 251 430 1150 1500 2150 3500
2021-01-19 23:30 5.69 848 6240 (2020) 69 (1956) 834 99 149 205 249 457 1120 1510 2080 2460
2021-01-19 22:30 5.68 841 6240 (2020) 69 (1956) 834 99 149 205 249 457 1120 1510 2080 2460
2021-01-19 21:30 5.69 848 6240 (2020) 69 (1956) 834 99 149 205 249 457 1120 1510 2080 2460
2021-01-19 20:30 5.68 841 6240 (2020) 69 (1956) 834 99 149 205 249 457 1120 1510 2080 2460
2021-01-19 19:30 5.71 861 6240 (2020) 69 (1956) 834 99 149 205 249 457 1120 1510 2080 2460
2021-01-19 18:30 5.70 855 6240 (2020) 69 (1956) 834 99 149 205 249 457 1120 1510 2080 2460
2021-01-19 17:30 5.69 848 6240 (2020) 69 (1956) 834 99 149 205 249 457 1120 1510 2080 2460
2021-01-19 16:30 5.69 848 6240 (2020) 69 (1956) 834 99 149 205 249 457 1120 1510 2080 2460
2021-01-19 15:30 5.69 848 6240 (2020) 69 (1956) 834 99 149 205 249 457 1120 1510 2080 2460
2021-01-19 14:30 5.68 841 6240 (2020) 69 (1956) 834 99 149 205 249 457 1120 1510 2080 2460
2021-01-19 13:30 5.68 841 6240 (2020) 69 (1956) 834 99 149 205 249 457 1120 1510 2080 2460
2021-01-19 12:30 5.70 855 6240 (2020) 69 (1956) 834 99 149 205 249 457 1120 1510 2080 2460
2021-01-19 11:30 5.69 848 6240 (2020) 69 (1956) 834 99 149 205 249 457 1120 1510 2080 2460
2021-01-19 10:30 5.70 855 6240 (2020) 69 (1956) 834 99 149 205 249 457 1120 1510 2080 2460
2021-01-19 09:30 5.70 855 6240 (2020) 69 (1956) 834 99 149 205 249 457 1120 1510 2080 2460
2021-01-19 08:30 5.74 882 6240 (2020) 69 (1956) 834 99 149 205 249 457 1120 1510 2080 2460
2021-01-19 07:30 5.71 861 6240 (2020) 69 (1956) 834 99 149 205 249 457 1120 1510 2080 2460
2021-01-19 06:30 5.73 875 6240 (2020) 69 (1956) 834 99 149 205 249 457 1120 1510 2080 2460
2021-01-19 05:30 5.72 868 6240 (2020) 69 (1956) 834 99 149 205 249 457 1120 1510 2080 2460
2021-01-19 04:30 5.74 882 6240 (2020) 69 (1956) 834 99 149 205 249 457 1120 1510 2080 2460
2021-01-19 03:30 5.72 868 6240 (2020) 69 (1956) 834 99 149 205 249 457 1120 1510 2080 2460
2021-01-19 02:30 5.73 875 6240 (2020) 69 (1956) 834 99 149 205 249 457 1120 1510 2080 2460
2021-01-19 01:30 5.73 875 6240 (2020) 69 (1956) 834 99 149 205 249 457 1120 1510 2080 2460
2021-01-19 00:30 5.73 875 6240 (2020) 69 (1956) 834 99 149 205 249 457 1120 1510 2080 2460
2021-01-18 23:30 5.74 882 4050 (2020) 67 (1956) 785 98 154 206 251 468 1000 1280 2070 2790
2021-01-18 22:30 5.73 875 4050 (2020) 67 (1956) 785 98 154 206 251 468 1000 1280 2070 2790
2021-01-18 21:30 5.74 882 4050 (2020) 67 (1956) 785 98 154 206 251 468 1000 1280 2070 2790
2021-01-18 20:30 5.73 875 4050 (2020) 67 (1956) 785 98 154 206 251 468 1000 1280 2070 2790
2021-01-18 19:30 5.73 875 4050 (2020) 67 (1956) 785 98 154 206 251 468 1000 1280 2070 2790
2021-01-18 18:30 5.74 882 4050 (2020) 67 (1956) 785 98 154 206 251 468 1000 1280 2070 2790
2021-01-18 17:30 5.73 875 4050 (2020) 67 (1956) 785 98 154 206 251 468 1000 1280 2070 2790
2021-01-18 16:30 5.73 875 4050 (2020) 67 (1956) 785 98 154 206 251 468 1000 1280 2070 2790
2021-01-18 15:30 5.75 889 4050 (2020) 67 (1956) 785 98 154 206 251 468 1000 1280 2070 2790
2021-01-18 14:30 5.74 882 4050 (2020) 67 (1956) 785 98 154 206 251 468 1000 1280 2070 2790
2021-01-18 13:30 5.74 882 4050 (2020) 67 (1956) 785 98 154 206 251 468 1000 1280 2070 2790
2021-01-18 12:30 5.75 889 4050 (2020) 67 (1956) 785 98 154 206 251 468 1000 1280 2070 2790
2021-01-18 11:30 5.76 896 4050 (2020) 67 (1956) 785 98 154 206 251 468 1000 1280 2070 2790
2021-01-18 10:30 5.76 896 4050 (2020) 67 (1956) 785 98 154 206 251 468 1000 1280 2070 2790
2021-01-18 09:30 5.77 903 4050 (2020) 67 (1956) 785 98 154 206 251 468 1000 1280 2070 2790
2021-01-18 08:30 5.76 896 4050 (2020) 67 (1956) 785 98 154 206 251 468 1000 1280 2070 2790
2021-01-18 07:30 5.77 903 4050 (2020) 67 (1956) 785 98 154 206 251 468 1000 1280 2070 2790
2021-01-18 06:30 5.78 911 4050 (2020) 67 (1956) 785 98 154 206 251 468 1000 1280 2070 2790
2021-01-18 05:30 5.78 911 4050 (2020) 67 (1956) 785 98 154 206 251 468 1000 1280 2070 2790
2021-01-18 04:30 5.79 918 4050 (2020) 67 (1956) 785 98 154 206 251 468 1000 1280 2070 2790
2021-01-18 03:30 5.78 911 4050 (2020) 67 (1956) 785 98 154 206 251 468 1000 1280 2070 2790
2021-01-18 02:30 5.78 911 4050 (2020) 67 (1956) 785 98 154 206 251 468 1000 1280 2070 2790
2021-01-18 01:30 5.78 911 4050 (2020) 67 (1956) 785 98 154 206 251 468 1000 1280 2070 2790
2021-01-18 00:30 5.79 918 4050 (2020) 67 (1956) 785 98 154 206 251 468 1000 1280 2070 2790
2021-01-17 23:30 5.79 918 4440 (1991) 65 (1956) 827 96 150 214 244 474 961 1330 2160 3400
2021-01-17 22:30 5.79 918 4440 (1991) 65 (1956) 827 96 150 214 244 474 961 1330 2160 3400
2021-01-17 21:30 5.79 918 4440 (1991) 65 (1956) 827 96 150 214 244 474 961 1330 2160 3400
2021-01-17 20:30 5.78 911 4440 (1991) 65 (1956) 827 96 150 214 244 474 961 1330 2160 3400
2021-01-17 19:30 5.78 911 4440 (1991) 65 (1956) 827 96 150 214 244 474 961 1330 2160 3400
2021-01-17 18:30 5.79 918 4440 (1991) 65 (1956) 827 96 150 214 244 474 961 1330 2160 3400
2021-01-17 17:30 5.79 918 4440 (1991) 65 (1956) 827 96 150 214 244 474 961 1330 2160 3400
2021-01-17 16:30 5.80 925 4440 (1991) 65 (1956) 827 96 150 214 244 474 961 1330 2160 3400
2021-01-17 15:30 5.79 918 4440 (1991) 65 (1956) 827 96 150 214 244 474 961 1330 2160 3400
2021-01-17 14:30 5.80 925 4440 (1991) 65 (1956) 827 96 150 214 244 474 961 1330 2160 3400
2021-01-17 13:30 5.80 925 4440 (1991) 65 (1956) 827 96 150 214 244 474 961 1330 2160 3400
2021-01-17 12:30 5.82 939 4440 (1991) 65 (1956) 827 96 150 214 244 474 961 1330 2160 3400
2021-01-17 11:30 5.81 932 4440 (1991) 65 (1956) 827 96 150 214 244 474 961 1330 2160 3400
2021-01-17 10:30 5.81 932 4440 (1991) 65 (1956) 827 96 150 214 244 474 961 1330 2160 3400
2021-01-17 09:30 5.83 947 4440 (1991) 65 (1956) 827 96 150 214 244 474 961 1330 2160 3400
2021-01-17 08:30 5.82 939 4440 (1991) 65 (1956) 827 96 150 214 244 474 961 1330 2160 3400
2021-01-17 07:30 5.84 954 4440 (1991) 65 (1956) 827 96 150 214 244 474 961 1330 2160 3400
2021-01-17 06:30 5.84 954 4440 (1991) 65 (1956) 827 96 150 214 244 474 961 1330 2160 3400
2021-01-17 05:30 5.84 954 4440 (1991) 65 (1956) 827 96 150 214 244 474 961 1330 2160 3400
2021-01-17 04:30 5.85 962 4440 (1991) 65 (1956) 827 96 150 214 244 474 961 1330 2160 3400
2021-01-17 03:30 5.85 962 4440 (1991) 65 (1956) 827 96 150 214 244 474 961 1330 2160 3400
2021-01-17 02:30 5.85 962 4440 (1991) 65 (1956) 827 96 150 214 244 474 961 1330 2160 3400
2021-01-17 01:30 5.83 947 4440 (1991) 65 (1956) 827 96 150 214 244 474 961 1330 2160 3400
2021-01-16 22:30 5.86 969 11000 (1937) 65 (1956) 984 96 148 210 234 446 929 1400 2190 4010
2021-01-16 21:30 5.86 969 11000 (1937) 65 (1956) 984 96 148 210 234 446 929 1400 2190 4010
2021-01-16 20:30 5.84 954 11000 (1937) 65 (1956) 984 96 148 210 234 446 929 1400 2190 4010
2021-01-16 19:30 5.86 969 11000 (1937) 65 (1956) 984 96 148 210 234 446 929 1400 2190 4010
2021-01-16 18:30 5.86 969 11000 (1937) 65 (1956) 984 96 148 210 234 446 929 1400 2190 4010
2021-01-16 17:30 5.86 969 11000 (1937) 65 (1956) 984 96 148 210 234 446 929 1400 2190 4010
2021-01-16 16:30 5.88 984 11000 (1937) 65 (1956) 984 96 148 210 234 446 929 1400 2190 4010
2021-01-16 15:30 5.87 976 11000 (1937) 65 (1956) 984 96 148 210 234 446 929 1400 2190 4010
2021-01-16 14:30 5.87 976 11000 (1937) 65 (1956) 984 96 148 210 234 446 929 1400 2190 4010
2021-01-16 13:30 5.87 976 11000 (1937) 65 (1956) 984 96 148 210 234 446 929 1400 2190 4010
2021-01-16 12:30 5.88 984 11000 (1937) 65 (1956) 984 96 148 210 234 446 929 1400 2190 4010
2021-01-16 11:30 5.89 991 11000 (1937) 65 (1956) 984 96 148 210 234 446 929 1400 2190 4010
2021-01-16 10:30 5.89 991 11000 (1937) 65 (1956) 984 96 148 210 234 446 929 1400 2190 4010
2021-01-16 09:30 5.90 999 11000 (1937) 65 (1956) 984 96 148 210 234 446 929 1400 2190 4010
2021-01-16 08:30 5.90 999 11000 (1937) 65 (1956) 984 96 148 210 234 446 929 1400 2190 4010
2021-01-16 07:30 5.91 1010 11000 (1937) 65 (1956) 984 96 148 210 234 446 929 1400 2190 4010
2021-01-16 06:30 5.91 1010 11000 (1937) 65 (1956) 984 96 148 210 234 446 929 1400 2190 4010
2021-01-16 05:30 5.91 1010 11000 (1937) 65 (1956) 984 96 148 210 234 446 929 1400 2190 4010
2021-01-16 04:30 5.90 999 11000 (1937) 65 (1956) 984 96 148 210 234 446 929 1400 2190 4010
2021-01-16 03:30 5.91 1010 11000 (1937) 65 (1956) 984 96 148 210 234 446 929 1400 2190 4010
2021-01-16 02:30 5.90 999 11000 (1937) 65 (1956) 984 96 148 210 234 446 929 1400 2190 4010
2021-01-16 01:30 5.89 991 11000 (1937) 65 (1956) 984 96 148 210 234 446 929 1400 2190 4010
2021-01-16 00:30 5.91 1010 11000 (1937) 65 (1956) 984 96 148 210 234 446 929 1400 2190 4010
2021-01-15 23:30 5.91 1010 13100 (1995) 65 (1956) 1220 98 147 215 238 437 827 1360 2510 7970
2021-01-15 22:30 5.92 1010 13100 (1995) 65 (1956) 1220 98 147 215 238 437 827 1360 2510 7970
2021-01-15 21:30 5.93 1020 13100 (1995) 65 (1956) 1220 98 147 215 238 437 827 1360 2510 7970
2021-01-15 20:30 5.91 1010 13100 (1995) 65 (1956) 1220 98 147 215 238 437 827 1360 2510 7970
2021-01-15 19:30 5.92 1010 13100 (1995) 65 (1956) 1220 98 147 215 238 437 827 1360 2510 7970
2021-01-15 18:30 5.92 1010 13100 (1995) 65 (1956) 1220 98 147 215 238 437 827 1360 2510 7970
2021-01-15 17:30 5.93 1020 13100 (1995) 65 (1956) 1220 98 147 215 238 437 827 1360 2510 7970
2021-01-15 16:30 5.93 1020 13100 (1995) 65 (1956) 1220 98 147 215 238 437 827 1360 2510 7970
2021-01-15 15:30 5.95 1040 13100 (1995) 65 (1956) 1220 98 147 215 238 437 827 1360 2510 7970
2021-01-15 14:30 5.95 1040 13100 (1995) 65 (1956) 1220 98 147 215 238 437 827 1360 2510 7970
2021-01-15 13:30 5.96 1050 13100 (1995) 65 (1956) 1220 98 147 215 238 437 827 1360 2510 7970
2021-01-15 12:30 5.96 1050 13100 (1995) 65 (1956) 1220 98 147 215 238 437 827 1360 2510 7970
2021-01-15 11:30 5.95 1040 13100 (1995) 65 (1956) 1220 98 147 215 238 437 827 1360 2510 7970
2021-01-15 10:30 5.95 1040 13100 (1995) 65 (1956) 1220 98 147 215 238 437 827 1360 2510 7970
2021-01-15 09:30 5.96 1050 13100 (1995) 65 (1956) 1220 98 147 215 238 437 827 1360 2510 7970
2021-01-15 08:30 5.97 1050 13100 (1995) 65 (1956) 1220 98 147 215 238 437 827 1360 2510 7970
2021-01-15 07:30 5.98 1060 13100 (1995) 65 (1956) 1220 98 147 215 238 437 827 1360 2510 7970
2021-01-15 06:30 5.95 1040 13100 (1995) 65 (1956) 1220 98 147 215 238 437 827 1360 2510 7970
2021-01-15 05:30 5.97 1050 13100 (1995) 65 (1956) 1220 98 147 215 238 437 827 1360 2510 7970
2021-01-15 04:30 5.97 1050 13100 (1995) 65 (1956) 1220 98 147 215 238 437 827 1360 2510 7970
2021-01-15 03:30 5.97 1050 13100 (1995) 65 (1956) 1220 98 147 215 238 437 827 1360 2510 7970
2021-01-15 02:30 5.97 1050 13100 (1995) 65 (1956) 1220 98 147 215 238 437 827 1360 2510 7970
2021-01-15 01:30 5.99 1070 13100 (1995) 65 (1956) 1220 98 147 215 238 437 827 1360 2510 7970
2021-01-15 00:30 5.97 1050 13100 (1995) 65 (1956) 1220 98 147 215 238 437 827 1360 2510 7970
2021-01-14 23:30 5.98 1060 12700 (2005) 65 (1956) 1150 99 144 215 232 455 851 1490 2510 6320
2021-01-14 22:30 5.98 1060 12700 (2005) 65 (1956) 1150 99 144 215 232 455 851 1490 2510 6320
2021-01-14 21:30 5.99 1070 12700 (2005) 65 (1956) 1150 99 144 215 232 455 851 1490 2510 6320
2021-01-14 20:30 5.99 1070 12700 (2005) 65 (1956) 1150 99 144 215 232 455 851 1490 2510 6320
2021-01-14 19:30 6.01 1080 12700 (2005) 65 (1956) 1150 99 144 215 232 455 851 1490 2510 6320
2021-01-14 18:30 6.01 1080 12700 (2005) 65 (1956) 1150 99 144 215 232 455 851 1490 2510 6320
2021-01-14 17:30 6.00 1080 12700 (2005) 65 (1956) 1150 99 144 215 232 455 851 1490 2510 6320
2021-01-14 16:30 6.00 1080 12700 (2005) 65 (1956) 1150 99 144 215 232 455 851 1490 2510 6320
2021-01-14 15:30 6.02 1090 12700 (2005) 65 (1956) 1150 99 144 215 232 455 851 1490 2510 6320
2021-01-14 14:30 6.00 1080 12700 (2005) 65 (1956) 1150 99 144 215 232 455 851 1490 2510 6320
2021-01-14 13:30 6.01 1080 12700 (2005) 65 (1956) 1150 99 144 215 232 455 851 1490 2510 6320
2021-01-14 12:30 6.00 1080 12700 (2005) 65 (1956) 1150 99 144 215 232 455 851 1490 2510 6320
2021-01-14 11:30 6.04 1110 12700 (2005) 65 (1956) 1150 99 144 215 232 455 851 1490 2510 6320
2021-01-14 10:30 6.01 1080 12700 (2005) 65 (1956) 1150 99 144 215 232 455 851 1490 2510 6320
2021-01-14 09:30 6.04 1110 12700 (2005) 65 (1956) 1150 99 144 215 232 455 851 1490 2510 6320
2021-01-14 08:30 6.03 1100 12700 (2005) 65 (1956) 1150 99 144 215 232 455 851 1490 2510 6320
2021-01-14 07:30 6.04 1110 12700 (2005) 65 (1956) 1150 99 144 215 232 455 851 1490 2510 6320
2021-01-14 06:30 6.03 1100 12700 (2005) 65 (1956) 1150 99 144 215 232 455 851 1490 2510 6320
2021-01-14 05:30 6.04 1110 12700 (2005) 65 (1956) 1150 99 144 215 232 455 851 1490 2510 6320
2021-01-14 04:30 6.04 1110 12700 (2005) 65 (1956) 1150 99 144 215 232 455 851 1490 2510 6320
2021-01-14 03:30 6.05 1120 12700 (2005) 65 (1956) 1150 99 144 215 232 455 851 1490 2510 6320
2021-01-14 02:30 6.05 1120 12700 (2005) 65 (1956) 1150 99 144 215 232 455 851 1490 2510 6320
2021-01-14 01:30 6.07 1130 12700 (2005) 65 (1956) 1150 99 144 215 232 455 851 1490 2510 6320
2021-01-14 00:30 6.06 1130 12700 (2005) 65 (1956) 1150 99 144 215 232 455 851 1490 2510 6320
2021-01-13 23:30 6.05 1120 9310 (2005) 67 (1956) 909 99 142 213 224 452 849 989 2350 3430
2021-01-13 22:30 6.06 1130 9310 (2005) 67 (1956) 909 99 142 213 224 452 849 989 2350 3430
2021-01-13 21:30 6.06 1130 9310 (2005) 67 (1956) 909 99 142 213 224 452 849 989 2350 3430
2021-01-13 20:30 6.08 1140 9310 (2005) 67 (1956) 909 99 142 213 224 452 849 989 2350 3430
2021-01-13 19:30 6.06 1130 9310 (2005) 67 (1956) 909 99 142 213 224 452 849 989 2350 3430
2021-01-13 18:30 6.07 1130 9310 (2005) 67 (1956) 909 99 142 213 224 452 849 989 2350 3430
2021-01-13 17:30 6.07 1130 9310 (2005) 67 (1956) 909 99 142 213 224 452 849 989 2350 3430
2021-01-13 16:30 6.08 1140 9310 (2005) 67 (1956) 909 99 142 213 224 452 849 989 2350 3430
2021-01-13 15:30 6.08 1140 9310 (2005) 67 (1956) 909 99 142 213 224 452 849 989 2350 3430
2021-01-13 14:30 6.09 1150 9310 (2005) 67 (1956) 909 99 142 213 224 452 849 989 2350 3430
2021-01-13 13:30 6.09 1150 9310 (2005) 67 (1956) 909 99 142 213 224 452 849 989 2350 3430
2021-01-13 12:30 6.10 1160 9310 (2005) 67 (1956) 909 99 142 213 224 452 849 989 2350 3430
2021-01-13 11:30 6.10 1160 9310 (2005) 67 (1956) 909 99 142 213 224 452 849 989 2350 3430
2021-01-13 10:30 6.11 1170 9310 (2005) 67 (1956) 909 99 142 213 224 452 849 989 2350 3430
2021-01-13 09:30 6.12 1180 9310 (2005) 67 (1956) 909 99 142 213 224 452 849 989 2350 3430
2021-01-13 08:30 6.14 1190 9310 (2005) 67 (1956) 909 99 142 213 224 452 849 989 2350 3430
2021-01-13 07:30 6.13 1180 9310 (2005) 67 (1956) 909 99 142 213 224 452 849 989 2350 3430
2021-01-13 06:30 6.12 1180 9310 (2005) 67 (1956) 909 99 142 213 224 452 849 989 2350 3430
2021-01-13 05:30 6.13 1180 9310 (2005) 67 (1956) 909 99 142 213 224 452 849 989 2350 3430
2021-01-13 04:30 6.14 1190 9310 (2005) 67 (1956) 909 99 142 213 224 452 849 989 2350 3430
2021-01-13 03:30 6.16 1210 9310 (2005) 67 (1956) 909 99 142 213 224 452 849 989 2350 3430
2021-01-13 02:30 6.14 1190 9310 (2005) 67 (1956) 909 99 142 213 224 452 849 989 2350 3430
2021-01-13 01:30 6.15 1200 9310 (2005) 67 (1956) 909 99 142 213 224 452 849 989 2350 3430
2021-01-13 00:30 6.15 1200 9310 (2005) 67 (1956) 909 99 142 213 224 452 849 989 2350 3430
2021-01-12 23:30 6.17 1220 17300 (2020) 67 (1956) 964 97 142 209 228 477 882 1010 2320 2790
2021-01-12 22:30 6.17 1220 17300 (2020) 67 (1956) 964 97 142 209 228 477 882 1010 2320 2790
2021-01-12 21:30 6.18 1230 17300 (2020) 67 (1956) 964 97 142 209 228 477 882 1010 2320 2790
2021-01-12 20:30 6.17 1220 17300 (2020) 67 (1956) 964 97 142 209 228 477 882 1010 2320 2790
2021-01-12 19:30 6.17 1220 17300 (2020) 67 (1956) 964 97 142 209 228 477 882 1010 2320 2790
2021-01-12 18:30 6.16 1210 17300 (2020) 67 (1956) 964 97 142 209 228 477 882 1010 2320 2790
2021-01-12 17:30 6.18 1230 17300 (2020) 67 (1956) 964 97 142 209 228 477 882 1010 2320 2790
2021-01-12 16:30 6.17 1220 17300 (2020) 67 (1956) 964 97 142 209 228 477 882 1010 2320 2790
2021-01-12 15:30 6.18 1230 17300 (2020) 67 (1956) 964 97 142 209 228 477 882 1010 2320 2790
2021-01-12 14:30 6.20 1240 17300 (2020) 67 (1956) 964 97 142 209 228 477 882 1010 2320 2790
2021-01-12 13:30 6.20 1240 17300 (2020) 67 (1956) 964 97 142 209 228 477 882 1010 2320 2790
2021-01-12 12:30 6.20 1240 17300 (2020) 67 (1956) 964 97 142 209 228 477 882 1010 2320 2790
2021-01-12 11:30 6.22 1260 17300 (2020) 67 (1956) 964 97 142 209 228 477 882 1010 2320 2790
2021-01-12 10:30 6.21 1250 17300 (2020) 67 (1956) 964 97 142 209 228 477 882 1010 2320 2790
2021-01-12 09:30 6.22 1260 17300 (2020) 67 (1956) 964 97 142 209 228 477 882 1010 2320 2790
2021-01-12 08:30 6.24 1280 17300 (2020) 67 (1956) 964 97 142 209 228 477 882 1010 2320 2790
2021-01-12 07:30 6.24 1280 17300 (2020) 67 (1956) 964 97 142 209 228 477 882 1010 2320 2790
2021-01-12 06:30 6.25 1290 17300 (2020) 67 (1956) 964 97 142 209 228 477 882 1010 2320 2790
2021-01-12 05:30 6.24 1280 17300 (2020) 67 (1956) 964 97 142 209 228 477 882 1010 2320 2790
2021-01-12 04:30 6.24 1280 17300 (2020) 67 (1956) 964 97 142 209 228 477 882 1010 2320 2790
2021-01-12 03:30 6.26 1300 17300 (2020) 67 (1956) 964 97 142 209 228 477 882 1010 2320 2790
2021-01-12 02:30 6.27 1310 17300 (2020) 67 (1956) 964 97 142 209 228 477 882 1010 2320 2790
2021-01-12 01:30 6.27 1310 17300 (2020) 67 (1956) 964 97 142 209 228 477 882 1010 2320 2790
2021-01-12 00:30 6.27 1310 17300 (2020) 67 (1956) 964 97 142 209 228 477 882 1010 2320 2790
2021-01-11 23:30 6.27 1310 10600 (2020) 67 (1956) 929 99 142 210 227 490 905 981 2420 3520
2021-01-11 22:30 6.29 1320 10600 (2020) 67 (1956) 929 99 142 210 227 490 905 981 2420 3520
2021-01-11 21:30 6.30 1330 10600 (2020) 67 (1956) 929 99 142 210 227 490 905 981 2420 3520
2021-01-11 20:30 6.27 1310 10600 (2020) 67 (1956) 929 99 142 210 227 490 905 981 2420 3520
2021-01-11 19:30 6.31 1340 10600 (2020) 67 (1956) 929 99 142 210 227 490 905 981 2420 3520
2021-01-11 18:30 6.31 1340 10600 (2020) 67 (1956) 929 99 142 210 227 490 905 981 2420 3520
2021-01-11 17:30 6.30 1330 10600 (2020) 67 (1956) 929 99 142 210 227 490 905 981 2420 3520
2021-01-11 16:30 6.29 1320 10600 (2020) 67 (1956) 929 99 142 210 227 490 905 981 2420 3520
2021-01-11 15:30 6.31 1340 10600 (2020) 67 (1956) 929 99 142 210 227 490 905 981 2420 3520
2021-01-11 14:30 6.31 1340 10600 (2020) 67 (1956) 929 99 142 210 227 490 905 981 2420 3520
2021-01-11 13:30 6.31 1340 10600 (2020) 67 (1956) 929 99 142 210 227 490 905 981 2420 3520
2021-01-11 12:30 6.32 1350 10600 (2020) 67 (1956) 929 99 142 210 227 490 905 981 2420 3520
2021-01-11 11:30 6.35 1380 10600 (2020) 67 (1956) 929 99 142 210 227 490 905 981 2420 3520
2021-01-11 10:30 6.35 1380 10600 (2020) 67 (1956) 929 99 142 210 227 490 905 981 2420 3520
2021-01-11 09:30 6.31 1340 10600 (2020) 67 (1956) 929 99 142 210 227 490 905 981 2420 3520
2021-01-11 08:30 6.33 1360 10600 (2020) 67 (1956) 929 99 142 210 227 490 905 981 2420 3520
2021-01-11 07:30 6.33 1360 10600 (2020) 67 (1956) 929 99 142 210 227 490 905 981 2420 3520
2021-01-11 06:30 6.35 1380 10600 (2020) 67 (1956) 929 99 142 210 227 490 905 981 2420 3520
2021-01-11 05:30 6.34 1370 10600 (2020) 67 (1956) 929 99 142 210 227 490 905 981 2420 3520
2021-01-11 04:30 6.35 1380 10600 (2020) 67 (1956) 929 99 142 210 227 490 905 981 2420 3520
2021-01-11 03:30 6.36 1390 10600 (2020) 67 (1956) 929 99 142 210 227 490 905 981 2420 3520
2021-01-11 02:30 6.37 1400 10600 (2020) 67 (1956) 929 99 142 210 227 490 905 981 2420 3520
2021-01-11 01:30 6.37 1400 10600 (2020) 67 (1956) 929 99 142 210 227 490 905 981 2420 3520
2021-01-11 00:30 6.38 1410 10600 (2020) 67 (1956) 929 99 142 210 227 490 905 981 2420 3520
2021-01-10 23:30 6.38 1410 8220 (1937) 67 (1956) 870 103 143 211 228 505 960 1080 1980 2910
2021-01-10 22:30 6.39 1420 8220 (1937) 67 (1956) 870 103 143 211 228 505 960 1080 1980 2910
2021-01-10 21:30 6.40 1430 8220 (1937) 67 (1956) 870 103 143 211 228 505 960 1080 1980 2910
2021-01-10 20:30 6.41 1440 8220 (1937) 67 (1956) 870 103 143 211 228 505 960 1080 1980 2910
2021-01-10 19:30 6.40 1430 8220 (1937) 67 (1956) 870 103 143 211 228 505 960 1080 1980 2910
2021-01-10 18:30 6.41 1440 8220 (1937) 67 (1956) 870 103 143 211 228 505 960 1080 1980 2910
2021-01-10 17:30 6.43 1460 8220 (1937) 67 (1956) 870 103 143 211 228 505 960 1080 1980 2910
2021-01-10 16:30 6.42 1450 8220 (1937) 67 (1956) 870 103 143 211 228 505 960 1080 1980 2910
2021-01-10 15:30 6.41 1440 8220 (1937) 67 (1956) 870 103 143 211 228 505 960 1080 1980 2910
2021-01-10 14:30 6.44 1470 8220 (1937) 67 (1956) 870 103 143 211 228 505 960 1080 1980 2910
2021-01-10 13:30 6.45 1480 8220 (1937) 67 (1956) 870 103 143 211 228 505 960 1080 1980 2910
2021-01-10 12:30 6.44 1470 8220 (1937) 67 (1956) 870 103 143 211 228 505 960 1080 1980 2910
2021-01-10 11:30 6.48 1510 8220 (1937) 67 (1956) 870 103 143 211 228 505 960 1080 1980 2910
2021-01-10 10:30 6.48 1510 8220 (1937) 67 (1956) 870 103 143 211 228 505 960 1080 1980 2910
2021-01-10 09:30 6.51 1540 8220 (1937) 67 (1956) 870 103 143 211 228 505 960 1080 1980 2910
2021-01-10 08:30 6.52 1550 8220 (1937) 67 (1956) 870 103 143 211 228 505 960 1080 1980 2910
2021-01-10 07:30 6.50 1530 8220 (1937) 67 (1956) 870 103 143 211 228 505 960 1080 1980 2910
2021-01-10 06:30 6.52 1550 8220 (1937) 67 (1956) 870 103 143 211 228 505 960 1080 1980 2910
2021-01-10 05:30 6.55 1580 8220 (1937) 67 (1956) 870 103 143 211 228 505 960 1080 1980 2910
2021-01-10 04:30 6.55 1580 8220 (1937) 67 (1956) 870 103 143 211 228 505 960 1080 1980 2910
2021-01-10 03:30 6.56 1590 8220 (1937) 67 (1956) 870 103 143 211 228 505 960 1080 1980 2910
2021-01-10 02:30 6.58 1610 8220 (1937) 67 (1956) 870 103 143 211 228 505 960 1080 1980 2910
2021-01-10 01:30 6.58 1610 8220 (1937) 67 (1956) 870 103 143 211 228 505 960 1080 1980 2910
2021-01-10 00:30 6.57 1600 8220 (1937) 67 (1956) 870 103 143 211 228 505 960 1080 1980 2910
2021-01-09 23:30 6.58 1610 10900 (1998) 67 (1956) 880 105 141 212 235 505 970 1140 1970 3040
2021-01-09 22:30 6.64 1670 10900 (1998) 67 (1956) 880 105 141 212 235 505 970 1140 1970 3040
2021-01-09 20:30 6.62 1650 10900 (1998) 67 (1956) 880 105 141 212 235 505 970 1140 1970 3040
2021-01-09 19:30 6.66 1690 10900 (1998) 67 (1956) 880 105 141 212 235 505 970 1140 1970 3040
2021-01-09 18:30 6.67 1700 10900 (1998) 67 (1956) 880 105 141 212 235 505 970 1140 1970 3040
2021-01-09 17:30 6.66 1690 10900 (1998) 67 (1956) 880 105 141 212 235 505 970 1140 1970 3040
2021-01-09 16:30 6.67 1700 10900 (1998) 67 (1956) 880 105 141 212 235 505 970 1140 1970 3040
2021-01-09 15:30 6.69 1720 10900 (1998) 67 (1956) 880 105 141 212 235 505 970 1140 1970 3040
2021-01-09 14:30 6.70 1730 10900 (1998) 67 (1956) 880 105 141 212 235 505 970 1140 1970 3040
2021-01-09 13:30 6.70 1730 10900 (1998) 67 (1956) 880 105 141 212 235 505 970 1140 1970 3040
2021-01-09 12:30 6.72 1760 10900 (1998) 67 (1956) 880 105 141 212 235 505 970 1140 1970 3040
2021-01-09 11:30 6.74 1780 10900 (1998) 67 (1956) 880 105 141 212 235 505 970 1140 1970 3040
2021-01-09 10:30 6.73 1770 10900 (1998) 67 (1956) 880 105 141 212 235 505 970 1140 1970 3040
2021-01-09 09:30 6.78 1820 10900 (1998) 67 (1956) 880 105 141 212 235 505 970 1140 1970 3040
2021-01-09 08:30 6.72 1760 10900 (1998) 67 (1956) 880 105 141 212 235 505 970 1140 1970 3040
2021-01-09 07:30 6.78 1820 10900 (1998) 67 (1956) 880 105 141 212 235 505 970 1140 1970 3040
2021-01-09 06:30 6.78 1820 10900 (1998) 67 (1956) 880 105 141 212 235 505 970 1140 1970 3040
2021-01-09 05:30 6.79 1830 10900 (1998) 67 (1956) 880 105 141 212 235 505 970 1140 1970 3040
2021-01-09 04:30 6.81 1860 10900 (1998) 67 (1956) 880 105 141 212 235 505 970 1140 1970 3040
2021-01-09 03:30 6.83 1880 10900 (1998) 67 (1956) 880 105 141 212 235 505 970 1140 1970 3040
2021-01-09 02:30 6.82 1870 10900 (1998) 67 (1956) 880 105 141 212 235 505 970 1140 1970 3040
2021-01-09 01:30 6.84 1890 10900 (1998) 67 (1956) 880 105 141 212 235 505 970 1140 1970 3040
2021-01-09 00:30 6.85 1900 10900 (1998) 67 (1956) 880 105 141 212 235 505 970 1140 1970 3040
2021-01-08 23:30 6.83 1880 8080 (1998) 69 (1956) 860 108 149 219 241 528 997 1250 1740 2470
2021-01-08 22:30 6.84 1890 8080 (1998) 69 (1956) 860 108 149 219 241 528 997 1250 1740 2470
2021-01-08 21:30 6.84 1890 8080 (1998) 69 (1956) 860 108 149 219 241 528 997 1250 1740 2470
2021-01-08 20:30 6.82 1870 8080 (1998) 69 (1956) 860 108 149 219 241 528 997 1250 1740 2470
2021-01-08 19:30 6.81 1860 8080 (1998) 69 (1956) 860 108 149 219 241 528 997 1250 1740 2470
2021-01-08 18:30 6.79 1830 8080 (1998) 69 (1956) 860 108 149 219 241 528 997 1250 1740 2470
2021-01-08 17:30 6.77 1810 8080 (1998) 69 (1956) 860 108 149 219 241 528 997 1250 1740 2470
2021-01-08 16:30 6.75 1790 8080 (1998) 69 (1956) 860 108 149 219 241 528 997 1250 1740 2470
2021-01-08 15:30 6.71 1750 8080 (1998) 69 (1956) 860 108 149 219 241 528 997 1250 1740 2470
2021-01-08 14:30 6.68 1710 8080 (1998) 69 (1956) 860 108 149 219 241 528 997 1250 1740 2470
2021-01-08 13:30 6.67 1700 8080 (1998) 69 (1956) 860 108 149 219 241 528 997 1250 1740 2470
2021-01-08 12:30 6.62 1650 8080 (1998) 69 (1956) 860 108 149 219 241 528 997 1250 1740 2470
2021-01-08 11:30 6.58 1610 8080 (1998) 69 (1956) 860 108 149 219 241 528 997 1250 1740 2470
2021-01-08 10:30 6.54 1570 8080 (1998) 69 (1956) 860 108 149 219 241 528 997 1250 1740 2470
2021-01-08 09:30 6.52 1550 8080 (1998) 69 (1956) 860 108 149 219 241 528 997 1250 1740 2470
2021-01-08 08:30 6.50 1530 8080 (1998) 69 (1956) 860 108 149 219 241 528 997 1250 1740 2470
2021-01-08 07:30 6.43 1460 8080 (1998) 69 (1956) 860 108 149 219 241 528 997 1250 1740 2470
2021-01-08 06:30 6.42 1450 8080 (1998) 69 (1956) 860 108 149 219 241 528 997 1250 1740 2470
2021-01-08 05:30 6.37 1400 8080 (1998) 69 (1956) 860 108 149 219 241 528 997 1250 1740 2470
2021-01-08 04:30 6.40 1430 8080 (1998) 69 (1956) 860 108 149 219 241 528 997 1250 1740 2470
2021-01-08 03:30 6.36 1390 8080 (1998) 69 (1956) 860 108 149 219 241 528 997 1250 1740 2470
2021-01-08 02:30 6.35 1380 8080 (1998) 69 (1956) 860 108 149 219 241 528 997 1250 1740 2470
2021-01-08 01:30 6.33 1360 8080 (1998) 69 (1956) 860 108 149 219 241 528 997 1250 1740 2470
2021-01-08 00:30 6.32 1350 8080 (1998) 69 (1956) 860 108 149 219 241 528 997 1250 1740 2470
2021-01-07 23:30 6.34 1370 11100 (2005) 69 (1956) 965 102 147 223 246 540 970 1210 2090 2900
2021-01-07 22:30 6.31 1340 11100 (2005) 69 (1956) 965 102 147 223 246 540 970 1210 2090 2900
2021-01-07 21:30 6.31 1340 11100 (2005) 69 (1956) 965 102 147 223 246 540 970 1210 2090 2900
2021-01-07 20:30 6.31 1340 11100 (2005) 69 (1956) 965 102 147 223 246 540 970 1210 2090 2900
2021-01-07 19:30 6.33 1360 11100 (2005) 69 (1956) 965 102 147 223 246 540 970 1210 2090 2900
2021-01-07 18:30 6.32 1350 11100 (2005) 69 (1956) 965 102 147 223 246 540 970 1210 2090 2900
2021-01-07 17:30 6.33 1360 11100 (2005) 69 (1956) 965 102 147 223 246 540 970 1210 2090 2900
2021-01-07 16:30 6.32 1350 11100 (2005) 69 (1956) 965 102 147 223 246 540 970 1210 2090 2900
2021-01-07 15:30 6.34 1370 11100 (2005) 69 (1956) 965 102 147 223 246 540 970 1210 2090 2900
2021-01-07 14:30 6.32 1350 11100 (2005) 69 (1956) 965 102 147 223 246 540 970 1210 2090 2900
2021-01-07 13:30 6.35 1380 11100 (2005) 69 (1956) 965 102 147 223 246 540 970 1210 2090 2900
2021-01-07 12:30 6.34 1370 11100 (2005) 69 (1956) 965 102 147 223 246 540 970 1210 2090 2900
2021-01-07 11:30 6.37 1400 11100 (2005) 69 (1956) 965 102 147 223 246 540 970 1210 2090 2900
2021-01-07 10:30 6.35 1380 11100 (2005) 69 (1956) 965 102 147 223 246 540 970 1210 2090 2900
2021-01-07 09:30 6.36 1390 11100 (2005) 69 (1956) 965 102 147 223 246 540 970 1210 2090 2900
2021-01-07 08:30 6.37 1400 11100 (2005) 69 (1956) 965 102 147 223 246 540 970 1210 2090 2900
2021-01-07 07:30 6.37 1400 11100 (2005) 69 (1956) 965 102 147 223 246 540 970 1210 2090 2900
2021-01-07 06:30 6.37 1400 11100 (2005) 69 (1956) 965 102 147 223 246 540 970 1210 2090 2900
2021-01-07 05:30 6.36 1390 11100 (2005) 69 (1956) 965 102 147 223 246 540 970 1210 2090 2900
2021-01-07 04:30 6.37 1400 11100 (2005) 69 (1956) 965 102 147 223 246 540 970 1210 2090 2900
2021-01-07 03:30 6.38 1410 11100 (2005) 69 (1956) 965 102 147 223 246 540 970 1210 2090 2900
2021-01-07 02:30 6.40 1430 11100 (2005) 69 (1956) 965 102 147 223 246 540 970 1210 2090 2900
2021-01-07 01:30 6.41 1440 11100 (2005) 69 (1956) 965 102 147 223 246 540 970 1210 2090 2900
2021-01-07 00:30 6.40 1430 11100 (2005) 69 (1956) 965 102 147 223 246 540 970 1210 2090 2900
2021-01-06 23:30 6.39 1420 20100 (1998) 69 (1956) 1270 102 143 231 253 566 1080 1300 2080 3870
2021-01-06 22:30 6.41 1440 20100 (1998) 69 (1956) 1270 102 143 231 253 566 1080 1300 2080 3870
2021-01-06 21:30 6.42 1450 20100 (1998) 69 (1956) 1270 102 143 231 253 566 1080 1300 2080 3870
2021-01-06 20:30 6.43 1460 20100 (1998) 69 (1956) 1270 102 143 231 253 566 1080 1300 2080 3870
2021-01-06 19:30 6.44 1470 20100 (1998) 69 (1956) 1270 102 143 231 253 566 1080 1300 2080 3870
2021-01-06 18:30 6.48 1510 20100 (1998) 69 (1956) 1270 102 143 231 253 566 1080 1300 2080 3870
2021-01-06 17:30 6.46 1490 20100 (1998) 69 (1956) 1270 102 143 231 253 566 1080 1300 2080 3870
2021-01-06 16:30 6.44 1470 20100 (1998) 69 (1956) 1270 102 143 231 253 566 1080 1300 2080 3870
2021-01-06 15:30 6.46 1490 20100 (1998) 69 (1956) 1270 102 143 231 253 566 1080 1300 2080 3870
2021-01-06 14:30 6.49 1520 20100 (1998) 69 (1956) 1270 102 143 231 253 566 1080 1300 2080 3870
2021-01-06 13:30 6.49 1520 20100 (1998) 69 (1956) 1270 102 143 231 253 566 1080 1300 2080 3870
2021-01-06 12:30 6.48 1510 20100 (1998) 69 (1956) 1270 102 143 231 253 566 1080 1300 2080 3870
2021-01-06 11:30 6.51 1540 20100 (1998) 69 (1956) 1270 102 143 231 253 566 1080 1300 2080 3870
2021-01-06 10:30 6.50 1530 20100 (1998) 69 (1956) 1270 102 143 231 253 566 1080 1300 2080 3870
2021-01-06 09:30 6.52 1550 20100 (1998) 69 (1956) 1270 102 143 231 253 566 1080 1300 2080 3870
2021-01-06 08:30 6.53 1560 20100 (1998) 69 (1956) 1270 102 143 231 253 566 1080 1300 2080 3870
2021-01-06 07:30 6.52 1550 20100 (1998) 69 (1956) 1270 102 143 231 253 566 1080 1300 2080 3870
2021-01-06 06:30 6.53 1560 20100 (1998) 69 (1956) 1270 102 143 231 253 566 1080 1300 2080 3870
2021-01-06 05:30 6.53 1560 20100 (1998) 69 (1956) 1270 102 143 231 253 566 1080 1300 2080 3870
2021-01-06 04:30 6.55 1580 20100 (1998) 69 (1956) 1270 102 143 231 253 566 1080 1300 2080 3870
2021-01-06 03:30 6.57 1600 20100 (1998) 69 (1956) 1270 102 143 231 253 566 1080 1300 2080 3870
2021-01-06 02:30 6.59 1620 20100 (1998) 69 (1956) 1270 102 143 231 253 566 1080 1300 2080 3870
2021-01-06 01:30 6.59 1620 20100 (1998) 69 (1956) 1270 102 143 231 253 566 1080 1300 2080 3870
2021-01-06 00:30 6.63 1660 20100 (1998) 69 (1956) 1270 102 143 231 253 566 1080 1300 2080 3870
2021-01-05 23:30 6.65 1680 14900 (2005) 71 (1956) 1230 105 139 232 259 573 1230 1390 2490 5890
2021-01-05 22:30 6.63 1660 14900 (2005) 71 (1956) 1230 105 139 232 259 573 1230 1390 2490 5890
2021-01-05 21:30 6.64 1670 14900 (2005) 71 (1956) 1230 105 139 232 259 573 1230 1390 2490 5890
2021-01-05 20:30 6.67 1700 14900 (2005) 71 (1956) 1230 105 139 232 259 573 1230 1390 2490 5890
2021-01-05 19:30 6.66 1690 14900 (2005) 71 (1956) 1230 105 139 232 259 573 1230 1390 2490 5890
2021-01-05 18:30 6.67 1700 14900 (2005) 71 (1956) 1230 105 139 232 259 573 1230 1390 2490 5890
2021-01-05 17:30 6.68 1710 14900 (2005) 71 (1956) 1230 105 139 232 259 573 1230 1390 2490 5890
2021-01-05 16:30 6.67 1700 14900 (2005) 71 (1956) 1230 105 139 232 259 573 1230 1390 2490 5890
2021-01-05 15:30 6.67 1700 14900 (2005) 71 (1956) 1230 105 139 232 259 573 1230 1390 2490 5890
2021-01-05 14:30 6.71 1750 14900 (2005) 71 (1956) 1230 105 139 232 259 573 1230 1390 2490 5890
2021-01-05 13:30 6.72 1760 14900 (2005) 71 (1956) 1230 105 139 232 259 573 1230 1390 2490 5890
2021-01-05 12:30 6.75 1790 14900 (2005) 71 (1956) 1230 105 139 232 259 573 1230 1390 2490 5890
2021-01-05 11:30 6.74 1780 14900 (2005) 71 (1956) 1230 105 139 232 259 573 1230 1390 2490 5890
2021-01-05 10:30 6.78 1820 14900 (2005) 71 (1956) 1230 105 139 232 259 573 1230 1390 2490 5890
2021-01-05 09:30 6.78 1820 14900 (2005) 71 (1956) 1230 105 139 232 259 573 1230 1390 2490 5890
2021-01-05 08:30 6.77 1810 14900 (2005) 71 (1956) 1230 105 139 232 259 573 1230 1390 2490 5890
2021-01-05 07:30 6.79 1830 14900 (2005) 71 (1956) 1230 105 139 232 259 573 1230 1390 2490 5890
2021-01-05 06:30 6.84 1890 14900 (2005) 71 (1956) 1230 105 139 232 259 573 1230 1390 2490 5890
2021-01-05 05:30 6.87 1930 14900 (2005) 71 (1956) 1230 105 139 232 259 573 1230 1390 2490 5890
2021-01-05 04:30 6.89 1950 14900 (2005) 71 (1956) 1230 105 139 232 259 573 1230 1390 2490 5890
2021-01-05 03:30 6.88 1940 14900 (2005) 71 (1956) 1230 105 139 232 259 573 1230 1390 2490 5890
2021-01-05 02:30 6.89 1950 14900 (2005) 71 (1956) 1230 105 139 232 259 573 1230 1390 2490 5890
2021-01-05 01:30 6.92 1980 14900 (2005) 71 (1956) 1230 105 139 232 259 573 1230 1390 2490 5890
2021-01-05 00:30 6.95 2020 14900 (2005) 71 (1956) 1230 105 139 232 259 573 1230 1390 2490 5890
2021-01-04 23:30 6.97 2040 4510 (1985) 71 (1956) 873 105 142 233 259 594 1050 1300 2060 3390
2021-01-04 22:30 6.95 2020 4510 (1985) 71 (1956) 873 105 142 233 259 594 1050 1300 2060 3390
2021-01-04 21:30 6.99 2070 4510 (1985) 71 (1956) 873 105 142 233 259 594 1050 1300 2060 3390
2021-01-04 20:30 7.01 2090 4510 (1985) 71 (1956) 873 105 142 233 259 594 1050 1300 2060 3390
2021-01-04 19:30 6.98 2060 4510 (1985) 71 (1956) 873 105 142 233 259 594 1050 1300 2060 3390
2021-01-04 18:30 7.01 2090 4510 (1985) 71 (1956) 873 105 142 233 259 594 1050 1300 2060 3390
2021-01-04 17:30 6.99 2070 4510 (1985) 71 (1956) 873 105 142 233 259 594 1050 1300 2060 3390
2021-01-04 16:30 7.06 2160 4510 (1985) 71 (1956) 873 105 142 233 259 594 1050 1300 2060 3390
2021-01-04 15:30 7.07 2180 4510 (1985) 71 (1956) 873 105 142 233 259 594 1050 1300 2060 3390
2021-01-04 14:30 7.06 2160 4510 (1985) 71 (1956) 873 105 142 233 259 594 1050 1300 2060 3390
2021-01-04 13:30 7.08 2190 4510 (1985) 71 (1956) 873 105 142 233 259 594 1050 1300 2060 3390
2021-01-04 12:30 7.09 2210 4510 (1985) 71 (1956) 873 105 142 233 259 594 1050 1300 2060 3390
2021-01-04 11:30 7.14 2280 4510 (1985) 71 (1956) 873 105 142 233 259 594 1050 1300 2060 3390
2021-01-04 10:30 7.15 2290 4510 (1985) 71 (1956) 873 105 142 233 259 594 1050 1300 2060 3390
2021-01-04 09:30 7.18 2340 4510 (1985) 71 (1956) 873 105 142 233 259 594 1050 1300 2060 3390
2021-01-04 08:30 7.19 2350 4510 (1985) 71 (1956) 873 105 142 233 259 594 1050 1300 2060 3390
2021-01-04 07:30 7.21 2380 4510 (1985) 71 (1956) 873 105 142 233 259 594 1050 1300 2060 3390
2021-01-04 06:30 7.23 2410 4510 (1985) 71 (1956) 873 105 142 233 259 594 1050 1300 2060 3390
2021-01-04 05:30 7.25 2440 4510 (1985) 71 (1956) 873 105 142 233 259 594 1050 1300 2060 3390
2021-01-04 04:30 7.24 2430 4510 (1985) 71 (1956) 873 105 142 233 259 594 1050 1300 2060 3390
2021-01-04 03:30 7.32 2550 4510 (1985) 71 (1956) 873 105 142 233 259 594 1050 1300 2060 3390
2021-01-04 02:30 7.33 2560 4510 (1985) 71 (1956) 873 105 142 233 259 594 1050 1300 2060 3390
2021-01-04 01:30 7.40 2670 4510 (1985) 71 (1956) 873 105 142 233 259 594 1050 1300 2060 3390
2021-01-04 00:30 7.37 2630 4510 (1985) 71 (1956) 873 105 142 233 259 594 1050 1300 2060 3390
2021-01-03 23:30 7.40 2670 9620 (1941) 71 (1956) 923 104 143 220 246 580 1060 1160 1990 3210
2021-01-03 22:30 7.40 2670 9620 (1941) 71 (1956) 923 104 143 220 246 580 1060 1160 1990 3210
2021-01-03 21:30 7.48 2800 9620 (1941) 71 (1956) 923 104 143 220 246 580 1060 1160 1990 3210
2021-01-03 19:30 7.47 2790 9620 (1941) 71 (1956) 923 104 143 220 246 580 1060 1160 1990 3210
2021-01-03 18:30 7.48 2800 9620 (1941) 71 (1956) 923 104 143 220 246 580 1060 1160 1990 3210
2021-01-03 17:30 7.55 2900 9620 (1941) 71 (1956) 923 104 143 220 246 580 1060 1160 1990 3210
2021-01-03 16:30 7.57 2930 9620 (1941) 71 (1956) 923 104 143 220 246 580 1060 1160 1990 3210
2021-01-03 15:30 7.64 3020 9620 (1941) 71 (1956) 923 104 143 220 246 580 1060 1160 1990 3210
2021-01-03 14:30 7.70 3110 9620 (1941) 71 (1956) 923 104 143 220 246 580 1060 1160 1990 3210
2021-01-03 13:30 7.76 3190 9620 (1941) 71 (1956) 923 104 143 220 246 580 1060 1160 1990 3210
2021-01-03 12:30 7.77 3210 9620 (1941) 71 (1956) 923 104 143 220 246 580 1060 1160 1990 3210
2021-01-03 11:30 7.80 3250 9620 (1941) 71 (1956) 923 104 143 220 246 580 1060 1160 1990 3210
2021-01-03 10:30 7.83 3290 9620 (1941) 71 (1956) 923 104 143 220 246 580 1060 1160 1990 3210
2021-01-03 09:30 7.86 3340 9620 (1941) 71 (1956) 923 104 143 220 246 580 1060 1160 1990 3210
2021-01-03 08:30 7.92 3430 9620 (1941) 71 (1956) 923 104 143 220 246 580 1060 1160 1990 3210
2021-01-03 07:30 7.95 3470 9620 (1941) 71 (1956) 923 104 143 220 246 580 1060 1160 1990 3210
2021-01-03 06:30 8.02 3580 9620 (1941) 71 (1956) 923 104 143 220 246 580 1060 1160 1990 3210
2021-01-03 05:30 8.07 3650 9620 (1941) 71 (1956) 923 104 143 220 246 580 1060 1160 1990 3210
2021-01-03 04:30 8.18 3810 9620 (1941) 71 (1956) 923 104 143 220 246 580 1060 1160 1990 3210
2021-01-03 03:30 8.19 3830 9620 (1941) 71 (1956) 923 104 143 220 246 580 1060 1160 1990 3210
2021-01-03 01:30 8.35 4070 9620 (1941) 71 (1956) 923 104 143 220 246 580 1060 1160 1990 3210
2021-01-03 00:30 8.42 4170 9620 (1941) 71 (1956) 923 104 143 220 246 580 1060 1160 1990 3210
2021-01-02 23:30 8.51 4310 17700 (1985) 71 (1956) 1090 106 144 214 238 560 947 1270 2260 3620
2021-01-02 22:30 8.57 4410 17700 (1985) 71 (1956) 1090 106 144 214 238 560 947 1270 2260 3620
2021-01-02 21:30 8.64 4520 17700 (1985) 71 (1956) 1090 106 144 214 238 560 947 1270 2260 3620
2021-01-02 20:30 8.73 4660 17700 (1985) 71 (1956) 1090 106 144 214 238 560 947 1270 2260 3620
2021-01-02 19:30 8.84 4830 17700 (1985) 71 (1956) 1090 106 144 214 238 560 947 1270 2260 3620
2021-01-02 18:30 8.94 4980 17700 (1985) 71 (1956) 1090 106 144 214 238 560 947 1270 2260 3620
2021-01-02 17:30 9.03 5120 17700 (1985) 71 (1956) 1090 106 144 214 238 560 947 1270 2260 3620
2021-01-02 16:30 9.14 5300 17700 (1985) 71 (1956) 1090 106 144 214 238 560 947 1270 2260 3620
2021-01-02 15:30 9.25 5470 17700 (1985) 71 (1956) 1090 106 144 214 238 560 947 1270 2260 3620
2021-01-02 14:30 9.36 5640 17700 (1985) 71 (1956) 1090 106 144 214 238 560 947 1270 2260 3620
2021-01-02 13:30 9.45 5780 17700 (1985) 71 (1956) 1090 106 144 214 238 560 947 1270 2260 3620
2021-01-02 12:30 9.53 5910 17700 (1985) 71 (1956) 1090 106 144 214 238 560 947 1270 2260 3620
2021-01-02 11:30 9.62 6090 17700 (1985) 71 (1956) 1090 106 144 214 238 560 947 1270 2260 3620
2021-01-02 10:30 9.64 6120 17700 (1985) 71 (1956) 1090 106 144 214 238 560 947 1270 2260 3620
2021-01-02 09:30 9.60 6050 17700 (1985) 71 (1956) 1090 106 144 214 238 560 947 1270 2260 3620
2021-01-02 08:30 9.49 5840 17700 (1985) 71 (1956) 1090 106 144 214 238 560 947 1270 2260 3620
2021-01-02 07:30 9.32 5580 17700 (1985) 71 (1956) 1090 106 144 214 238 560 947 1270 2260 3620
2021-01-02 06:30 9.02 5110 17700 (1985) 71 (1956) 1090 106 144 214 238 560 947 1270 2260 3620
2021-01-02 05:30 8.75 4690 17700 (1985) 71 (1956) 1090 106 144 214 238 560 947 1270 2260 3620
2021-01-02 04:30 8.40 4140 17700 (1985) 71 (1956) 1090 106 144 214 238 560 947 1270 2260 3620
2021-01-02 03:30 8.05 3620 17700 (1985) 71 (1956) 1090 106 144 214 238 560 947 1270 2260 3620
2021-01-02 02:30 7.82 3280 17700 (1985) 71 (1956) 1090 106 144 214 238 560 947 1270 2260 3620
2021-01-02 01:30 7.64 3020 17700 (1985) 71 (1956) 1090 106 144 214 238 560 947 1270 2260 3620
2021-01-02 00:30 7.45 2750 17700 (1985) 71 (1956) 1090 106 144 214 238 560 947 1270 2260 3620
2021-01-01 23:30 7.28 2490 13100 (1985) 73 (1956) 968 108 136 216 239 582 1020 1290 2560 2990
2021-01-01 22:30 7.18 2340 13100 (1985) 73 (1956) 968 108 136 216 239 582 1020 1290 2560 2990
2021-01-01 21:30 7.09 2210 13100 (1985) 73 (1956) 968 108 136 216 239 582 1020 1290 2560 2990
2021-01-01 20:30 7.01 2090 13100 (1985) 73 (1956) 968 108 136 216 239 582 1020 1290 2560 2990
2021-01-01 19:30 7.02 2110 13100 (1985) 73 (1956) 968 108 136 216 239 582 1020 1290 2560 2990
2021-01-01 18:30 6.94 2010 13100 (1985) 73 (1956) 968 108 136 216 239 582 1020 1290 2560 2990
2021-01-01 17:30 6.93 2000 13100 (1985) 73 (1956) 968 108 136 216 239 582 1020 1290 2560 2990
2021-01-01 16:30 6.92 1980 13100 (1985) 73 (1956) 968 108 136 216 239 582 1020 1290 2560 2990
2021-01-01 15:30 6.89 1950 13100 (1985) 73 (1956) 968 108 136 216 239 582 1020 1290 2560 2990
2021-01-01 14:30 6.85 1900 13100 (1985) 73 (1956) 968 108 136 216 239 582 1020 1290 2560 2990
2021-01-01 13:30 6.83 1880 13100 (1985) 73 (1956) 968 108 136 216 239 582 1020 1290 2560 2990
2021-01-01 12:30 6.78 1820 13100 (1985) 73 (1956) 968 108 136 216 239 582 1020 1290 2560 2990
2021-01-01 11:30 6.73 1770 13100 (1985) 73 (1956) 968 108 136 216 239 582 1020 1290 2560 2990
2021-01-01 10:30 6.69 1720 13100 (1985) 73 (1956) 968 108 136 216 239 582 1020 1290 2560 2990
2021-01-01 09:30 6.65 1680 13100 (1985) 73 (1956) 968 108 136 216 239 582 1020 1290 2560 2990
2021-01-01 08:30 6.58 1610 13100 (1985) 73 (1956) 968 108 136 216 239 582 1020 1290 2560 2990
2021-01-01 07:30 6.53 1560 13100 (1985) 73 (1956) 968 108 136 216 239 582 1020 1290 2560 2990
2021-01-01 06:30 6.47 1500 13100 (1985) 73 (1956) 968 108 136 216 239 582 1020 1290 2560 2990
2021-01-01 05:30 6.36 1390 13100 (1985) 73 (1956) 968 108 136 216 239 582 1020 1290 2560 2990
2021-01-01 04:30 6.25 1290 13100 (1985) 73 (1956) 968 108 136 216 239 582 1020 1290 2560 2990
2021-01-01 03:30 6.17 1220 13100 (1985) 73 (1956) 968 108 136 216 239 582 1020 1290 2560 2990
2021-01-01 02:30 6.09 1150 13100 (1985) 73 (1956) 968 108 136 216 239 582 1020 1290 2560 2990
2021-01-01 01:30 6.02 1090 13100 (1985) 73 (1956) 968 108 136 216 239 582 1020 1290 2560 2990
2021-01-01 00:30 5.96 1050 13100 (1985) 73 (1956) 968 108 136 216 239 582 1020 1290 2560 2990
2020-12-31 23:30 5.87 976 5670 (2016) 73 (1956) 925 109 137 211 227 552 892 1310 2130 4310
2020-12-31 22:30 5.79 918 5670 (2016) 73 (1956) 925 109 137 211 227 552 892 1310 2130 4310
2020-12-31 21:30 5.70 855 5670 (2016) 73 (1956) 925 109 137 211 227 552 892 1310 2130 4310
2020-12-31 20:30 5.68 841 5670 (2016) 73 (1956) 925 109 137 211 227 552 892 1310 2130 4310
2020-12-31 19:30 5.63 807 5670 (2016) 73 (1956) 925 109 137 211 227 552 892 1310 2130 4310
2020-12-31 18:30 5.59 781 5670 (2016) 73 (1956) 925 109 137 211 227 552 892 1310 2130 4310
2020-12-31 17:30 5.57 768 5670 (2016) 73 (1956) 925 109 137 211 227 552 892 1310 2130 4310
2020-12-31 16:30 5.57 768 5670 (2016) 73 (1956) 925 109 137 211 227 552 892 1310 2130 4310
2020-12-31 15:30 5.56 762 5670 (2016) 73 (1956) 925 109 137 211 227 552 892 1310 2130 4310
2020-12-31 14:30 5.53 743 5670 (2016) 73 (1956) 925 109 137 211 227 552 892 1310 2130 4310
2020-12-31 13:30 5.53 743 5670 (2016) 73 (1956) 925 109 137 211 227 552 892 1310 2130 4310
2020-12-31 12:30 5.54 749 5670 (2016) 73 (1956) 925 109 137 211 227 552 892 1310 2130 4310
2020-12-31 11:30 5.53 743 5670 (2016) 73 (1956) 925 109 137 211 227 552 892 1310 2130 4310
2020-12-31 10:30 5.52 737 5670 (2016) 73 (1956) 925 109 137 211 227 552 892 1310 2130 4310
2020-12-31 09:30 5.52 737 5670 (2016) 73 (1956) 925 109 137 211 227 552 892 1310 2130 4310
2020-12-31 08:30 5.51 730 5670 (2016) 73 (1956) 925 109 137 211 227 552 892 1310 2130 4310
2020-12-31 07:30 5.52 737 5670 (2016) 73 (1956) 925 109 137 211 227 552 892 1310 2130 4310
2020-12-31 06:30 5.50 724 5670 (2016) 73 (1956) 925 109 137 211 227 552 892 1310 2130 4310
2020-12-31 05:30 5.51 730 5670 (2016) 73 (1956) 925 109 137 211 227 552 892 1310 2130 4310
2020-12-31 04:30 5.52 737 5670 (2016) 73 (1956) 925 109 137 211 227 552 892 1310 2130 4310
2020-12-31 03:30 5.51 730 5670 (2016) 73 (1956) 925 109 137 211 227 552 892 1310 2130 4310
2020-12-31 02:30 5.49 718 5670 (2016) 73 (1956) 925 109 137 211 227 552 892 1310 2130 4310
2020-12-31 01:30 5.49 718 5670 (2016) 73 (1956) 925 109 137 211 227 552 892 1310 2130 4310
2020-12-31 00:30 5.49 718 5670 (2016) 73 (1956) 925 109 137 211 227 552 892 1310 2130 4310
2020-12-30 23:30 5.48 712 10100 (2016) 73 (1956) 988 112 139 207 232 495 946 1190 2310 4170
2020-12-30 22:30 5.49 718 10100 (2016) 73 (1956) 988 112 139 207 232 495 946 1190 2310 4170
2020-12-30 21:30 5.48 712 10100 (2016) 73 (1956) 988 112 139 207 232 495 946 1190 2310 4170
2020-12-30 20:30 5.47 706 10100 (2016) 73 (1956) 988 112 139 207 232 495 946 1190 2310 4170
2020-12-30 19:30 5.49 718 10100 (2016) 73 (1956) 988 112 139 207 232 495 946 1190 2310 4170
2020-12-30 18:30 5.48 712 10100 (2016) 73 (1956) 988 112 139 207 232 495 946 1190 2310 4170
2020-12-30 17:30 5.48 712 10100 (2016) 73 (1956) 988 112 139 207 232 495 946 1190 2310 4170
2020-12-30 16:30 5.48 712 10100 (2016) 73 (1956) 988 112 139 207 232 495 946 1190 2310 4170
2020-12-30 15:30 5.46 700 10100 (2016) 73 (1956) 988 112 139 207 232 495 946 1190 2310 4170
2020-12-30 14:30 5.47 706 10100 (2016) 73 (1956) 988 112 139 207 232 495 946 1190 2310 4170
2020-12-30 13:30 5.46 700 10100 (2016) 73 (1956) 988 112 139 207 232 495 946 1190 2310 4170
2020-12-30 12:30 5.47 706 10100 (2016) 73 (1956) 988 112 139 207 232 495 946 1190 2310 4170
2020-12-30 11:30 5.45 694 10100 (2016) 73 (1956) 988 112 139 207 232 495 946 1190 2310 4170
2020-12-30 10:30 5.45 694 10100 (2016) 73 (1956) 988 112 139 207 232 495 946 1190 2310 4170
2020-12-30 09:30 5.45 694 10100 (2016) 73 (1956) 988 112 139 207 232 495 946 1190 2310 4170
2020-12-30 08:30 5.43 682 10100 (2016) 73 (1956) 988 112 139 207 232 495 946 1190 2310 4170
2020-12-30 07:30 5.43 682 10100 (2016) 73 (1956) 988 112 139 207 232 495 946 1190 2310 4170
2020-12-30 06:30 5.43 682 10100 (2016) 73 (1956) 988 112 139 207 232 495 946 1190 2310 4170
2020-12-30 05:30 5.41 670 10100 (2016) 73 (1956) 988 112 139 207 232 495 946 1190 2310 4170
2020-12-30 04:30 5.38 653 10100 (2016) 73 (1956) 988 112 139 207 232 495 946 1190 2310 4170
2020-12-30 03:30 5.39 659 10100 (2016) 73 (1956) 988 112 139 207 232 495 946 1190 2310 4170
2020-12-30 02:30 5.36 641 10100 (2016) 73 (1956) 988 112 139 207 232 495 946 1190 2310 4170
2020-12-30 01:30 5.34 630 10100 (2016) 73 (1956) 988 112 139 207 232 495 946 1190 2310 4170
2020-12-30 00:30 5.33 624 10100 (2016) 73 (1956) 988 112 139 207 232 495 946 1190 2310 4170
2020-12-29 23:30 5.34 630 45300 (2016) 73 (1956) 1550 111 143 203 237 458 985 1150 2120 5760
2020-12-29 22:30 5.36 641 45300 (2016) 73 (1956) 1550 111 143 203 237 458 985 1150 2120 5760
2020-12-29 21:30 5.36 641 45300 (2016) 73 (1956) 1550 111 143 203 237 458 985 1150 2120 5760
2020-12-29 20:30 5.36 641 45300 (2016) 73 (1956) 1550 111 143 203 237 458 985 1150 2120 5760
2020-12-29 19:30 5.36 641 45300 (2016) 73 (1956) 1550 111 143 203 237 458 985 1150 2120 5760
2020-12-29 18:30 5.35 636 45300 (2016) 73 (1956) 1550 111 143 203 237 458 985 1150 2120 5760
2020-12-29 17:30 5.34 630 45300 (2016) 73 (1956) 1550 111 143 203 237 458 985 1150 2120 5760
2020-12-29 16:30 5.36 641 45300 (2016) 73 (1956) 1550 111 143 203 237 458 985 1150 2120 5760
2020-12-29 15:30 5.35 636 45300 (2016) 73 (1956) 1550 111 143 203 237 458 985 1150 2120 5760
2020-12-29 14:30 5.34 630 45300 (2016) 73 (1956) 1550 111 143 203 237 458 985 1150 2120 5760
2020-12-29 13:30 5.35 636 45300 (2016) 73 (1956) 1550 111 143 203 237 458 985 1150 2120 5760
2020-12-29 12:30 5.36 641 45300 (2016) 73 (1956) 1550 111 143 203 237 458 985 1150 2120 5760
2020-12-29 11:30 5.37 647 45300 (2016) 73 (1956) 1550 111 143 203 237 458 985 1150 2120 5760
2020-12-29 10:30 5.37 647 45300 (2016) 73 (1956) 1550 111 143 203 237 458 985 1150 2120 5760
2020-12-29 09:30 5.37 647 45300 (2016) 73 (1956) 1550 111 143 203 237 458 985 1150 2120 5760
2020-12-29 08:30 5.38 653 45300 (2016) 73 (1956) 1550 111 143 203 237 458 985 1150 2120 5760
2020-12-29 07:30 5.36 641 45300 (2016) 73 (1956) 1550 111 143 203 237 458 985 1150 2120 5760
2020-12-29 06:30 5.37 647 45300 (2016) 73 (1956) 1550 111 143 203 237 458 985 1150 2120 5760
2020-12-29 05:30 5.38 653 45300 (2016) 73 (1956) 1550 111 143 203 237 458 985 1150 2120 5760
2020-12-29 04:30 5.36 641 45300 (2016) 73 (1956) 1550 111 143 203 237 458 985 1150 2120 5760
2020-12-29 03:30 5.36 641 45300 (2016) 73 (1956) 1550 111 143 203 237 458 985 1150 2120 5760
2020-12-29 02:30 5.37 647 45300 (2016) 73 (1956) 1550 111 143 203 237 458 985 1150 2120 5760
2020-12-29 01:30 5.38 653 45300 (2016) 73 (1956) 1550 111 143 203 237 458 985 1150 2120 5760
2020-12-29 00:30 5.38 653 45300 (2016) 73 (1956) 1550 111 143 203 237 458 985 1150 2120 5760
2020-12-28 23:30 5.37 647 107000 (2016) 73 (1956) 2330 114 145 202 228 473 868 1080 2000 4890
2020-12-28 22:30 5.38 653 107000 (2016) 73 (1956) 2330 114 145 202 228 473 868 1080 2000 4890
2020-12-28 21:30 5.38 653 107000 (2016) 73 (1956) 2330 114 145 202 228 473 868 1080 2000 4890
2020-12-28 20:30 5.37 647 107000 (2016) 73 (1956) 2330 114 145 202 228 473 868 1080 2000 4890
2020-12-28 19:30 5.37 647 107000 (2016) 73 (1956) 2330 114 145 202 228 473 868 1080 2000 4890
2020-12-28 18:30 5.36 641 107000 (2016) 73 (1956) 2330 114 145 202 228 473 868 1080 2000 4890
2020-12-28 17:30 5.38 653 107000 (2016) 73 (1956) 2330 114 145 202 228 473 868 1080 2000 4890
2020-12-28 16:30 5.37 647 107000 (2016) 73 (1956) 2330 114 145 202 228 473 868 1080 2000 4890
2020-12-28 15:30 5.37 647 107000 (2016) 73 (1956) 2330 114 145 202 228 473 868 1080 2000 4890
2020-12-28 14:30 5.38 653 107000 (2016) 73 (1956) 2330 114 145 202 228 473 868 1080 2000 4890
2020-12-28 13:30 5.36 641 107000 (2016) 73 (1956) 2330 114 145 202 228 473 868 1080 2000 4890
2020-12-28 12:30 5.37 647 107000 (2016) 73 (1956) 2330 114 145 202 228 473 868 1080 2000 4890
2020-12-28 11:30 5.38 653 107000 (2016) 73 (1956) 2330 114 145 202 228 473 868 1080 2000 4890
2020-12-28 10:30 5.38 653 107000 (2016) 73 (1956) 2330 114 145 202 228 473 868 1080 2000 4890
2020-12-28 09:30 5.38 653 107000 (2016) 73 (1956) 2330 114 145 202 228 473 868 1080 2000 4890
2020-12-28 08:30 5.39 659 107000 (2016) 73 (1956) 2330 114 145 202 228 473 868 1080 2000 4890
2020-12-28 07:30 5.39 659 107000 (2016) 73 (1956) 2330 114 145 202 228 473 868 1080 2000 4890
2020-12-28 06:30 5.38 653 107000 (2016) 73 (1956) 2330 114 145 202 228 473 868 1080 2000 4890
2020-12-28 05:30 5.38 653 107000 (2016) 73 (1956) 2330 114 145 202 228 473 868 1080 2000 4890
2020-12-28 04:30 5.39 659 107000 (2016) 73 (1956) 2330 114 145 202 228 473 868 1080 2000 4890
2020-12-28 03:30 5.41 670 107000 (2016) 73 (1956) 2330 114 145 202 228 473 868 1080 2000 4890
2020-12-28 02:30 5.38 653 107000 (2016) 73 (1956) 2330 114 145 202 228 473 868 1080 2000 4890
2020-12-28 01:30 5.40 664 107000 (2016) 73 (1956) 2330 114 145 202 228 473 868 1080 2000 4890
2020-12-28 00:30 5.40 664 107000 (2016) 73 (1956) 2330 114 145 202 228 473 868 1080 2000 4890
2020-12-27 23:30 5.42 676 31700 (2016) 73 (1956) 1280 102 144 199 224 486 856 1030 1830 2870
2020-12-27 22:30 5.40 664 31700 (2016) 73 (1956) 1280 102 144 199 224 486 856 1030 1830 2870
2020-12-27 21:30 5.41 670 31700 (2016) 73 (1956) 1280 102 144 199 224 486 856 1030 1830 2870
2020-12-27 20:30 5.41 670 31700 (2016) 73 (1956) 1280 102 144 199 224 486 856 1030 1830 2870
2020-12-27 19:30 5.40 664 31700 (2016) 73 (1956) 1280 102 144 199 224 486 856 1030 1830 2870
2020-12-27 18:30 5.39 659 31700 (2016) 73 (1956) 1280 102 144 199 224 486 856 1030 1830 2870
2020-12-27 17:30 5.40 664 31700 (2016) 73 (1956) 1280 102 144 199 224 486 856 1030 1830 2870
2020-12-27 16:30 5.40 664 31700 (2016) 73 (1956) 1280 102 144 199 224 486 856 1030 1830 2870
2020-12-27 15:30 5.41 670 31700 (2016) 73 (1956) 1280 102 144 199 224 486 856 1030 1830 2870
2020-12-27 14:30 5.41 670 31700 (2016) 73 (1956) 1280 102 144 199 224 486 856 1030 1830 2870
2020-12-27 13:30 5.40 664 31700 (2016) 73 (1956) 1280 102 144 199 224 486 856 1030 1830 2870
2020-12-27 12:30 5.42 676 31700 (2016) 73 (1956) 1280 102 144 199 224 486 856 1030 1830 2870
2020-12-27 11:30 5.42 676 31700 (2016) 73 (1956) 1280 102 144 199 224 486 856 1030 1830 2870
2020-12-27 10:30 5.42 676 31700 (2016) 73 (1956) 1280 102 144 199 224 486 856 1030 1830 2870
2020-12-27 09:30 5.43 682 31700 (2016) 73 (1956) 1280 102 144 199 224 486 856 1030 1830 2870
2020-12-27 08:30 5.43 682 31700 (2016) 73 (1956) 1280 102 144 199 224 486 856 1030 1830 2870
2020-12-27 07:30 5.43 682 31700 (2016) 73 (1956) 1280 102 144 199 224 486 856 1030 1830 2870
2020-12-27 06:30 5.44 688 31700 (2016) 73 (1956) 1280 102 144 199 224 486 856 1030 1830 2870
2020-12-27 05:30 5.43 682 31700 (2016) 73 (1956) 1280 102 144 199 224 486 856 1030 1830 2870
2020-12-27 04:30 5.43 682 31700 (2016) 73 (1956) 1280 102 144 199 224 486 856 1030 1830 2870
2020-12-27 03:30 5.46 700 31700 (2016) 73 (1956) 1280 102 144 199 224 486 856 1030 1830 2870
2020-12-27 02:30 5.43 682 31700 (2016) 73 (1956) 1280 102 144 199 224 486 856 1030 1830 2870
2020-12-27 01:30 5.43 682 31700 (2016) 73 (1956) 1280 102 144 199 224 486 856 1030 1830 2870
2020-12-27 00:30 5.43 682 31700 (2016) 73 (1956) 1280 102 144 199 224 486 856 1030 1830 2870
2020-12-26 23:30 5.43 682 14300 (1988) 73 (1956) 838 101 134 202 224 502 739 942 1780 2850
2020-12-26 22:30 5.44 688 14300 (1988) 73 (1956) 838 101 134 202 224 502 739 942 1780 2850
2020-12-26 21:30 5.44 688 14300 (1988) 73 (1956) 838 101 134 202 224 502 739 942 1780 2850
2020-12-26 20:30 5.45 694 14300 (1988) 73 (1956) 838 101 134 202 224 502 739 942 1780 2850
2020-12-26 19:30 5.44 688 14300 (1988) 73 (1956) 838 101 134 202 224 502 739 942 1780 2850
2020-12-26 18:30 5.45 694 14300 (1988) 73 (1956) 838 101 134 202 224 502 739 942 1780 2850
2020-12-26 17:30 5.45 694 14300 (1988) 73 (1956) 838 101 134 202 224 502 739 942 1780 2850
2020-12-26 16:30 5.45 694 14300 (1988) 73 (1956) 838 101 134 202 224 502 739 942 1780 2850
2020-12-26 15:30 5.46 700 14300 (1988) 73 (1956) 838 101 134 202 224 502 739 942 1780 2850
2020-12-26 14:30 5.46 700 14300 (1988) 73 (1956) 838 101 134 202 224 502 739 942 1780 2850
2020-12-26 13:30 5.46 700 14300 (1988) 73 (1956) 838 101 134 202 224 502 739 942 1780 2850
2020-12-26 12:30 5.48 712 14300 (1988) 73 (1956) 838 101 134 202 224 502 739 942 1780 2850
2020-12-26 11:30 5.47 706 14300 (1988) 73 (1956) 838 101 134 202 224 502 739 942 1780 2850
2020-12-26 10:30 5.47 706 14300 (1988) 73 (1956) 838 101 134 202 224 502 739 942 1780 2850
2020-12-26 09:30 5.46 700 14300 (1988) 73 (1956) 838 101 134 202 224 502 739 942 1780 2850
2020-12-26 08:30 5.48 712 14300 (1988) 73 (1956) 838 101 134 202 224 502 739 942 1780 2850
2020-12-26 07:30 5.48 712 14300 (1988) 73 (1956) 838 101 134 202 224 502 739 942 1780 2850
2020-12-26 06:30 5.49 718 14300 (1988) 73 (1956) 838 101 134 202 224 502 739 942 1780 2850
2020-12-26 05:30 5.49 718 14300 (1988) 73 (1956) 838 101 134 202 224 502 739 942 1780 2850
2020-12-26 04:30 5.48 712 14300 (1988) 73 (1956) 838 101 134 202 224 502 739 942 1780 2850
2020-12-26 03:30 5.48 712 14300 (1988) 73 (1956) 838 101 134 202 224 502 739 942 1780 2850
2020-12-26 02:30 5.50 724 14300 (1988) 73 (1956) 838 101 134 202 224 502 739 942 1780 2850
2020-12-26 01:30 5.49 718 14300 (1988) 73 (1956) 838 101 134 202 224 502 739 942 1780 2850
2020-12-26 00:30 5.48 712 14300 (1988) 73 (1956) 838 101 134 202 224 502 739 942 1780 2850
2020-12-25 23:30 5.49 718 4090 (1974) 73 (1956) 725 103 131 200 221 504 817 964 1650 3360
2020-12-25 22:30 5.49 718 4090 (1974) 73 (1956) 725 103 131 200 221 504 817 964 1650 3360
2020-12-25 21:30 5.49 718 4090 (1974) 73 (1956) 725 103 131 200 221 504 817 964 1650 3360
2020-12-25 20:30 5.48 712 4090 (1974) 73 (1956) 725 103 131 200 221 504 817 964 1650 3360
2020-12-25 19:30 5.49 718 4090 (1974) 73 (1956) 725 103 131 200 221 504 817 964 1650 3360
2020-12-25 18:30 5.50 724 4090 (1974) 73 (1956) 725 103 131 200 221 504 817 964 1650 3360
2020-12-25 17:30 5.48 712 4090 (1974) 73 (1956) 725 103 131 200 221 504 817 964 1650 3360
2020-12-25 16:30 5.48 712 4090 (1974) 73 (1956) 725 103 131 200 221 504 817 964 1650 3360
2020-12-25 15:30 5.51 730 4090 (1974) 73 (1956) 725 103 131 200 221 504 817 964 1650 3360
2020-12-25 14:30 5.50 724 4090 (1974) 73 (1956) 725 103 131 200 221 504 817 964 1650 3360
2020-12-25 13:30 5.51 730 4090 (1974) 73 (1956) 725 103 131 200 221 504 817 964 1650 3360
2020-12-25 12:30 5.51 730 4090 (1974) 73 (1956) 725 103 131 200 221 504 817 964 1650 3360
2020-12-25 11:30 5.50 724 4090 (1974) 73 (1956) 725 103 131 200 221 504 817 964 1650 3360
2020-12-25 10:30 5.50 724 4090 (1974) 73 (1956) 725 103 131 200 221 504 817 964 1650 3360
2020-12-25 09:30 5.51 730 4090 (1974) 73 (1956) 725 103 131 200 221 504 817 964 1650 3360
2020-12-25 08:30 5.52 737 4090 (1974) 73 (1956) 725 103 131 200 221 504 817 964 1650 3360
2020-12-25 07:30 5.52 737 4090 (1974) 73 (1956) 725 103 131 200 221 504 817 964 1650 3360
2020-12-25 06:30 5.52 737 4090 (1974) 73 (1956) 725 103 131 200 221 504 817 964 1650 3360
2020-12-25 05:30 5.51 730 4090 (1974) 73 (1956) 725 103 131 200 221 504 817 964 1650 3360
2020-12-25 04:30 5.54 749 4090 (1974) 73 (1956) 725 103 131 200 221 504 817 964 1650 3360
2020-12-25 03:30 5.53 743 4090 (1974) 73 (1956) 725 103 131 200 221 504 817 964 1650 3360
2020-12-25 02:30 5.53 743 4090 (1974) 73 (1956) 725 103 131 200 221 504 817 964 1650 3360
2020-12-25 01:30 5.53 743 4090 (1974) 73 (1956) 725 103 131 200 221 504 817 964 1650 3360
2020-12-25 00:30 5.53 743 4090 (1974) 73 (1956) 725 103 131 200 221 504 817 964 1650 3360
2020-12-24 23:30 5.54 749 5500 (1985) 76 (1956) 736 102 127 181 214 492 817 1010 1730 2810
2020-12-24 22:30 5.53 743 5500 (1985) 76 (1956) 736 102 127 181 214 492 817 1010 1730 2810
2020-12-24 21:30 5.53 743 5500 (1985) 76 (1956) 736 102 127 181 214 492 817 1010 1730 2810
2020-12-24 20:30 5.54 749 5500 (1985) 76 (1956) 736 102 127 181 214 492 817 1010 1730 2810
2020-12-24 19:30 5.53 743 5500 (1985) 76 (1956) 736 102 127 181 214 492 817 1010 1730 2810
2020-12-24 18:30 5.54 749 5500 (1985) 76 (1956) 736 102 127 181 214 492 817 1010 1730 2810
2020-12-24 17:30 5.53 743 5500 (1985) 76 (1956) 736 102 127 181 214 492 817 1010 1730 2810
2020-12-24 16:30 5.55 756 5500 (1985) 76 (1956) 736 102 127 181 214 492 817 1010 1730 2810
2020-12-24 15:30 5.53 743 5500 (1985) 76 (1956) 736 102 127 181 214 492 817 1010 1730 2810
2020-12-24 14:30 5.54 749 5500 (1985) 76 (1956) 736 102 127 181 214 492 817 1010 1730 2810
2020-12-24 13:30 5.54 749 5500 (1985) 76 (1956) 736 102 127 181 214 492 817 1010 1730 2810
2020-12-24 12:30 5.56 762 5500 (1985) 76 (1956) 736 102 127 181 214 492 817 1010 1730 2810
2020-12-24 11:30 5.55 756 5500 (1985) 76 (1956) 736 102 127 181 214 492 817 1010 1730 2810
2020-12-24 10:30 5.56 762 5500 (1985) 76 (1956) 736 102 127 181 214 492 817 1010 1730 2810
2020-12-24 09:30 5.57 768 5500 (1985) 76 (1956) 736 102 127 181 214 492 817 1010 1730 2810
2020-12-24 08:30 5.56 762 5500 (1985) 76 (1956) 736 102 127 181 214 492 817 1010 1730 2810
2020-12-24 07:30 5.57 768 5500 (1985) 76 (1956) 736 102 127 181 214 492 817 1010 1730 2810
2020-12-24 06:30 5.56 762 5500 (1985) 76 (1956) 736 102 127 181 214 492 817 1010 1730 2810
2020-12-24 05:30 5.57 768 5500 (1985) 76 (1956) 736 102 127 181 214 492 817 1010 1730 2810
2020-12-24 04:30 5.58 775 5500 (1985) 76 (1956) 736 102 127 181 214 492 817 1010 1730 2810
2020-12-24 03:30 5.58 775 5500 (1985) 76 (1956) 736 102 127 181 214 492 817 1010 1730 2810
2020-12-24 02:30 5.57 768 5500 (1985) 76 (1956) 736 102 127 181 214 492 817 1010 1730 2810
2020-12-24 01:30 5.57 768 5500 (1985) 76 (1956) 736 102 127 181 214 492 817 1010 1730 2810
2020-12-24 00:30 5.56 762 5500 (1985) 76 (1956) 736 102 127 181 214 492 817 1010 1730 2810
2020-12-23 23:30 5.60 788 14700 (1985) 76 (1956) 918 100 124 185 213 428 841 1060 1890 3940
2020-12-23 22:30 5.57 768 14700 (1985) 76 (1956) 918 100 124 185 213 428 841 1060 1890 3940
2020-12-23 21:30 5.57 768 14700 (1985) 76 (1956) 918 100 124 185 213 428 841 1060 1890 3940
2020-12-23 20:30 5.59 781 14700 (1985) 76 (1956) 918 100 124 185 213 428 841 1060 1890 3940
2020-12-23 19:30 5.60 788 14700 (1985) 76 (1956) 918 100 124 185 213 428 841 1060 1890 3940
2020-12-23 18:30 5.59 781 14700 (1985) 76 (1956) 918 100 124 185 213 428 841 1060 1890 3940
2020-12-23 17:30 5.59 781 14700 (1985) 76 (1956) 918 100 124 185 213 428 841 1060 1890 3940
2020-12-23 16:30 5.58 775 14700 (1985) 76 (1956) 918 100 124 185 213 428 841 1060 1890 3940
2020-12-23 15:30 5.58 775 14700 (1985) 76 (1956) 918 100 124 185 213 428 841 1060 1890 3940
2020-12-23 14:30 5.59 781 14700 (1985) 76 (1956) 918 100 124 185 213 428 841 1060 1890 3940
2020-12-23 13:30 5.60 788 14700 (1985) 76 (1956) 918 100 124 185 213 428 841 1060 1890 3940
2020-12-23 12:30 5.61 794 14700 (1985) 76 (1956) 918 100 124 185 213 428 841 1060 1890 3940
2020-12-23 11:30 5.59 781 14700 (1985) 76 (1956) 918 100 124 185 213 428 841 1060 1890 3940
2020-12-23 10:30 5.60 788 14700 (1985) 76 (1956) 918 100 124 185 213 428 841 1060 1890 3940
2020-12-23 09:30 5.58 775 14700 (1985) 76 (1956) 918 100 124 185 213 428 841 1060 1890 3940
2020-12-23 08:30 5.61 794 14700 (1985) 76 (1956) 918 100 124 185 213 428 841 1060 1890 3940
2020-12-23 07:30 5.61 794 14700 (1985) 76 (1956) 918 100 124 185 213 428 841 1060 1890 3940
2020-12-23 06:30 5.61 794 14700 (1985) 76 (1956) 918 100 124 185 213 428 841 1060 1890 3940
2020-12-23 05:30 5.62 801 14700 (1985) 76 (1956) 918 100 124 185 213 428 841 1060 1890 3940
2020-12-23 04:30 5.60 788 14700 (1985) 76 (1956) 918 100 124 185 213 428 841 1060 1890 3940
2020-12-23 03:30 5.63 807 14700 (1985) 76 (1956) 918 100 124 185 213 428 841 1060 1890 3940
2020-12-23 02:30 5.62 801 14700 (1985) 76 (1956) 918 100 124 185 213 428 841 1060 1890 3940
2020-12-23 01:30 5.63 807 14700 (1985) 76 (1956) 918 100 124 185 213 428 841 1060 1890 3940
2020-12-23 00:30 5.63 807 14700 (1985) 76 (1956) 918 100 124 185 213 428 841 1060 1890 3940
2020-12-22 23:30 5.62 801 33700 (1985) 76 (1956) 1220 96 129 179 210 426 841 1110 2270 4210
2020-12-22 22:30 5.63 807 33700 (1985) 76 (1956) 1220 96 129 179 210 426 841 1110 2270 4210
2020-12-22 21:30 5.63 807 33700 (1985) 76 (1956) 1220 96 129 179 210 426 841 1110 2270 4210
2020-12-22 20:30 5.63 807 33700 (1985) 76 (1956) 1220 96 129 179 210 426 841 1110 2270 4210
2020-12-22 19:30 5.62 801 33700 (1985) 76 (1956) 1220 96 129 179 210 426 841 1110 2270 4210
2020-12-22 18:30 5.63 807 33700 (1985) 76 (1956) 1220 96 129 179 210 426 841 1110 2270 4210
2020-12-22 17:30 5.63 807 33700 (1985) 76 (1956) 1220 96 129 179 210 426 841 1110 2270 4210
2020-12-22 16:30 5.63 807 33700 (1985) 76 (1956) 1220 96 129 179 210 426 841 1110 2270 4210
2020-12-22 15:30 5.63 807 33700 (1985) 76 (1956) 1220 96 129 179 210 426 841 1110 2270 4210
2020-12-22 14:30 5.65 821 33700 (1985) 76 (1956) 1220 96 129 179 210 426 841 1110 2270 4210
2020-12-22 13:30 5.64 814 33700 (1985) 76 (1956) 1220 96 129 179 210 426 841 1110 2270 4210
2020-12-22 12:30 5.64 814 33700 (1985) 76 (1956) 1220 96 129 179 210 426 841 1110 2270 4210
2020-12-22 11:30 5.65 821 33700 (1985) 76 (1956) 1220 96 129 179 210 426 841 1110 2270 4210
2020-12-22 10:30 5.64 814 33700 (1985) 76 (1956) 1220 96 129 179 210 426 841 1110 2270 4210
2020-12-22 09:30 5.64 814 33700 (1985) 76 (1956) 1220 96 129 179 210 426 841 1110 2270 4210
2020-12-22 08:30 5.64 814 33700 (1985) 76 (1956) 1220 96 129 179 210 426 841 1110 2270 4210
2020-12-22 07:30 5.66 827 33700 (1985) 76 (1956) 1220 96 129 179 210 426 841 1110 2270 4210
2020-12-22 06:30 5.66 827 33700 (1985) 76 (1956) 1220 96 129 179 210 426 841 1110 2270 4210
2020-12-22 05:30 5.65 821 33700 (1985) 76 (1956) 1220 96 129 179 210 426 841 1110 2270 4210
2020-12-22 04:30 5.66 827 33700 (1985) 76 (1956) 1220 96 129 179 210 426 841 1110 2270 4210
2020-12-22 03:30 5.67 834 33700 (1985) 76 (1956) 1220 96 129 179 210 426 841 1110 2270 4210
2020-12-22 02:30 5.67 834 33700 (1985) 76 (1956) 1220 96 129 179 210 426 841 1110 2270 4210
2020-12-22 01:30 5.67 834 33700 (1985) 76 (1956) 1220 96 129 179 210 426 841 1110 2270 4210
2020-12-22 00:30 5.67 834 33700 (1985) 76 (1956) 1220 96 129 179 210 426 841 1110 2270 4210
2020-12-21 23:30 5.67 834 14100 (1988) 76 (1956) 981 97 136 178 211 431 889 1170 1810 3130
2020-12-21 22:30 5.68 841 14100 (1988) 76 (1956) 981 97 136 178 211 431 889 1170 1810 3130
2020-12-21 21:30 5.68 841 14100 (1988) 76 (1956) 981 97 136 178 211 431 889 1170 1810 3130
2020-12-21 20:30 5.67 834 14100 (1988) 76 (1956) 981 97 136 178 211 431 889 1170 1810 3130
2020-12-21 19:30 5.67 834 14100 (1988) 76 (1956) 981 97 136 178 211 431 889 1170 1810 3130
2020-12-21 18:30 5.67 834 14100 (1988) 76 (1956) 981 97 136 178 211 431 889 1170 1810 3130
2020-12-21 17:30 5.67 834 14100 (1988) 76 (1956) 981 97 136 178 211 431 889 1170 1810 3130
2020-12-21 16:30 5.67 834 14100 (1988) 76 (1956) 981 97 136 178 211 431 889 1170 1810 3130
2020-12-21 15:30 5.66 827 14100 (1988) 76 (1956) 981 97 136 178 211 431 889 1170 1810 3130
2020-12-21 14:30 5.67 834 14100 (1988) 76 (1956) 981 97 136 178 211 431 889 1170 1810 3130
2020-12-21 13:30 5.67 834 14100 (1988) 76 (1956) 981 97 136 178 211 431 889 1170 1810 3130
2020-12-21 12:30 5.67 834 14100 (1988) 76 (1956) 981 97 136 178 211 431 889 1170 1810 3130
2020-12-21 11:30 5.67 834 14100 (1988) 76 (1956) 981 97 136 178 211 431 889 1170 1810 3130
2020-12-21 10:30 5.68 841 14100 (1988) 76 (1956) 981 97 136 178 211 431 889 1170 1810 3130
2020-12-21 09:30 5.68 841 14100 (1988) 76 (1956) 981 97 136 178 211 431 889 1170 1810 3130
2020-12-21 08:30 5.69 848 14100 (1988) 76 (1956) 981 97 136 178 211 431 889 1170 1810 3130
2020-12-21 07:30 5.69 848 14100 (1988) 76 (1956) 981 97 136 178 211 431 889 1170 1810 3130
2020-12-21 06:30 5.69 848 14100 (1988) 76 (1956) 981 97 136 178 211 431 889 1170 1810 3130
2020-12-21 05:30 5.69 848 14100 (1988) 76 (1956) 981 97 136 178 211 431 889 1170 1810 3130
2020-12-21 04:30 5.69 848 14100 (1988) 76 (1956) 981 97 136 178 211 431 889 1170 1810 3130
2020-12-21 03:30 5.69 848 14100 (1988) 76 (1956) 981 97 136 178 211 431 889 1170 1810 3130
2020-12-21 02:30 5.69 848 14100 (1988) 76 (1956) 981 97 136 178 211 431 889 1170 1810 3130
2020-12-21 01:30 5.69 848 14100 (1988) 76 (1956) 981 97 136 178 211 431 889 1170 1810 3130
2020-12-21 00:30 5.69 848 14100 (1988) 76 (1956) 981 97 136 178 211 431 889 1170 1810 3130
2020-12-20 23:30 5.70 855 11300 (1988) 76 (1956) 845 97 143 182 214 483 881 1240 1760 2220
2020-12-20 22:30 5.68 841 11300 (1988) 76 (1956) 845 97 143 182 214 483 881 1240 1760 2220
2020-12-20 21:30 5.69 848 11300 (1988) 76 (1956) 845 97 143 182 214 483 881 1240 1760 2220
2020-12-20 20:30 5.68 841 11300 (1988) 76 (1956) 845 97 143 182 214 483 881 1240 1760 2220
2020-12-20 19:30 5.68 841 11300 (1988) 76 (1956) 845 97 143 182 214 483 881 1240 1760 2220
2020-12-20 18:30 5.69 848 11300 (1988) 76 (1956) 845 97 143 182 214 483 881 1240 1760 2220
2020-12-20 17:30 5.69 848 11300 (1988) 76 (1956) 845 97 143 182 214 483 881 1240 1760 2220
2020-12-20 16:30 5.68 841 11300 (1988) 76 (1956) 845 97 143 182 214 483 881 1240 1760 2220
2020-12-20 15:30 5.69 848 11300 (1988) 76 (1956) 845 97 143 182 214 483 881 1240 1760 2220
2020-12-20 14:30 5.68 841 11300 (1988) 76 (1956) 845 97 143 182 214 483 881 1240 1760 2220
2020-12-20 13:30 5.69 848 11300 (1988) 76 (1956) 845 97 143 182 214 483 881 1240 1760 2220
2020-12-20 12:30 5.69 848 11300 (1988) 76 (1956) 845 97 143 182 214 483 881 1240 1760 2220
2020-12-20 11:30 5.69 848 11300 (1988) 76 (1956) 845 97 143 182 214 483 881 1240 1760 2220
2020-12-20 10:30 5.70 855 11300 (1988) 76 (1956) 845 97 143 182 214 483 881 1240 1760 2220
2020-12-20 09:30 5.71 861 11300 (1988) 76 (1956) 845 97 143 182 214 483 881 1240 1760 2220
2020-12-20 08:30 5.70 855 11300 (1988) 76 (1956) 845 97 143 182 214 483 881 1240 1760 2220
2020-12-20 07:30 5.70 855 11300 (1988) 76 (1956) 845 97 143 182 214 483 881 1240 1760 2220
2020-12-20 06:30 5.71 861 11300 (1988) 76 (1956) 845 97 143 182 214 483 881 1240 1760 2220
2020-12-20 05:30 5.70 855 11300 (1988) 76 (1956) 845 97 143 182 214 483 881 1240 1760 2220
2020-12-20 04:30 5.70 855 11300 (1988) 76 (1956) 845 97 143 182 214 483 881 1240 1760 2220
2020-12-20 03:30 5.70 855 11300 (1988) 76 (1956) 845 97 143 182 214 483 881 1240 1760 2220
2020-12-20 02:30 5.69 848 11300 (1988) 76 (1956) 845 97 143 182 214 483 881 1240 1760 2220
2020-12-20 01:30 5.69 848 11300 (1988) 76 (1956) 845 97 143 182 214 483 881 1240 1760 2220
2020-12-20 00:30 5.69 848 11300 (1988) 76 (1956) 845 97 143 182 214 483 881 1240 1760 2220
2020-12-19 23:30 5.70 855 6660 (2002) 76 (1956) 820 101 143 183 214 508 972 1170 1920 2640
2020-12-19 22:30 5.69 848 6660 (2002) 76 (1956) 820 101 143 183 214 508 972 1170 1920 2640
2020-12-19 21:30 5.68 841 6660 (2002) 76 (1956) 820 101 143 183 214 508 972 1170 1920 2640
2020-12-19 20:30 5.69 848 6660 (2002) 76 (1956) 820 101 143 183 214 508 972 1170 1920 2640
2020-12-19 19:30 5.69 848 6660 (2002) 76 (1956) 820 101 143 183 214 508 972 1170 1920 2640
2020-12-19 18:30 5.69 848 6660 (2002) 76 (1956) 820 101 143 183 214 508 972 1170 1920 2640
2020-12-19 17:30 5.69 848 6660 (2002) 76 (1956) 820 101 143 183 214 508 972 1170 1920 2640
2020-12-19 16:30 5.68 841 6660 (2002) 76 (1956) 820 101 143 183 214 508 972 1170 1920 2640
2020-12-19 15:30 5.68 841 6660 (2002) 76 (1956) 820 101 143 183 214 508 972 1170 1920 2640
2020-12-19 14:30 5.68 841 6660 (2002) 76 (1956) 820 101 143 183 214 508 972 1170 1920 2640
2020-12-19 13:30 5.68 841 6660 (2002) 76 (1956) 820 101 143 183 214 508 972 1170 1920 2640
2020-12-19 12:30 5.69 848 6660 (2002) 76 (1956) 820 101 143 183 214 508 972 1170 1920 2640
2020-12-19 11:30 5.69 848 6660 (2002) 76 (1956) 820 101 143 183 214 508 972 1170 1920 2640
2020-12-19 10:30 5.69 848 6660 (2002) 76 (1956) 820 101 143 183 214 508 972 1170 1920 2640
2020-12-19 09:30 5.69 848 6660 (2002) 76 (1956) 820 101 143 183 214 508 972 1170 1920 2640
2020-12-19 08:30 5.70 855 6660 (2002) 76 (1956) 820 101 143 183 214 508 972 1170 1920 2640
2020-12-19 07:30 5.70 855 6660 (2002) 76 (1956) 820 101 143 183 214 508 972 1170 1920 2640
2020-12-19 06:30 5.71 861 6660 (2002) 76 (1956) 820 101 143 183 214 508 972 1170 1920 2640
2020-12-19 05:30 5.70 855 6660 (2002) 76 (1956) 820 101 143 183 214 508 972 1170 1920 2640
2020-12-19 04:30 5.70 855 6660 (2002) 76 (1956) 820 101 143 183 214 508 972 1170 1920 2640
2020-12-19 03:30 5.71 861 6660 (2002) 76 (1956) 820 101 143 183 214 508 972 1170 1920 2640
2020-12-19 02:30 5.70 855 6660 (2002) 76 (1956) 820 101 143 183 214 508 972 1170 1920 2640
2020-12-19 01:30 5.71 861 6660 (2002) 76 (1956) 820 101 143 183 214 508 972 1170 1920 2640
2020-12-19 00:30 5.71 861 6660 (2002) 76 (1956) 820 101 143 183 214 508 972 1170 1920 2640
2020-12-18 23:30 5.71 861 16800 (2002) 76 (1956) 992 104 143 183 216 472 1010 1140 2060 2890
2020-12-18 22:30 5.72 868 16800 (2002) 76 (1956) 992 104 143 183 216 472 1010 1140 2060 2890
2020-12-18 21:30 5.71 861 16800 (2002) 76 (1956) 992 104 143 183 216 472 1010 1140 2060 2890
2020-12-18 20:30 5.72 868 16800 (2002) 76 (1956) 992 104 143 183 216 472 1010 1140 2060 2890
2020-12-18 19:30 5.72 868 16800 (2002) 76 (1956) 992 104 143 183 216 472 1010 1140 2060 2890
2020-12-18 18:30 5.72 868 16800 (2002) 76 (1956) 992 104 143 183 216 472 1010 1140 2060 2890
2020-12-18 17:30 5.71 861 16800 (2002) 76 (1956) 992 104 143 183 216 472 1010 1140 2060 2890
2020-12-18 16:30 5.72 868 16800 (2002) 76 (1956) 992 104 143 183 216 472 1010 1140 2060 2890
2020-12-18 15:30 5.72 868 16800 (2002) 76 (1956) 992 104 143 183 216 472 1010 1140 2060 2890
2020-12-18 14:30 5.73 875 16800 (2002) 76 (1956) 992 104 143 183 216 472 1010 1140 2060 2890
2020-12-18 13:30 5.71 861 16800 (2002) 76 (1956) 992 104 143 183 216 472 1010 1140 2060 2890
2020-12-18 12:30 5.73 875 16800 (2002) 76 (1956) 992 104 143 183 216 472 1010 1140 2060 2890
2020-12-18 11:30 5.73 875 16800 (2002) 76 (1956) 992 104 143 183 216 472 1010 1140 2060 2890
2020-12-18 10:30 5.75 889 16800 (2002) 76 (1956) 992 104 143 183 216 472 1010 1140 2060 2890
2020-12-18 09:30 5.74 882 16800 (2002) 76 (1956) 992 104 143 183 216 472 1010 1140 2060 2890
2020-12-18 08:30 5.74 882 16800 (2002) 76 (1956) 992 104 143 183 216 472 1010 1140 2060 2890
2020-12-18 07:30 5.75 889 16800 (2002) 76 (1956) 992 104 143 183 216 472 1010 1140 2060 2890
2020-12-18 06:30 5.75 889 16800 (2002) 76 (1956) 992 104 143 183 216 472 1010 1140 2060 2890
2020-12-18 05:30 5.76 896 16800 (2002) 76 (1956) 992 104 143 183 216 472 1010 1140 2060 2890
2020-12-18 04:30 5.76 896 16800 (2002) 76 (1956) 992 104 143 183 216 472 1010 1140 2060 2890
2020-12-18 03:30 5.76 896 16800 (2002) 76 (1956) 992 104 143 183 216 472 1010 1140 2060 2890
2020-12-18 02:30 5.76 896 16800 (2002) 76 (1956) 992 104 143 183 216 472 1010 1140 2060 2890
2020-12-18 01:30 5.77 903 16800 (2002) 76 (1956) 992 104 143 183 216 472 1010 1140 2060 2890
2020-12-18 00:30 5.75 889 16800 (2002) 76 (1956) 992 104 143 183 216 472 1010 1140 2060 2890
2020-12-17 22:30 5.77 903 17200 (1993) 78 (1956) 1090 108 144 191 222 493 1040 1220 2370 3470
2020-12-17 21:30 5.78 911 17200 (1993) 78 (1956) 1090 108 144 191 222 493 1040 1220 2370 3470
2020-12-17 20:30 5.77 903 17200 (1993) 78 (1956) 1090 108 144 191 222 493 1040 1220 2370 3470
2020-12-17 19:30 5.77 903 17200 (1993) 78 (1956) 1090 108 144 191 222 493 1040 1220 2370 3470
2020-12-17 18:30 5.77 903 17200 (1993) 78 (1956) 1090 108 144 191 222 493 1040 1220 2370 3470
2020-12-17 17:30 5.76 896 17200 (1993) 78 (1956) 1090 108 144 191 222 493 1040 1220 2370 3470
2020-12-17 16:30 5.78 911 17200 (1993) 78 (1956) 1090 108 144 191 222 493 1040 1220 2370 3470
2020-12-17 15:30 5.76 896 17200 (1993) 78 (1956) 1090 108 144 191 222 493 1040 1220 2370 3470
2020-12-17 14:30 5.78 911 17200 (1993) 78 (1956) 1090 108 144 191 222 493 1040 1220 2370 3470
2020-12-17 13:30 5.78 911 17200 (1993) 78 (1956) 1090 108 144 191 222 493 1040 1220 2370 3470
2020-12-17 12:30 5.78 911 17200 (1993) 78 (1956) 1090 108 144 191 222 493 1040 1220 2370 3470
2020-12-17 11:30 5.80 925 17200 (1993) 78 (1956) 1090 108 144 191 222 493 1040 1220 2370 3470
2020-12-17 10:30 5.79 918 17200 (1993) 78 (1956) 1090 108 144 191 222 493 1040 1220 2370 3470
2020-12-17 09:30 5.80 925 17200 (1993) 78 (1956) 1090 108 144 191 222 493 1040 1220 2370 3470
2020-12-17 08:30 5.81 932 17200 (1993) 78 (1956) 1090 108 144 191 222 493 1040 1220 2370 3470
2020-12-17 07:30 5.81 932 17200 (1993) 78 (1956) 1090 108 144 191 222 493 1040 1220 2370 3470
2020-12-17 06:30 5.81 932 17200 (1993) 78 (1956) 1090 108 144 191 222 493 1040 1220 2370 3470
2020-12-17 05:30 5.81 932 17200 (1993) 78 (1956) 1090 108 144 191 222 493 1040 1220 2370 3470
2020-12-17 04:30 5.81 932 17200 (1993) 78 (1956) 1090 108 144 191 222 493 1040 1220 2370 3470
2020-12-17 03:30 5.83 947 17200 (1993) 78 (1956) 1090 108 144 191 222 493 1040 1220 2370 3470
2020-12-17 02:30 5.82 939 17200 (1993) 78 (1956) 1090 108 144 191 222 493 1040 1220 2370 3470
2020-12-17 01:30 5.82 939 17200 (1993) 78 (1956) 1090 108 144 191 222 493 1040 1220 2370 3470
2020-12-17 00:30 5.82 939 17200 (1993) 78 (1956) 1090 108 144 191 222 493 1040 1220 2370 3470
2020-12-16 23:30 5.82 939 25500 (1993) 78 (1956) 1170 106 146 194 224 463 1110 1290 2070 4420
2020-12-16 22:30 5.84 954 25500 (1993) 78 (1956) 1170 106 146 194 224 463 1110 1290 2070 4420
2020-12-16 21:30 5.83 947 25500 (1993) 78 (1956) 1170 106 146 194 224 463 1110 1290 2070 4420
2020-12-16 20:30 5.83 947 25500 (1993) 78 (1956) 1170 106 146 194 224 463 1110 1290 2070 4420
2020-12-16 19:30 5.84 954 25500 (1993) 78 (1956) 1170 106 146 194 224 463 1110 1290 2070 4420
2020-12-16 18:30 5.84 954 25500 (1993) 78 (1956) 1170 106 146 194 224 463 1110 1290 2070 4420
2020-12-16 17:30 5.84 954 25500 (1993) 78 (1956) 1170 106 146 194 224 463 1110 1290 2070 4420
2020-12-16 16:30 5.84 954 25500 (1993) 78 (1956) 1170 106 146 194 224 463 1110 1290 2070 4420
2020-12-16 15:30 5.84 954 25500 (1993) 78 (1956) 1170 106 146 194 224 463 1110 1290 2070 4420
2020-12-16 14:30 5.85 962 25500 (1993) 78 (1956) 1170 106 146 194 224 463 1110 1290 2070 4420
2020-12-16 13:30 5.84 954 25500 (1993) 78 (1956) 1170 106 146 194 224 463 1110 1290 2070 4420
2020-12-16 12:30 5.85 962 25500 (1993) 78 (1956) 1170 106 146 194 224 463 1110 1290 2070 4420
2020-12-16 11:30 5.86 969 25500 (1993) 78 (1956) 1170 106 146 194 224 463 1110 1290 2070 4420
2020-12-16 10:30 5.85 962 25500 (1993) 78 (1956) 1170 106 146 194 224 463 1110 1290 2070 4420
2020-12-16 09:30 5.85 962 25500 (1993) 78 (1956) 1170 106 146 194 224 463 1110 1290 2070 4420
2020-12-16 08:30 5.86 969 25500 (1993) 78 (1956) 1170 106 146 194 224 463 1110 1290 2070 4420
2020-12-16 07:30 5.85 962 25500 (1993) 78 (1956) 1170 106 146 194 224 463 1110 1290 2070 4420
2020-12-16 06:30 5.84 954 25500 (1993) 78 (1956) 1170 106 146 194 224 463 1110 1290 2070 4420
2020-12-16 05:30 5.85 962 25500 (1993) 78 (1956) 1170 106 146 194 224 463 1110 1290 2070 4420
2020-12-16 04:30 5.85 962 25500 (1993) 78 (1956) 1170 106 146 194 224 463 1110 1290 2070 4420
2020-12-16 03:30 5.86 969 25500 (1993) 78 (1956) 1170 106 146 194 224 463 1110 1290 2070 4420
2020-12-16 02:30 5.85 962 25500 (1993) 78 (1956) 1170 106 146 194 224 463 1110 1290 2070 4420
2020-12-16 01:30 5.85 962 25500 (1993) 78 (1956) 1170 106 146 194 224 463 1110 1290 2070 4420
2020-12-16 00:30 5.86 969 25500 (1993) 78 (1956) 1170 106 146 194 224 463 1110 1290 2070 4420
2020-12-15 23:30 5.86 969 22400 (1993) 78 (1956) 1120 109 138 207 225 423 1040 1150 1520 4520
2020-12-15 22:30 5.85 962 22400 (1993) 78 (1956) 1120 109 138 207 225 423 1040 1150 1520 4520
2020-12-15 21:30 5.85 962 22400 (1993) 78 (1956) 1120 109 138 207 225 423 1040 1150 1520 4520
2020-12-15 20:30 5.86 969 22400 (1993) 78 (1956) 1120 109 138 207 225 423 1040 1150 1520 4520
2020-12-15 19:30 5.85 962 22400 (1993) 78 (1956) 1120 109 138 207 225 423 1040 1150 1520 4520
2020-12-15 18:30 5.85 962 22400 (1993) 78 (1956) 1120 109 138 207 225 423 1040 1150 1520 4520
2020-12-15 17:30 5.85 962 22400 (1993) 78 (1956) 1120 109 138 207 225 423 1040 1150 1520 4520
2020-12-15 16:30 5.83 947 22400 (1993) 78 (1956) 1120 109 138 207 225 423 1040 1150 1520 4520
2020-12-15 15:30 5.83 947 22400 (1993) 78 (1956) 1120 109 138 207 225 423 1040 1150 1520 4520
2020-12-15 14:30 5.82 939 22400 (1993) 78 (1956) 1120 109 138 207 225 423 1040 1150 1520 4520
2020-12-15 13:30 5.82 939 22400 (1993) 78 (1956) 1120 109 138 207 225 423 1040 1150 1520 4520
2020-12-15 12:30 5.80 925 22400 (1993) 78 (1956) 1120 109 138 207 225 423 1040 1150 1520 4520
2020-12-15 11:30 5.79 918 22400 (1993) 78 (1956) 1120 109 138 207 225 423 1040 1150 1520 4520
2020-12-15 10:30 5.78 911 22400 (1993) 78 (1956) 1120 109 138 207 225 423 1040 1150 1520 4520
2020-12-15 09:30 5.75 889 22400 (1993) 78 (1956) 1120 109 138 207 225 423 1040 1150 1520 4520
2020-12-15 08:30 5.74 882 22400 (1993) 78 (1956) 1120 109 138 207 225 423 1040 1150 1520 4520
2020-12-15 07:30 5.71 861 22400 (1993) 78 (1956) 1120 109 138 207 225 423 1040 1150 1520 4520
2020-12-15 06:30 5.70 855 22400 (1993) 78 (1956) 1120 109 138 207 225 423 1040 1150 1520 4520
2020-12-15 05:30 5.67 834 22400 (1993) 78 (1956) 1120 109 138 207 225 423 1040 1150 1520 4520
2020-12-15 04:30 5.66 827 22400 (1993) 78 (1956) 1120 109 138 207 225 423 1040 1150 1520 4520
2020-12-15 03:30 5.64 814 22400 (1993) 78 (1956) 1120 109 138 207 225 423 1040 1150 1520 4520
2020-12-15 02:30 5.63 807 22400 (1993) 78 (1956) 1120 109 138 207 225 423 1040 1150 1520 4520
2020-12-15 01:30 5.64 814 22400 (1993) 78 (1956) 1120 109 138 207 225 423 1040 1150 1520 4520
2020-12-15 00:30 5.63 807 22400 (1993) 78 (1956) 1120 109 138 207 225 423 1040 1150 1520 4520
2020-12-14 23:30 5.63 807 11900 (2016) 78 (1956) 998 112 137 203 225 376 1110 1210 1640 5430
2020-12-14 22:30 5.63 807 11900 (2016) 78 (1956) 998 112 137 203 225 376 1110 1210 1640 5430
2020-12-14 21:30 5.63 807 11900 (2016) 78 (1956) 998 112 137 203 225 376 1110 1210 1640 5430
2020-12-14 20:30 5.64 814 11900 (2016) 78 (1956) 998 112 137 203 225 376 1110 1210 1640 5430
2020-12-14 19:30 5.63 807 11900 (2016) 78 (1956) 998 112 137 203 225 376 1110 1210 1640 5430
2020-12-14 18:30 5.63 807 11900 (2016) 78 (1956) 998 112 137 203 225 376 1110 1210 1640 5430
2020-12-14 17:30 5.62 801 11900 (2016) 78 (1956) 998 112 137 203 225 376 1110 1210 1640 5430
2020-12-14 16:30 5.61 794 11900 (2016) 78 (1956) 998 112 137 203 225 376 1110 1210 1640 5430
2020-12-14 15:30 5.61 794 11900 (2016) 78 (1956) 998 112 137 203 225 376 1110 1210 1640 5430
2020-12-14 14:30 5.62 801 11900 (2016) 78 (1956) 998 112 137 203 225 376 1110 1210 1640 5430
2020-12-14 13:30 5.61 794 11900 (2016) 78 (1956) 998 112 137 203 225 376 1110 1210 1640 5430
2020-12-14 12:30 5.62 801 11900 (2016) 78 (1956) 998 112 137 203 225 376 1110 1210 1640 5430
2020-12-14 11:30 5.61 794 11900 (2016) 78 (1956) 998 112 137 203 225 376 1110 1210 1640 5430
2020-12-14 10:30 5.61 794 11900 (2016) 78 (1956) 998 112 137 203 225 376 1110 1210 1640 5430
2020-12-14 09:30 5.62 801 11900 (2016) 78 (1956) 998 112 137 203 225 376 1110 1210 1640 5430
2020-12-14 08:30 5.62 801 11900 (2016) 78 (1956) 998 112 137 203 225 376 1110 1210 1640 5430
2020-12-14 07:30 5.62 801 11900 (2016) 78 (1956) 998 112 137 203 225 376 1110 1210 1640 5430
2020-12-14 06:30 5.63 807 11900 (2016) 78 (1956) 998 112 137 203 225 376 1110 1210 1640 5430
2020-12-14 05:30 5.63 807 11900 (2016) 78 (1956) 998 112 137 203 225 376 1110 1210 1640 5430
2020-12-14 04:30 5.61 794 11900 (2016) 78 (1956) 998 112 137 203 225 376 1110 1210 1640 5430
2020-12-14 03:30 5.62 801 11900 (2016) 78 (1956) 998 112 137 203 225 376 1110 1210 1640 5430
2020-12-14 02:30 5.63 807 11900 (2016) 78 (1956) 998 112 137 203 225 376 1110 1210 1640 5430
2020-12-14 01:30 5.61 794 11900 (2016) 78 (1956) 998 112 137 203 225 376 1110 1210 1640 5430
2020-12-14 00:30 5.61 794 11900 (2016) 78 (1956) 998 112 137 203 225 376 1110 1210 1640 5430
2020-12-13 23:30 5.61 794 16300 (1947) 76 (1955) 909 118 136 209 231 331 1110 1280 1700 3030
2020-12-13 22:30 5.61 794 16300 (1947) 76 (1955) 909 118 136 209 231 331 1110 1280 1700 3030
2020-12-13 21:30 5.57 768 16300 (1947) 76 (1955) 909 118 136 209 231 331 1110 1280 1700 3030
2020-12-13 20:30 5.58 775 16300 (1947) 76 (1955) 909 118 136 209 231 331 1110 1280 1700 3030
2020-12-13 19:30 5.58 775 16300 (1947) 76 (1955) 909 118 136 209 231 331 1110 1280 1700 3030
2020-12-13 18:30 5.56 762 16300 (1947) 76 (1955) 909 118 136 209 231 331 1110 1280 1700 3030
2020-12-13 17:30 5.56 762 16300 (1947) 76 (1955) 909 118 136 209 231 331 1110 1280 1700 3030
2020-12-13 16:30 5.55 756 16300 (1947) 76 (1955) 909 118 136 209 231 331 1110 1280 1700 3030
2020-12-13 15:30 5.54 749 16300 (1947) 76 (1955) 909 118 136 209 231 331 1110 1280 1700 3030
2020-12-13 14:30 5.52 737 16300 (1947) 76 (1955) 909 118 136 209 231 331 1110 1280 1700 3030
2020-12-13 13:30 5.52 737 16300 (1947) 76 (1955) 909 118 136 209 231 331 1110 1280 1700 3030
2020-12-13 12:30 5.50 724 16300 (1947) 76 (1955) 909 118 136 209 231 331 1110 1280 1700 3030
2020-12-13 11:30 5.51 730 16300 (1947) 76 (1955) 909 118 136 209 231 331 1110 1280 1700 3030
2020-12-13 10:30 5.44 688 16300 (1947) 76 (1955) 909 118 136 209 231 331 1110 1280 1700 3030
2020-12-13 09:30 5.41 670 16300 (1947) 76 (1955) 909 118 136 209 231 331 1110 1280 1700 3030
2020-12-13 08:30 5.44 688 16300 (1947) 76 (1955) 909 118 136 209 231 331 1110 1280 1700 3030
2020-12-13 07:30 5.48 712 16300 (1947) 76 (1955) 909 118 136 209 231 331 1110 1280 1700 3030
2020-12-13 06:30 5.47 706 16300 (1947) 76 (1955) 909 118 136 209 231 331 1110 1280 1700 3030
2020-12-13 05:30 5.47 706 16300 (1947) 76 (1955) 909 118 136 209 231 331 1110 1280 1700 3030
2020-12-13 04:30 5.48 712 16300 (1947) 76 (1955) 909 118 136 209 231 331 1110 1280 1700 3030
2020-12-13 03:30 5.48 712 16300 (1947) 76 (1955) 909 118 136 209 231 331 1110 1280 1700 3030
2020-12-13 02:30 5.48 712 16300 (1947) 76 (1955) 909 118 136 209 231 331 1110 1280 1700 3030
2020-12-13 01:30 5.47 706 16300 (1947) 76 (1955) 909 118 136 209 231 331 1110 1280 1700 3030
2020-12-13 00:30 5.48 712 16300 (1947) 76 (1955) 909 118 136 209 231 331 1110 1280 1700 3030
2020-12-12 23:30 5.48 712 13400 (1947) 79 (1955) 927 118 141 212 233 336 929 1150 1790 2580
2020-12-12 22:30 5.48 712 13400 (1947) 79 (1955) 927 118 141 212 233 336 929 1150 1790 2580
2020-12-12 21:30 5.48 712 13400 (1947) 79 (1955) 927 118 141 212 233 336 929 1150 1790 2580
2020-12-12 20:30 5.49 718 13400 (1947) 79 (1955) 927 118 141 212 233 336 929 1150 1790 2580
2020-12-12 19:30 5.49 718 13400 (1947) 79 (1955) 927 118 141 212 233 336 929 1150 1790 2580
2020-12-12 18:30 5.49 718 13400 (1947) 79 (1955) 927 118 141 212 233 336 929 1150 1790 2580
2020-12-12 17:30 5.49 718 13400 (1947) 79 (1955) 927 118 141 212 233 336 929 1150 1790 2580
2020-12-12 16:30 5.49 718 13400 (1947) 79 (1955) 927 118 141 212 233 336 929 1150 1790 2580
2020-12-12 15:30 5.50 724 13400 (1947) 79 (1955) 927 118 141 212 233 336 929 1150 1790 2580
2020-12-12 14:30 5.51 730 13400 (1947) 79 (1955) 927 118 141 212 233 336 929 1150 1790 2580
2020-12-12 13:30 5.48 712 13400 (1947) 79 (1955) 927 118 141 212 233 336 929 1150 1790 2580
2020-12-12 12:30 5.49 718 13400 (1947) 79 (1955) 927 118 141 212 233 336 929 1150 1790 2580
2020-12-12 11:30 5.51 730 13400 (1947) 79 (1955) 927 118 141 212 233 336 929 1150 1790 2580
2020-12-12 10:30 5.50 724 13400 (1947) 79 (1955) 927 118 141 212 233 336 929 1150 1790 2580
2020-12-12 09:30 5.50 724 13400 (1947) 79 (1955) 927 118 141 212 233 336 929 1150 1790 2580
2020-12-12 08:30 5.51 730 13400 (1947) 79 (1955) 927 118 141 212 233 336 929 1150 1790 2580
2020-12-12 07:30 5.51 730 13400 (1947) 79 (1955) 927 118 141 212 233 336 929 1150 1790 2580
2020-12-12 06:30 5.52 737 13400 (1947) 79 (1955) 927 118 141 212 233 336 929 1150 1790 2580
2020-12-12 05:30 5.51 730 13400 (1947) 79 (1955) 927 118 141 212 233 336 929 1150 1790 2580
2020-12-12 04:30 5.50 724 13400 (1947) 79 (1955) 927 118 141 212 233 336 929 1150 1790 2580
2020-12-12 03:30 5.51 730 13400 (1947) 79 (1955) 927 118 141 212 233 336 929 1150 1790 2580
2020-12-12 02:30 5.51 730 13400 (1947) 79 (1955) 927 118 141 212 233 336 929 1150 1790 2580
2020-12-12 01:30 5.52 737 13400 (1947) 79 (1955) 927 118 141 212 233 336 929 1150 1790 2580
2020-12-12 00:30 5.52 737 13400 (1947) 79 (1955) 927 118 141 212 233 336 929 1150 1790 2580
2020-12-11 23:30 5.52 737 16600 (1947) 74 (1955) 909 124 140 215 233 348 893 1130 1920 2900
2020-12-11 22:30 5.52 737 16600 (1947) 74 (1955) 909 124 140 215 233 348 893 1130 1920 2900
2020-12-11 21:30 5.53 743 16600 (1947) 74 (1955) 909 124 140 215 233 348 893 1130 1920 2900
2020-12-11 20:30 5.52 737 16600 (1947) 74 (1955) 909 124 140 215 233 348 893 1130 1920 2900
2020-12-11 19:30 5.52 737 16600 (1947) 74 (1955) 909 124 140 215 233 348 893 1130 1920 2900
2020-12-11 18:30 5.53 743 16600 (1947) 74 (1955) 909 124 140 215 233 348 893 1130 1920 2900
2020-12-11 17:30 5.53 743 16600 (1947) 74 (1955) 909 124 140 215 233 348 893 1130 1920 2900
2020-12-11 16:30 5.52 737 16600 (1947) 74 (1955) 909 124 140 215 233 348 893 1130 1920 2900
2020-12-11 15:30 5.51 730 16600 (1947) 74 (1955) 909 124 140 215 233 348 893 1130 1920 2900
2020-12-11 14:30 5.50 724 16600 (1947) 74 (1955) 909 124 140 215 233 348 893 1130 1920 2900
2020-12-11 13:30 5.52 737 16600 (1947) 74 (1955) 909 124 140 215 233 348 893 1130 1920 2900
2020-12-11 12:30 5.52 737 16600 (1947) 74 (1955) 909 124 140 215 233 348 893 1130 1920 2900
2020-12-11 11:30 5.52 737 16600 (1947) 74 (1955) 909 124 140 215 233 348 893 1130 1920 2900
2020-12-11 10:30 5.51 730 16600 (1947) 74 (1955) 909 124 140 215 233 348 893 1130 1920 2900
2020-12-11 09:30 5.51 730 16600 (1947) 74 (1955) 909 124 140 215 233 348 893 1130 1920 2900
2020-12-11 08:30 5.51 730 16600 (1947) 74 (1955) 909 124 140 215 233 348 893 1130 1920 2900
2020-12-11 07:30 5.51 730 16600 (1947) 74 (1955) 909 124 140 215 233 348 893 1130 1920 2900
2020-12-11 06:30 5.52 737 16600 (1947) 74 (1955) 909 124 140 215 233 348 893 1130 1920 2900
2020-12-11 05:30 5.52 737 16600 (1947) 74 (1955) 909 124 140 215 233 348 893 1130 1920 2900
2020-12-11 04:30 5.53 743 16600 (1947) 74 (1955) 909 124 140 215 233 348 893 1130 1920 2900
2020-12-11 03:30 5.54 749 16600 (1947) 74 (1955) 909 124 140 215 233 348 893 1130 1920 2900
2020-12-11 02:30 5.53 743 16600 (1947) 74 (1955) 909 124 140 215 233 348 893 1130 1920 2900
2020-12-11 01:30 5.55 756 16600 (1947) 74 (1955) 909 124 140 215 233 348 893 1130 1920 2900
2020-12-11 00:30 5.56 762 16600 (1947) 74 (1955) 909 124 140 215 233 348 893 1130 1920 2900
2020-12-10 23:30 5.55 756 10500 (1947) 74 (1955) 782 108 139 195 228 346 849 1040 1780 2380
2020-12-10 22:30 5.54 749 10500 (1947) 74 (1955) 782 108 139 195 228 346 849 1040 1780 2380
2020-12-10 21:30 5.54 749 10500 (1947) 74 (1955) 782 108 139 195 228 346 849 1040 1780 2380
2020-12-10 20:30 5.54 749 10500 (1947) 74 (1955) 782 108 139 195 228 346 849 1040 1780 2380
2020-12-10 19:30 5.56 762 10500 (1947) 74 (1955) 782 108 139 195 228 346 849 1040 1780 2380
2020-12-10 18:30 5.56 762 10500 (1947) 74 (1955) 782 108 139 195 228 346 849 1040 1780 2380
2020-12-10 17:30 5.55 756 10500 (1947) 74 (1955) 782 108 139 195 228 346 849 1040 1780 2380
2020-12-10 16:30 5.54 749 10500 (1947) 74 (1955) 782 108 139 195 228 346 849 1040 1780 2380
2020-12-10 15:30 5.56 762 10500 (1947) 74 (1955) 782 108 139 195 228 346 849 1040 1780 2380
2020-12-10 14:30 5.55 756 10500 (1947) 74 (1955) 782 108 139 195 228 346 849 1040 1780 2380
2020-12-10 13:30 5.56 762 10500 (1947) 74 (1955) 782 108 139 195 228 346 849 1040 1780 2380
2020-12-10 12:30 5.57 768 10500 (1947) 74 (1955) 782 108 139 195 228 346 849 1040 1780 2380
2020-12-10 11:30 5.56 762 10500 (1947) 74 (1955) 782 108 139 195 228 346 849 1040 1780 2380
2020-12-10 10:30 5.56 762 10500 (1947) 74 (1955) 782 108 139 195 228 346 849 1040 1780 2380
2020-12-10 09:30 5.57 768 10500 (1947) 74 (1955) 782 108 139 195 228 346 849 1040 1780 2380
2020-12-10 08:30 5.58 775 10500 (1947) 74 (1955) 782 108 139 195 228 346 849 1040 1780 2380
2020-12-10 07:30 5.58 775 10500 (1947) 74 (1955) 782 108 139 195 228 346 849 1040 1780 2380
2020-12-10 06:30 5.59 781 10500 (1947) 74 (1955) 782 108 139 195 228 346 849 1040 1780 2380
2020-12-10 05:30 5.59 781 10500 (1947) 74 (1955) 782 108 139 195 228 346 849 1040 1780 2380
2020-12-10 04:30 5.60 788 10500 (1947) 74 (1955) 782 108 139 195 228 346 849 1040 1780 2380
2020-12-10 03:30 5.60 788 10500 (1947) 74 (1955) 782 108 139 195 228 346 849 1040 1780 2380
2020-12-10 02:30 5.59 781 10500 (1947) 74 (1955) 782 108 139 195 228 346 849 1040 1780 2380
2020-12-10 01:30 5.59 781 10500 (1947) 74 (1955) 782 108 139 195 228 346 849 1040 1780 2380
2020-12-10 00:30 5.62 801 10500 (1947) 74 (1955) 782 108 139 195 228 346 849 1040 1780 2380
2020-12-09 23:30 5.59 781 3100 (1936) 74 (1955) 633 106 142 181 216 340 874 908 1550 2490
2020-12-09 22:30 5.61 794 3100 (1936) 74 (1955) 633 106 142 181 216 340 874 908 1550 2490
2020-12-09 21:30 5.60 788 3100 (1936) 74 (1955) 633 106 142 181 216 340 874 908 1550 2490
2020-12-09 20:30 5.61 794 3100 (1936) 74 (1955) 633 106 142 181 216 340 874 908 1550 2490
2020-12-09 19:30 5.61 794 3100 (1936) 74 (1955) 633 106 142 181 216 340 874 908 1550 2490
2020-12-09 18:30 5.62 801 3100 (1936) 74 (1955) 633 106 142 181 216 340 874 908 1550 2490
2020-12-09 17:30 5.61 794 3100 (1936) 74 (1955) 633 106 142 181 216 340 874 908 1550 2490
2020-12-09 16:30 5.59 781 3100 (1936) 74 (1955) 633 106 142 181 216 340 874 908 1550 2490
2020-12-09 15:30 5.62 801 3100 (1936) 74 (1955) 633 106 142 181 216 340 874 908 1550 2490
2020-12-09 14:30 5.60 788 3100 (1936) 74 (1955) 633 106 142 181 216 340 874 908 1550 2490
2020-12-09 13:30 5.61 794 3100 (1936) 74 (1955) 633 106 142 181 216 340 874 908 1550 2490
2020-12-09 12:30 5.63 807 3100 (1936) 74 (1955) 633 106 142 181 216 340 874 908 1550 2490
2020-12-09 11:30 5.61 794 3100 (1936) 74 (1955) 633 106 142 181 216 340 874 908 1550 2490
2020-12-09 10:30 5.62 801 3100 (1936) 74 (1955) 633 106 142 181 216 340 874 908 1550 2490
2020-12-09 09:30 5.64 814 3100 (1936) 74 (1955) 633 106 142 181 216 340 874 908 1550 2490
2020-12-09 08:30 5.64 814 3100 (1936) 74 (1955) 633 106 142 181 216 340 874 908 1550 2490
2020-12-09 07:30 5.64 814 3100 (1936) 74 (1955) 633 106 142 181 216 340 874 908 1550 2490
2020-12-09 06:30 5.65 821 3100 (1936) 74 (1955) 633 106 142 181 216 340 874 908 1550 2490
2020-12-09 05:30 5.67 834 3100 (1936) 74 (1955) 633 106 142 181 216 340 874 908 1550 2490
2020-12-09 04:30 5.65 821 3100 (1936) 74 (1955) 633 106 142 181 216 340 874 908 1550 2490
2020-12-09 03:30 5.67 834 3100 (1936) 74 (1955) 633 106 142 181 216 340 874 908 1550 2490
2020-12-09 02:30 5.66 827 3100 (1936) 74 (1955) 633 106 142 181 216 340 874 908 1550 2490
2020-12-09 01:30 5.69 848 3100 (1936) 74 (1955) 633 106 142 181 216 340 874 908 1550 2490
2020-12-09 00:30 5.68 841 3100 (1936) 74 (1955) 633 106 142 181 216 340 874 908 1550 2490
2020-12-08 23:30 5.67 834 4710 (1976) 74 (1955) 698 103 136 181 209 351 821 949 1650 3010
2020-12-08 22:30 5.67 834 4710 (1976) 74 (1955) 698 103 136 181 209 351 821 949 1650 3010
2020-12-08 21:30 5.68 841 4710 (1976) 74 (1955) 698 103 136 181 209 351 821 949 1650 3010
2020-12-08 20:30 5.68 841 4710 (1976) 74 (1955) 698 103 136 181 209 351 821 949 1650 3010
2020-12-08 19:30 5.68 841 4710 (1976) 74 (1955) 698 103 136 181 209 351 821 949 1650 3010
2020-12-08 18:30 5.70 855 4710 (1976) 74 (1955) 698 103 136 181 209 351 821 949 1650 3010
2020-12-08 17:30 5.68 841 4710 (1976) 74 (1955) 698 103 136 181 209 351 821 949 1650 3010
2020-12-08 16:30 5.69 848 4710 (1976) 74 (1955) 698 103 136 181 209 351 821 949 1650 3010
2020-12-08 15:30 5.68 988 4710 (1976) 74 (1955) 698 103 136 181 209 351 821 949 1650 3010
2020-12-08 14:30 5.70 916 4710 (1976) 74 (1955) 698 103 136 181 209 351 821 949 1650 3010
2020-12-08 13:30 5.70 916 4710 (1976) 74 (1955) 698 103 136 181 209 351 821 949 1650 3010
2020-12-08 12:30 5.71 928 4710 (1976) 74 (1955) 698 103 136 181 209 351 821 949 1650 3010
2020-12-08 11:30 5.71 928 4710 (1976) 74 (1955) 698 103 136 181 209 351 821 949 1650 3010
2020-12-08 10:30 5.70 916 4710 (1976) 74 (1955) 698 103 136 181 209 351 821 949 1650 3010
2020-12-08 09:30 5.72 941 4710 (1976) 74 (1955) 698 103 136 181 209 351 821 949 1650 3010
2020-12-08 08:30 5.73 953 4710 (1976) 74 (1955) 698 103 136 181 209 351 821 949 1650 3010
2020-12-08 07:30 5.74 965 4710 (1976) 74 (1955) 698 103 136 181 209 351 821 949 1650 3010
2020-12-08 06:30 5.74 965 4710 (1976) 74 (1955) 698 103 136 181 209 351 821 949 1650 3010
2020-12-08 05:30 5.73 953 4710 (1976) 74 (1955) 698 103 136 181 209 351 821 949 1650 3010
2020-12-08 04:30 5.74 965 4710 (1976) 74 (1955) 698 103 136 181 209 351 821 949 1650 3010
2020-12-08 03:30 5.75 978 4710 (1976) 74 (1955) 698 103 136 181 209 351 821 949 1650 3010
2020-12-08 02:30 5.75 978 4710 (1976) 74 (1955) 698 103 136 181 209 351 821 949 1650 3010
2020-12-08 01:30 5.76 990 4710 (1976) 74 (1955) 698 103 136 181 209 351 821 949 1650 3010
2020-12-08 00:30 5.76 990 4710 (1976) 74 (1955) 698 103 136 181 209 351 821 949 1650 3010
2020-12-07 23:30 5.77 1000 7480 (1976) 76 (1955) 779 100 135 178 212 365 829 991 1900 2700
2020-12-07 22:30 5.76 990 7480 (1976) 76 (1955) 779 100 135 178 212 365 829 991 1900 2700
2020-12-07 21:30 5.78 1020 7480 (1976) 76 (1955) 779 100 135 178 212 365 829 991 1900 2700
2020-12-07 20:30 5.78 1020 7480 (1976) 76 (1955) 779 100 135 178 212 365 829 991 1900 2700
2020-12-07 19:30 5.78 1020 7480 (1976) 76 (1955) 779 100 135 178 212 365 829 991 1900 2700
2020-12-07 18:30 5.78 1020 7480 (1976) 76 (1955) 779 100 135 178 212 365 829 991 1900 2700
2020-12-07 17:30 5.78 1020 7480 (1976) 76 (1955) 779 100 135 178 212 365 829 991 1900 2700
2020-12-07 16:30 5.77 1000 7480 (1976) 76 (1955) 779 100 135 178 212 365 829 991 1900 2700
2020-12-07 15:30 5.79 1030 7480 (1976) 76 (1955) 779 100 135 178 212 365 829 991 1900 2700
2020-12-07 14:30 5.80 1040 7480 (1976) 76 (1955) 779 100 135 178 212 365 829 991 1900 2700
2020-12-07 13:30 5.80 1040 7480 (1976) 76 (1955) 779 100 135 178 212 365 829 991 1900 2700
2020-12-07 12:30 5.81 1050 7480 (1976) 76 (1955) 779 100 135 178 212 365 829 991 1900 2700
2020-12-07 11:30 5.80 636 7480 (1976) 76 (1955) 779 100 135 178 212 365 829 991 1900 2700
2020-12-07 10:30 5.81 641 7480 (1976) 76 (1955) 779 100 135 178 212 365 829 991 1900 2700
2020-12-07 09:30 5.82 647 7480 (1976) 76 (1955) 779 100 135 178 212 365 829 991 1900 2700
2020-12-07 08:30 5.83 653 7480 (1976) 76 (1955) 779 100 135 178 212 365 829 991 1900 2700
2020-12-07 07:30 5.84 659 7480 (1976) 76 (1955) 779 100 135 178 212 365 829 991 1900 2700
2020-12-07 06:30 5.83 653 7480 (1976) 76 (1955) 779 100 135 178 212 365 829 991 1900 2700
2020-12-07 05:30 5.85 664 7480 (1976) 76 (1955) 779 100 135 178 212 365 829 991 1900 2700
2020-12-07 04:30 5.84 659 7480 (1976) 76 (1955) 779 100 135 178 212 365 829 991 1900 2700
2020-12-07 03:30 5.83 653 7480 (1976) 76 (1955) 779 100 135 178 212 365 829 991 1900 2700
2020-12-07 02:30 5.84 659 7480 (1976) 76 (1955) 779 100 135 178 212 365 829 991 1900 2700
2020-12-07 01:30 5.85 664 7480 (1976) 76 (1955) 779 100 135 178 212 365 829 991 1900 2700
2020-12-07 00:30 5.86 670 7480 (1976) 76 (1955) 779 100 135 178 212 365 829 991 1900 2700
2020-12-06 23:30 5.86 670 10300 (1974) 76 (1955) 797 99 140 180 207 357 866 1030 1760 2460
2020-12-06 22:30 5.88 682 10300 (1974) 76 (1955) 797 99 140 180 207 357 866 1030 1760 2460
2020-12-06 21:30 5.88 682 10300 (1974) 76 (1955) 797 99 140 180 207 357 866 1030 1760 2460
2020-12-06 20:30 5.87 676 10300 (1974) 76 (1955) 797 99 140 180 207 357 866 1030 1760 2460
2020-12-06 19:30 5.88 682 10300 (1974) 76 (1955) 797 99 140 180 207 357 866 1030 1760 2460
2020-12-06 18:30 5.88 682 10300 (1974) 76 (1955) 797 99 140 180 207 357 866 1030 1760 2460
2020-12-06 17:30 5.89 688 10300 (1974) 76 (1955) 797 99 140 180 207 357 866 1030 1760 2460
2020-12-06 16:30 5.88 682 10300 (1974) 76 (1955) 797 99 140 180 207 357 866 1030 1760 2460
2020-12-06 15:30 5.89 688 10300 (1974) 76 (1955) 797 99 140 180 207 357 866 1030 1760 2460
2020-12-06 14:30 5.90 694 10300 (1974) 76 (1955) 797 99 140 180 207 357 866 1030 1760 2460
2020-12-06 13:30 5.92 706 10300 (1974) 76 (1955) 797 99 140 180 207 357 866 1030 1760 2460
2020-12-06 12:30 5.90 694 10300 (1974) 76 (1955) 797 99 140 180 207 357 866 1030 1760 2460
2020-12-06 11:30 5.92 706 10300 (1974) 76 (1955) 797 99 140 180 207 357 866 1030 1760 2460
2020-12-06 10:30 5.93 712 10300 (1974) 76 (1955) 797 99 140 180 207 357 866 1030 1760 2460
2020-12-06 09:30 5.94 718 10300 (1974) 76 (1955) 797 99 140 180 207 357 866 1030 1760 2460
2020-12-06 08:30 5.93 712 10300 (1974) 76 (1955) 797 99 140 180 207 357 866 1030 1760 2460
2020-12-06 07:30 5.95 724 10300 (1974) 76 (1955) 797 99 140 180 207 357 866 1030 1760 2460
2020-12-06 06:30 5.97 737 10300 (1974) 76 (1955) 797 99 140 180 207 357 866 1030 1760 2460
2020-12-06 05:30 5.97 737 10300 (1974) 76 (1955) 797 99 140 180 207 357 866 1030 1760 2460
2020-12-06 04:30 5.97 737 10300 (1974) 76 (1955) 797 99 140 180 207 357 866 1030 1760 2460
2020-12-06 03:30 5.96 730 10300 (1974) 76 (1955) 797 99 140 180 207 357 866 1030 1760 2460
2020-12-06 02:30 5.99 749 10300 (1974) 76 (1955) 797 99 140 180 207 357 866 1030 1760 2460
2020-12-06 01:30 5.99 749 10300 (1974) 76 (1955) 797 99 140 180 207 357 866 1030 1760 2460
2020-12-06 00:30 5.99 749 10300 (1974) 76 (1955) 797 99 140 180 207 357 866 1030 1760 2460
2020-12-05 23:30 5.99 749 14300 (1974) 76 (1955) 890 95 130 167 189 362 858 952 1760 2550
2020-12-05 22:30 6.01 762 14300 (1974) 76 (1955) 890 95 130 167 189 362 858 952 1760 2550
2020-12-05 21:30 6.01 762 14300 (1974) 76 (1955) 890 95 130 167 189 362 858 952 1760 2550
2020-12-05 20:30 6.01 762 14300 (1974) 76 (1955) 890 95 130 167 189 362 858 952 1760 2550
2020-12-05 19:30 6.02 768 14300 (1974) 76 (1955) 890 95 130 167 189 362 858 952 1760 2550
2020-12-05 18:30 6.01 762 14300 (1974) 76 (1955) 890 95 130 167 189 362 858 952 1760 2550
2020-12-05 17:30 6.02 768 14300 (1974) 76 (1955) 890 95 130 167 189 362 858 952 1760 2550
2020-12-05 16:30 6.02 768 14300 (1974) 76 (1955) 890 95 130 167 189 362 858 952 1760 2550
2020-12-05 15:30 6.03 775 14300 (1974) 76 (1955) 890 95 130 167 189 362 858 952 1760 2550
2020-12-05 14:30 6.05 788 14300 (1974) 76 (1955) 890 95 130 167 189 362 858 952 1760 2550
2020-12-05 13:30 6.04 781 14300 (1974) 76 (1955) 890 95 130 167 189 362 858 952 1760 2550
2020-12-05 12:30 6.06 794 14300 (1974) 76 (1955) 890 95 130 167 189 362 858 952 1760 2550
2020-12-05 11:30 6.06 794 14300 (1974) 76 (1955) 890 95 130 167 189 362 858 952 1760 2550
2020-12-05 10:30 6.06 794 14300 (1974) 76 (1955) 890 95 130 167 189 362 858 952 1760 2550
2020-12-05 09:30 6.09 814 14300 (1974) 76 (1955) 890 95 130 167 189 362 858 952 1760 2550
2020-12-05 08:30 6.08 807 14300 (1974) 76 (1955) 890 95 130 167 189 362 858 952 1760 2550
2020-12-05 07:30 6.09 814 14300 (1974) 76 (1955) 890 95 130 167 189 362 858 952 1760 2550
2020-12-05 06:30 6.10 821 14300 (1974) 76 (1955) 890 95 130 167 189 362 858 952 1760 2550
2020-12-05 05:30 6.11 827 14300 (1974) 76 (1955) 890 95 130 167 189 362 858 952 1760 2550
2020-12-05 04:30 6.11 827 14300 (1974) 76 (1955) 890 95 130 167 189 362 858 952 1760 2550
2020-12-05 03:30 6.11 827 14300 (1974) 76 (1955) 890 95 130 167 189 362 858 952 1760 2550
2020-12-05 02:30 6.12 834 14300 (1974) 76 (1955) 890 95 130 167 189 362 858 952 1760 2550
2020-12-05 01:30 6.11 827 14300 (1974) 76 (1955) 890 95 130 167 189 362 858 952 1760 2550
2020-12-05 00:30 6.12 834 14300 (1974) 76 (1955) 890 95 130 167 189 362 858 952 1760 2550
2020-12-04 23:30 6.14 848 14000 (1983) 76 (1955) 881 98 124 166 189 354 880 974 1860 2970
2020-12-04 22:30 6.11 827 14000 (1983) 76 (1955) 881 98 124 166 189 354 880 974 1860 2970
2020-12-04 21:30 6.11 827 14000 (1983) 76 (1955) 881 98 124 166 189 354 880 974 1860 2970
2020-12-04 20:30 6.11 827 14000 (1983) 76 (1955) 881 98 124 166 189 354 880 974 1860 2970
2020-12-04 19:30 6.10 821 14000 (1983) 76 (1955) 881 98 124 166 189 354 880 974 1860 2970
2020-12-04 18:30 6.09 814 14000 (1983) 76 (1955) 881 98 124 166 189 354 880 974 1860 2970
2020-12-04 17:30 6.06 794 14000 (1983) 76 (1955) 881 98 124 166 189 354 880 974 1860 2970
2020-12-04 16:30 6.04 781 14000 (1983) 76 (1955) 881 98 124 166 189 354 880 974 1860 2970
2020-12-04 15:30 6.03 775 14000 (1983) 76 (1955) 881 98 124 166 189 354 880 974 1860 2970
2020-12-04 14:30 5.97 737 14000 (1983) 76 (1955) 881 98 124 166 189 354 880 974 1860 2970
2020-12-04 13:30 5.95 724 14000 (1983) 76 (1955) 881 98 124 166 189 354 880 974 1860 2970
2020-12-04 12:30 5.91 700 14000 (1983) 76 (1955) 881 98 124 166 189 354 880 974 1860 2970
2020-12-04 11:30 5.87 676 14000 (1983) 76 (1955) 881 98 124 166 189 354 880 974 1860 2970
2020-12-04 10:30 5.82 647 14000 (1983) 76 (1955) 881 98 124 166 189 354 880 974 1860 2970
2020-12-04 09:30 5.80 636 14000 (1983) 76 (1955) 881 98 124 166 189 354 880 974 1860 2970
2020-12-04 08:30 5.75 608 14000 (1983) 76 (1955) 881 98 124 166 189 354 880 974 1860 2970
2020-12-04 07:30 5.70 581 14000 (1983) 76 (1955) 881 98 124 166 189 354 880 974 1860 2970
2020-12-04 06:30 5.72 591 14000 (1983) 76 (1955) 881 98 124 166 189 354 880 974 1860 2970
2020-12-04 05:30 5.68 570 14000 (1983) 76 (1955) 881 98 124 166 189 354 880 974 1860 2970
2020-12-04 04:30 5.67 565 14000 (1983) 76 (1955) 881 98 124 166 189 354 880 974 1860 2970
2020-12-04 03:30 5.65 554 14000 (1983) 76 (1955) 881 98 124 166 189 354 880 974 1860 2970
2020-12-04 02:30 5.64 549 14000 (1983) 76 (1955) 881 98 124 166 189 354 880 974 1860 2970
2020-12-04 01:30 5.63 544 14000 (1983) 76 (1955) 881 98 124 166 189 354 880 974 1860 2970
2020-12-04 00:30 5.62 539 14000 (1983) 76 (1955) 881 98 124 166 189 354 880 974 1860 2970
2020-12-03 23:30 5.61 534 3890 (2020) 76 (1955) 768 100 124 163 189 370 955 1070 2220 3440
2020-12-03 22:30 5.60 529 3890 (2020) 76 (1955) 768 100 124 163 189 370 955 1070 2220 3440
2020-12-03 21:30 5.61 534 3890 (2020) 76 (1955) 768 100 124 163 189 370 955 1070 2220 3440
2020-12-03 20:30 5.60 529 3890 (2020) 76 (1955) 768 100 124 163 189 370 955 1070 2220 3440
2020-12-03 19:30 5.58 519 3890 (2020) 76 (1955) 768 100 124 163 189 370 955 1070 2220 3440
2020-12-03 18:30 5.59 524 3890 (2020) 76 (1955) 768 100 124 163 189 370 955 1070 2220 3440
2020-12-03 17:30 5.59 524 3890 (2020) 76 (1955) 768 100 124 163 189 370 955 1070 2220 3440
2020-12-03 16:30 5.58 519 3890 (2020) 76 (1955) 768 100 124 163 189 370 955 1070 2220 3440
2020-12-03 15:30 5.59 524 3890 (2020) 76 (1955) 768 100 124 163 189 370 955 1070 2220 3440
2020-12-03 14:30 5.58 519 3890 (2020) 76 (1955) 768 100 124 163 189 370 955 1070 2220 3440
2020-12-03 13:30 5.58 519 3890 (2020) 76 (1955) 768 100 124 163 189 370 955 1070 2220 3440
2020-12-03 12:30 5.57 514 3890 (2020) 76 (1955) 768 100 124 163 189 370 955 1070 2220 3440
2020-12-03 11:30 5.56 509 3890 (2020) 76 (1955) 768 100 124 163 189 370 955 1070 2220 3440
2020-12-03 10:30 5.56 509 3890 (2020) 76 (1955) 768 100 124 163 189 370 955 1070 2220 3440
2020-12-03 09:30 5.54 499 3890 (2020) 76 (1955) 768 100 124 163 189 370 955 1070 2220 3440
2020-12-03 08:30 5.55 776 3890 (2020) 76 (1955) 768 100 124 163 189 370 955 1070 2220 3440
2020-12-03 07:30 5.59 833 3890 (2020) 76 (1955) 768 100 124 163 189 370 955 1070 2220 3440
2020-12-03 06:30 5.58 818 3890 (2020) 76 (1955) 768 100 124 163 189 370 955 1070 2220 3440
2020-12-03 05:30 5.58 818 3890 (2020) 76 (1955) 768 100 124 163 189 370 955 1070 2220 3440
2020-12-03 04:30 5.57 804 3890 (2020) 76 (1955) 768 100 124 163 189 370 955 1070 2220 3440
2020-12-03 03:30 5.56 790 3890 (2020) 76 (1955) 768 100 124 163 189 370 955 1070 2220 3440
2020-12-03 02:30 5.58 818 3890 (2020) 76 (1955) 768 100 124 163 189 370 955 1070 2220 3440
2020-12-03 01:30 5.57 804 3890 (2020) 76 (1955) 768 100 124 163 189 370 955 1070 2220 3440
2020-12-03 00:30 5.57 804 3890 (2020) 76 (1955) 768 100 124 163 189 370 955 1070 2220 3440
2020-12-02 23:30 5.56 790 7890 (2007) 76 (1955) 859 93 123 164 193 383 981 1120 2220 3240
2020-12-02 22:30 5.57 804 7890 (2007) 76 (1955) 859 93 123 164 193 383 981 1120 2220 3240
2020-12-02 21:30 5.54 762 7890 (2007) 76 (1955) 859 93 123 164 193 383 981 1120 2220 3240
2020-12-02 20:30 5.56 790 7890 (2007) 76 (1955) 859 93 123 164 193 383 981 1120 2220 3240
2020-12-02 19:30 5.55 776 7890 (2007) 76 (1955) 859 93 123 164 193 383 981 1120 2220 3240
2020-12-02 18:30 5.56 790 7890 (2007) 76 (1955) 859 93 123 164 193 383 981 1120 2220 3240
2020-12-02 17:30 5.55 776 7890 (2007) 76 (1955) 859 93 123 164 193 383 981 1120 2220 3240
2020-12-02 16:30 5.54 762 7890 (2007) 76 (1955) 859 93 123 164 193 383 981 1120 2220 3240
2020-12-02 15:30 5.54 762 7890 (2007) 76 (1955) 859 93 123 164 193 383 981 1120 2220 3240
2020-12-02 14:30 5.54 762 7890 (2007) 76 (1955) 859 93 123 164 193 383 981 1120 2220 3240
2020-12-02 13:30 5.54 762 7890 (2007) 76 (1955) 859 93 123 164 193 383 981 1120 2220 3240
2020-12-02 12:30 5.54 762 7890 (2007) 76 (1955) 859 93 123 164 193 383 981 1120 2220 3240
2020-12-02 11:30 5.50 708 7890 (2007) 76 (1955) 859 93 123 164 193 383 981 1120 2220 3240
2020-12-02 10:30 5.52 735 7890 (2007) 76 (1955) 859 93 123 164 193 383 981 1120 2220 3240
2020-12-02 09:30 5.50 708 7890 (2007) 76 (1955) 859 93 123 164 193 383 981 1120 2220 3240
2020-12-02 08:30 5.51 721 7890 (2007) 76 (1955) 859 93 123 164 193 383 981 1120 2220 3240
2020-12-02 07:30 5.51 721 7890 (2007) 76 (1955) 859 93 123 164 193 383 981 1120 2220 3240
2020-12-02 06:30 5.52 735 7890 (2007) 76 (1955) 859 93 123 164 193 383 981 1120 2220 3240
2020-12-02 05:30 5.52 735 7890 (2007) 76 (1955) 859 93 123 164 193 383 981 1120 2220 3240
2020-12-02 04:30 5.53 748 7890 (2007) 76 (1955) 859 93 123 164 193 383 981 1120 2220 3240
2020-12-02 03:30 5.51 721 7890 (2007) 76 (1955) 859 93 123 164 193 383 981 1120 2220 3240
2020-12-02 02:30 5.54 762 7890 (2007) 76 (1955) 859 93 123 164 193 383 981 1120 2220 3240
2020-12-02 01:30 5.54 762 7890 (2007) 76 (1955) 859 93 123 164 193 383 981 1120 2220 3240
2020-12-02 00:30 5.54 762 7890 (2007) 76 (1955) 859 93 123 164 193 383 981 1120 2220 3240
2020-12-01 23:30 5.54 762 11200 (2020) 76 (1955) 1000 91 124 166 197 385 963 1150 2340 4190
2020-12-01 22:30 5.54 762 11200 (2020) 76 (1955) 1000 91 124 166 197 385 963 1150 2340 4190
2020-12-01 21:30 5.55 776 11200 (2020) 76 (1955) 1000 91 124 166 197 385 963 1150 2340 4190
2020-12-01 20:30 5.55 776 11200 (2020) 76 (1955) 1000 91 124 166 197 385 963 1150 2340 4190
2020-12-01 19:30 5.55 776 11200 (2020) 76 (1955) 1000 91 124 166 197 385 963 1150 2340 4190
2020-12-01 18:30 5.54 762 11200 (2020) 76 (1955) 1000 91 124 166 197 385 963 1150 2340 4190
2020-12-01 17:30 5.54 762 11200 (2020) 76 (1955) 1000 91 124 166 197 385 963 1150 2340 4190
2020-12-01 16:30 5.55 776 11200 (2020) 76 (1955) 1000 91 124 166 197 385 963 1150 2340 4190
2020-12-01 15:30 5.55 776 11200 (2020) 76 (1955) 1000 91 124 166 197 385 963 1150 2340 4190
2020-12-01 14:30 5.56 802 11200 (2020) 76 (1955) 1000 91 124 166 197 385 963 1150 2340 4190
2020-12-01 13:30 5.56 802 11200 (2020) 76 (1955) 1000 91 124 166 197 385 963 1150 2340 4190
2020-12-01 12:30 5.57 816 11200 (2020) 76 (1955) 1000 91 124 166 197 385 963 1150 2340 4190
2020-12-01 11:30 5.58 829 11200 (2020) 76 (1955) 1000 91 124 166 197 385 963 1150 2340 4190
2020-12-01 10:30 5.57 816 11200 (2020) 76 (1955) 1000 91 124 166 197 385 963 1150 2340 4190
2020-12-01 09:30 5.55 789 11200 (2020) 76 (1955) 1000 91 124 166 197 385 963 1150 2340 4190
2020-12-01 08:30 5.57 816 11200 (2020) 76 (1955) 1000 91 124 166 197 385 963 1150 2340 4190
2020-12-01 07:30 5.59 843 11200 (2020) 76 (1955) 1000 91 124 166 197 385 963 1150 2340 4190
2020-12-01 06:30 5.58 829 11200 (2020) 76 (1955) 1000 91 124 166 197 385 963 1150 2340 4190
2020-12-01 05:30 5.58 829 11200 (2020) 76 (1955) 1000 91 124 166 197 385 963 1150 2340 4190
2020-12-01 04:30 5.59 843 11200 (2020) 76 (1955) 1000 91 124 166 197 385 963 1150 2340 4190
2020-12-01 03:30 5.60 857 11200 (2020) 76 (1955) 1000 91 124 166 197 385 963 1150 2340 4190
2020-12-01 02:30 5.58 829 11200 (2020) 76 (1955) 1000 91 124 166 197 385 963 1150 2340 4190
2020-12-01 01:30 5.60 857 11200 (2020) 76 (1955) 1000 91 124 166 197 385 963 1150 2340 4190
2020-12-01 00:30 5.60 857 11200 (2020) 76 (1955) 1000 91 124 166 197 385 963 1150 2340 4190
2020-11-30 23:30 5.60 857 6880 (1997) 79 (1955) 861 93 124 166 196 392 1010 1120 1750 4320
2020-11-30 22:30 5.60 857 6880 (1997) 79 (1955) 861 93 124 166 196 392 1010 1120 1750 4320
2020-11-30 21:30 5.61 871 6880 (1997) 79 (1955) 861 93 124 166 196 392 1010 1120 1750 4320
2020-11-30 20:30 5.61 871 6880 (1997) 79 (1955) 861 93 124 166 196 392 1010 1120 1750 4320
2020-11-30 19:30 5.60 857 6880 (1997) 79 (1955) 861 93 124 166 196 392 1010 1120 1750 4320
2020-11-30 18:30 5.60 857 6880 (1997) 79 (1955) 861 93 124 166 196 392 1010 1120 1750 4320
2020-11-30 17:30 5.61 871 6880 (1997) 79 (1955) 861 93 124 166 196 392 1010 1120 1750 4320
2020-11-30 16:30 5.61 871 6880 (1997) 79 (1955) 861 93 124 166 196 392 1010 1120 1750 4320
2020-11-30 15:30 5.62 886 6880 (1997) 79 (1955) 861 93 124 166 196 392 1010 1120 1750 4320
2020-11-30 14:30 5.62 886 6880 (1997) 79 (1955) 861 93 124 166 196 392 1010 1120 1750 4320
2020-11-30 13:30 5.61 871 6880 (1997) 79 (1955) 861 93 124 166 196 392 1010 1120 1750 4320
2020-11-30 12:30 5.63 900 6880 (1997) 79 (1955) 861 93 124 166 196 392 1010 1120 1750 4320
2020-11-30 11:30 5.65 929 6880 (1997) 79 (1955) 861 93 124 166 196 392 1010 1120 1750 4320
2020-11-30 10:30 5.64 915 6880 (1997) 79 (1955) 861 93 124 166 196 392 1010 1120 1750 4320
2020-11-30 09:30 5.63 900 6880 (1997) 79 (1955) 861 93 124 166 196 392 1010 1120 1750 4320
2020-11-30 08:30 5.64 915 6880 (1997) 79 (1955) 861 93 124 166 196 392 1010 1120 1750 4320
2020-11-30 07:30 5.65 929 6880 (1997) 79 (1955) 861 93 124 166 196 392 1010 1120 1750 4320
2020-11-30 06:30 5.65 929 6880 (1997) 79 (1955) 861 93 124 166 196 392 1010 1120 1750 4320
2020-11-30 05:30 5.67 959 6880 (1997) 79 (1955) 861 93 124 166 196 392 1010 1120 1750 4320
2020-11-30 04:30 5.66 944 6880 (1997) 79 (1955) 861 93 124 166 196 392 1010 1120 1750 4320
2020-11-30 03:30 5.67 959 6880 (1997) 79 (1955) 861 93 124 166 196 392 1010 1120 1750 4320
2020-11-30 02:30 5.67 959 6880 (1997) 79 (1955) 861 93 124 166 196 392 1010 1120 1750 4320
2020-11-30 01:30 5.68 975 6880 (1997) 79 (1955) 861 93 124 166 196 392 1010 1120 1750 4320
2020-11-29 23:30 5.69 990 9380 (2016) 79 (1955) 885 97 123 168 199 391 1110 1210 1860 3360
2020-11-29 22:30 5.70 1010 9380 (2016) 79 (1955) 885 97 123 168 199 391 1110 1210 1860 3360
2020-11-29 21:30 5.70 1010 9380 (2016) 79 (1955) 885 97 123 168 199 391 1110 1210 1860 3360
2020-11-29 20:30 5.70 1010 9380 (2016) 79 (1955) 885 97 123 168 199 391 1110 1210 1860 3360
2020-11-29 19:30 5.72 1040 9380 (2016) 79 (1955) 885 97 123 168 199 391 1110 1210 1860 3360
2020-11-29 18:30 5.70 1010 9380 (2016) 79 (1955) 885 97 123 168 199 391 1110 1210 1860 3360
2020-11-29 17:30 5.70 1010 9380 (2016) 79 (1955) 885 97 123 168 199 391 1110 1210 1860 3360
2020-11-29 16:30 5.72 1040 9380 (2016) 79 (1955) 885 97 123 168 199 391 1110 1210 1860 3360
2020-11-29 15:30 5.72 1040 9380 (2016) 79 (1955) 885 97 123 168 199 391 1110 1210 1860 3360
2020-11-29 14:30 5.71 1020 9380 (2016) 79 (1955) 885 97 123 168 199 391 1110 1210 1860 3360
2020-11-29 13:30 5.74 1060 9380 (2016) 79 (1955) 885 97 123 168 199 391 1110 1210 1860 3360
2020-11-29 12:30 5.74 1060 9380 (2016) 79 (1955) 885 97 123 168 199 391 1110 1210 1860 3360
2020-11-29 11:30 5.74 1060 9380 (2016) 79 (1955) 885 97 123 168 199 391 1110 1210 1860 3360
2020-11-29 10:30 5.76 1070 9380 (2016) 79 (1955) 885 97 123 168 199 391 1110 1210 1860 3360
2020-11-29 09:30 5.75 1070 9380 (2016) 79 (1955) 885 97 123 168 199 391 1110 1210 1860 3360
2020-11-29 08:30 5.76 1070 9380 (2016) 79 (1955) 885 97 123 168 199 391 1110 1210 1860 3360
2020-11-29 07:30 5.77 1080 9380 (2016) 79 (1955) 885 97 123 168 199 391 1110 1210 1860 3360
2020-11-29 06:30 5.76 1070 9380 (2016) 79 (1955) 885 97 123 168 199 391 1110 1210 1860 3360
2020-11-29 05:30 5.77 1080 9380 (2016) 79 (1955) 885 97 123 168 199 391 1110 1210 1860 3360
2020-11-29 04:30 5.78 1090 9380 (2016) 79 (1955) 885 97 123 168 199 391 1110 1210 1860 3360
2020-11-29 03:30 5.78 1090 9380 (2016) 79 (1955) 885 97 123 168 199 391 1110 1210 1860 3360
2020-11-29 02:30 5.78 1090 9380 (2016) 79 (1955) 885 97 123 168 199 391 1110 1210 1860 3360
2020-11-29 01:30 5.78 1090 9380 (2016) 79 (1955) 885 97 123 168 199 391 1110 1210 1860 3360
2020-11-29 00:30 5.78 1090 9380 (2016) 79 (1955) 885 97 123 168 199 391 1110 1210 1860 3360
2020-11-28 23:30 5.80 1100 12000 (1974) 79 (1955) 929 100 123 171 203 380 1150 1350 1820 3750
2020-11-28 22:30 5.81 1110 12000 (1974) 79 (1955) 929 100 123 171 203 380 1150 1350 1820 3750
2020-11-28 21:30 5.82 1110 12000 (1974) 79 (1955) 929 100 123 171 203 380 1150 1350 1820 3750
2020-11-28 20:30 5.82 1110 12000 (1974) 79 (1955) 929 100 123 171 203 380 1150 1350 1820 3750
2020-11-28 19:30 5.83 1120 12000 (1974) 79 (1955) 929 100 123 171 203 380 1150 1350 1820 3750
2020-11-28 18:30 5.84 1130 12000 (1974) 79 (1955) 929 100 123 171 203 380 1150 1350 1820 3750
2020-11-28 17:30 5.83 1120 12000 (1974) 79 (1955) 929 100 123 171 203 380 1150 1350 1820 3750
2020-11-28 16:30 5.84 1130 12000 (1974) 79 (1955) 929 100 123 171 203 380 1150 1350 1820 3750
2020-11-28 15:30 5.84 1130 12000 (1974) 79 (1955) 929 100 123 171 203 380 1150 1350 1820 3750
2020-11-28 14:30 5.85 1130 12000 (1974) 79 (1955) 929 100 123 171 203 380 1150 1350 1820 3750
2020-11-28 13:30 5.86 1140 12000 (1974) 79 (1955) 929 100 123 171 203 380 1150 1350 1820 3750
2020-11-28 12:30 5.88 1160 12000 (1974) 79 (1955) 929 100 123 171 203 380 1150 1350 1820 3750
2020-11-28 11:30 5.86 1140 12000 (1974) 79 (1955) 929 100 123 171 203 380 1150 1350 1820 3750
2020-11-28 10:30 5.88 1160 12000 (1974) 79 (1955) 929 100 123 171 203 380 1150 1350 1820 3750
2020-11-28 09:30 5.89 1160 12000 (1974) 79 (1955) 929 100 123 171 203 380 1150 1350 1820 3750
2020-11-28 08:30 5.90 1170 12000 (1974) 79 (1955) 929 100 123 171 203 380 1150 1350 1820 3750
2020-11-28 07:30 5.91 1180 12000 (1974) 79 (1955) 929 100 123 171 203 380 1150 1350 1820 3750
2020-11-28 06:30 5.92 1180 12000 (1974) 79 (1955) 929 100 123 171 203 380 1150 1350 1820 3750
2020-11-28 05:30 5.92 1180 12000 (1974) 79 (1955) 929 100 123 171 203 380 1150 1350 1820 3750
2020-11-28 04:30 5.94 1200 12000 (1974) 79 (1955) 929 100 123 171 203 380 1150 1350 1820 3750
2020-11-28 03:30 5.94 1200 12000 (1974) 79 (1955) 929 100 123 171 203 380 1150 1350 1820 3750
2020-11-28 02:30 5.94 1200 12000 (1974) 79 (1955) 929 100 123 171 203 380 1150 1350 1820 3750
2020-11-28 01:30 5.94 1200 12000 (1974) 79 (1955) 929 100 123 171 203 380 1150 1350 1820 3750
2020-11-28 00:30 5.96 1210 12000 (1974) 79 (1955) 929 100 123 171 203 380 1150 1350 1820 3750
2020-11-27 23:30 5.98 1230 16400 (1974) 79 (1955) 921 103 122 178 208 368 1120 1230 1800 3340
2020-11-27 22:30 5.99 1230 16400 (1974) 79 (1955) 921 103 122 178 208 368 1120 1230 1800 3340
2020-11-27 21:30 5.98 1230 16400 (1974) 79 (1955) 921 103 122 178 208 368 1120 1230 1800 3340
2020-11-27 20:30 5.99 1230 16400 (1974) 79 (1955) 921 103 122 178 208 368 1120 1230 1800 3340
2020-11-27 19:30 6.01 1250 16400 (1974) 79 (1955) 921 103 122 178 208 368 1120 1230 1800 3340
2020-11-27 18:30 6.00 1240 16400 (1974) 79 (1955) 921 103 122 178 208 368 1120 1230 1800 3340
2020-11-27 17:30 6.00 1240 16400 (1974) 79 (1955) 921 103 122 178 208 368 1120 1230 1800 3340
2020-11-27 16:30 6.01 1250 16400 (1974) 79 (1955) 921 103 122 178 208 368 1120 1230 1800 3340
2020-11-27 15:30 6.02 1260 16400 (1974) 79 (1955) 921 103 122 178 208 368 1120 1230 1800 3340
2020-11-27 14:30 6.04 1270 16400 (1974) 79 (1955) 921 103 122 178 208 368 1120 1230 1800 3340
2020-11-27 13:30 6.04 1270 16400 (1974) 79 (1955) 921 103 122 178 208 368 1120 1230 1800 3340
2020-11-27 12:30 6.04 1270 16400 (1974) 79 (1955) 921 103 122 178 208 368 1120 1230 1800 3340
2020-11-27 11:30 6.06 1290 16400 (1974) 79 (1955) 921 103 122 178 208 368 1120 1230 1800 3340
2020-11-27 10:30 6.08 1300 16400 (1974) 79 (1955) 921 103 122 178 208 368 1120 1230 1800 3340
2020-11-27 09:30 6.09 1310 16400 (1974) 79 (1955) 921 103 122 178 208 368 1120 1230 1800 3340
2020-11-27 08:30 6.09 1310 16400 (1974) 79 (1955) 921 103 122 178 208 368 1120 1230 1800 3340
2020-11-27 07:30 6.12 1330 16400 (1974) 79 (1955) 921 103 122 178 208 368 1120 1230 1800 3340
2020-11-27 06:30 6.12 1330 16400 (1974) 79 (1955) 921 103 122 178 208 368 1120 1230 1800 3340
2020-11-27 05:30 6.12 1330 16400 (1974) 79 (1955) 921 103 122 178 208 368 1120 1230 1800 3340
2020-11-27 04:30 6.13 1340 16400 (1974) 79 (1955) 921 103 122 178 208 368 1120 1230 1800 3340
2020-11-27 03:30 6.13 1340 16400 (1974) 79 (1955) 921 103 122 178 208 368 1120 1230 1800 3340
2020-11-27 02:30 6.15 1360 16400 (1974) 79 (1955) 921 103 122 178 208 368 1120 1230 1800 3340
2020-11-27 01:30 6.16 1360 16400 (1974) 79 (1955) 921 103 122 178 208 368 1120 1230 1800 3340
2020-11-27 00:30 6.13 1340 16400 (1974) 79 (1955) 921 103 122 178 208 368 1120 1230 1800 3340
2020-11-26 23:30 6.16 1360 43600 (1974) 79 (1955) 1320 105 126 179 215 364 960 1240 1830 3370
2020-11-26 22:30 6.15 1360 43600 (1974) 79 (1955) 1320 105 126 179 215 364 960 1240 1830 3370
2020-11-26 21:30 6.13 1340 43600 (1974) 79 (1955) 1320 105 126 179 215 364 960 1240 1830 3370
2020-11-26 20:30 6.12 1330 43600 (1974) 79 (1955) 1320 105 126 179 215 364 960 1240 1830 3370
2020-11-26 19:30 6.12 1330 43600 (1974) 79 (1955) 1320 105 126 179 215 364 960 1240 1830 3370
2020-11-26 18:30 6.07 1290 43600 (1974) 79 (1955) 1320 105 126 179 215 364 960 1240 1830 3370
2020-11-26 17:30 6.04 1270 43600 (1974) 79 (1955) 1320 105 126 179 215 364 960 1240 1830 3370
2020-11-26 16:30 6.00 1240 43600 (1974) 79 (1955) 1320 105 126 179 215 364 960 1240 1830 3370
2020-11-26 15:30 5.94 1200 43600 (1974) 79 (1955) 1320 105 126 179 215 364 960 1240 1830 3370
2020-11-26 14:30 5.90 1170 43600 (1974) 79 (1955) 1320 105 126 179 215 364 960 1240 1830 3370
2020-11-26 13:30 5.85 1130 43600 (1974) 79 (1955) 1320 105 126 179 215 364 960 1240 1830 3370
2020-11-26 12:30 5.80 1100 43600 (1974) 79 (1955) 1320 105 126 179 215 364 960 1240 1830 3370
2020-11-26 11:30 5.75 1070 43600 (1974) 79 (1955) 1320 105 126 179 215 364 960 1240 1830 3370
2020-11-26 10:30 5.72 1040 43600 (1974) 79 (1955) 1320 105 126 179 215 364 960 1240 1830 3370
2020-11-26 09:30 5.72 1040 43600 (1974) 79 (1955) 1320 105 126 179 215 364 960 1240 1830 3370
2020-11-26 08:30 5.71 1020 43600 (1974) 79 (1955) 1320 105 126 179 215 364 960 1240 1830 3370
2020-11-26 07:30 5.71 1020 43600 (1974) 79 (1955) 1320 105 126 179 215 364 960 1240 1830 3370
2020-11-26 06:30 5.70 1010 43600 (1974) 79 (1955) 1320 105 126 179 215 364 960 1240 1830 3370
2020-11-26 05:30 5.70 1010 43600 (1974) 79 (1955) 1320 105 126 179 215 364 960 1240 1830 3370
2020-11-26 04:30 5.71 1020 43600 (1974) 79 (1955) 1320 105 126 179 215 364 960 1240 1830 3370
2020-11-26 03:30 5.68 975 43600 (1974) 79 (1955) 1320 105 126 179 215 364 960 1240 1830 3370
2020-11-26 02:30 5.67 959 43600 (1974) 79 (1955) 1320 105 126 179 215 364 960 1240 1830 3370
2020-11-26 01:30 5.68 975 43600 (1974) 79 (1955) 1320 105 126 179 215 364 960 1240 1830 3370
2020-11-26 00:30 5.70 1010 43600 (1974) 79 (1955) 1320 105 126 179 215 364 960 1240 1830 3370
2020-11-25 23:30 5.69 990 32500 (1974) 81 (1955) 1140 105 131 186 214 347 841 954 2050 3160
2020-11-25 22:30 5.69 990 32500 (1974) 81 (1955) 1140 105 131 186 214 347 841 954 2050 3160
2020-11-25 21:30 5.68 975 32500 (1974) 81 (1955) 1140 105 131 186 214 347 841 954 2050 3160
2020-11-25 20:30 5.69 990 32500 (1974) 81 (1955) 1140 105 131 186 214 347 841 954 2050 3160
2020-11-25 19:30 5.69 990 32500 (1974) 81 (1955) 1140 105 131 186 214 347 841 954 2050 3160
2020-11-25 18:30 5.69 990 32500 (1974) 81 (1955) 1140 105 131 186 214 347 841 954 2050 3160
2020-11-25 17:30 5.67 959 32500 (1974) 81 (1955) 1140 105 131 186 214 347 841 954 2050 3160
2020-11-25 16:30 5.69 990 32500 (1974) 81 (1955) 1140 105 131 186 214 347 841 954 2050 3160
2020-11-25 15:30 5.67 959 32500 (1974) 81 (1955) 1140 105 131 186 214 347 841 954 2050 3160
2020-11-25 14:30 5.66 944 32500 (1974) 81 (1955) 1140 105 131 186 214 347 841 954 2050 3160
2020-11-25 13:30 5.66 944 32500 (1974) 81 (1955) 1140 105 131 186 214 347 841 954 2050 3160
2020-11-25 12:30 5.67 959 32500 (1974) 81 (1955) 1140 105 131 186 214 347 841 954 2050 3160
2020-11-25 11:30 5.66 944 32500 (1974) 81 (1955) 1140 105 131 186 214 347 841 954 2050 3160
2020-11-25 10:30 5.68 975 32500 (1974) 81 (1955) 1140 105 131 186 214 347 841 954 2050 3160
2020-11-25 09:30 5.67 959 32500 (1974) 81 (1955) 1140 105 131 186 214 347 841 954 2050 3160
2020-11-25 08:30 5.67 959 32500 (1974) 81 (1955) 1140 105 131 186 214 347 841 954 2050 3160
2020-11-25 07:30 5.67 959 32500 (1974) 81 (1955) 1140 105 131 186 214 347 841 954 2050 3160
2020-11-25 06:30 5.66 944 32500 (1974) 81 (1955) 1140 105 131 186 214 347 841 954 2050 3160
2020-11-25 05:30 5.67 959 32500 (1974) 81 (1955) 1140 105 131 186 214 347 841 954 2050 3160
2020-11-25 04:30 5.67 959 32500 (1974) 81 (1955) 1140 105 131 186 214 347 841 954 2050 3160
2020-11-25 03:30 5.68 975 32500 (1974) 81 (1955) 1140 105 131 186 214 347 841 954 2050 3160
2020-11-25 02:30 5.67 959 32500 (1974) 81 (1955) 1140 105 131 186 214 347 841 954 2050 3160
2020-11-25 01:30 5.66 944 32500 (1974) 81 (1955) 1140 105 131 186 214 347 841 954 2050 3160
2020-11-25 00:30 5.67 959 32500 (1974) 81 (1955) 1140 105 131 186 214 347 841 954 2050 3160
2020-11-24 23:30 5.66 944 7400 (1993) 84 (1955) 810 109 133 169 202 355 855 980 2130 3250
2020-11-24 22:30 5.67 959 7400 (1993) 84 (1955) 810 109 133 169 202 355 855 980 2130 3250
2020-11-24 21:30 5.67 959 7400 (1993) 84 (1955) 810 109 133 169 202 355 855 980 2130 3250
2020-11-24 20:30 5.64 915 7400 (1993) 84 (1955) 810 109 133 169 202 355 855 980 2130 3250
2020-11-24 19:30 5.66 944 7400 (1993) 84 (1955) 810 109 133 169 202 355 855 980 2130 3250
2020-11-24 18:30 5.66 944 7400 (1993) 84 (1955) 810 109 133 169 202 355 855 980 2130 3250
2020-11-24 17:30 5.68 975 7400 (1993) 84 (1955) 810 109 133 169 202 355 855 980 2130 3250
2020-11-24 16:30 5.68 975 7400 (1993) 84 (1955) 810 109 133 169 202 355 855 980 2130 3250
2020-11-24 15:30 5.69 990 7400 (1993) 84 (1955) 810 109 133 169 202 355 855 980 2130 3250
2020-11-24 14:30 5.70 1010 7400 (1993) 84 (1955) 810 109 133 169 202 355 855 980 2130 3250
2020-11-24 13:30 5.71 1020 7400 (1993) 84 (1955) 810 109 133 169 202 355 855 980 2130 3250
2020-11-24 12:30 5.69 990 7400 (1993) 84 (1955) 810 109 133 169 202 355 855 980 2130 3250
2020-11-24 11:30 5.69 990 7400 (1993) 84 (1955) 810 109 133 169 202 355 855 980 2130 3250
2020-11-24 10:30 5.71 1020 7400 (1993) 84 (1955) 810 109 133 169 202 355 855 980 2130 3250
2020-11-24 09:30 5.72 1040 7400 (1993) 84 (1955) 810 109 133 169 202 355 855 980 2130 3250
2020-11-24 08:30 5.73 1050 7400 (1993) 84 (1955) 810 109 133 169 202 355 855 980 2130 3250
2020-11-24 07:30 5.71 1020 7400 (1993) 84 (1955) 810 109 133 169 202 355 855 980 2130 3250
2020-11-24 06:30 5.74 1060 7400 (1993) 84 (1955) 810 109 133 169 202 355 855 980 2130 3250
2020-11-24 05:30 5.73 1050 7400 (1993) 84 (1955) 810 109 133 169 202 355 855 980 2130 3250
2020-11-24 04:30 5.74 1060 7400 (1993) 84 (1955) 810 109 133 169 202 355 855 980 2130 3250
2020-11-24 03:30 5.73 1050 7400 (1993) 84 (1955) 810 109 133 169 202 355 855 980 2130 3250
2020-11-24 02:30 5.73 1050 7400 (1993) 84 (1955) 810 109 133 169 202 355 855 980 2130 3250
2020-11-24 01:30 5.74 1060 7400 (1993) 84 (1955) 810 109 133 169 202 355 855 980 2130 3250
2020-11-24 00:30 5.73 1050 7400 (1993) 84 (1955) 810 109 133 169 202 355 855 980 2130 3250
2020-11-23 23:30 5.70 1010 11900 (1993) 84 (1955) 832 109 130 170 207 363 870 994 2020 3000
2020-11-23 22:30 5.69 990 11900 (1993) 84 (1955) 832 109 130 170 207 363 870 994 2020 3000
2020-11-23 21:30 5.68 975 11900 (1993) 84 (1955) 832 109 130 170 207 363 870 994 2020 3000
2020-11-23 20:30 5.63 900 11900 (1993) 84 (1955) 832 109 130 170 207 363 870 994 2020 3000
2020-11-23 19:30 5.60 857 11900 (1993) 84 (1955) 832 109 130 170 207 363 870 994 2020 3000
2020-11-23 18:30 5.55 789 11900 (1993) 84 (1955) 832 109 130 170 207 363 870 994 2020 3000
2020-11-23 17:30 5.49 711 11900 (1993) 84 (1955) 832 109 130 170 207 363 870 994 2020 3000
2020-11-23 16:30 5.42 627 11900 (1993) 84 (1955) 832 109 130 170 207 363 870 994 2020 3000
2020-11-23 15:30 5.37 572 11900 (1993) 84 (1955) 832 109 130 170 207 363 870 994 2020 3000
2020-11-23 14:30 5.33 529 11900 (1993) 84 (1955) 832 109 130 170 207 363 870 994 2020 3000
2020-11-23 13:30 5.32 519 11900 (1993) 84 (1955) 832 109 130 170 207 363 870 994 2020 3000
2020-11-23 12:30 5.31 509 11900 (1993) 84 (1955) 832 109 130 170 207 363 870 994 2020 3000
2020-11-23 11:30 5.29 489 11900 (1993) 84 (1955) 832 109 130 170 207 363 870 994 2020 3000
2020-11-23 10:30 5.29 489 11900 (1993) 84 (1955) 832 109 130 170 207 363 870 994 2020 3000
2020-11-23 09:30 5.28 480 11900 (1993) 84 (1955) 832 109 130 170 207 363 870 994 2020 3000
2020-11-23 08:30 5.29 489 11900 (1993) 84 (1955) 832 109 130 170 207 363 870 994 2020 3000
2020-11-23 07:30 5.27 470 11900 (1993) 84 (1955) 832 109 130 170 207 363 870 994 2020 3000
2020-11-23 06:30 5.28 480 11900 (1993) 84 (1955) 832 109 130 170 207 363 870 994 2020 3000
2020-11-23 05:30 5.28 480 11900 (1993) 84 (1955) 832 109 130 170 207 363 870 994 2020 3000
2020-11-23 04:30 5.28 480 11900 (1993) 84 (1955) 832 109 130 170 207 363 870 994 2020 3000
2020-11-23 03:30 5.28 480 11900 (1993) 84 (1955) 832 109 130 170 207 363 870 994 2020 3000
2020-11-23 02:30 5.27 470 11900 (1993) 84 (1955) 832 109 130 170 207 363 870 994 2020 3000
2020-11-23 01:30 5.27 470 11900 (1993) 84 (1955) 832 109 130 170 207 363 870 994 2020 3000
2020-11-23 00:30 5.27 470 11900 (1993) 84 (1955) 832 109 130 170 207 363 870 994 2020 3000
2020-11-22 23:30 5.27 470 5800 (1993) 81 (1955) 752 103 130 171 206 341 862 1060 1910 3350
2020-11-22 22:30 5.27 470 5800 (1993) 81 (1955) 752 103 130 171 206 341 862 1060 1910 3350
2020-11-22 21:30 5.27 470 5800 (1993) 81 (1955) 752 103 130 171 206 341 862 1060 1910 3350
2020-11-22 20:30 5.27 470 5800 (1993) 81 (1955) 752 103 130 171 206 341 862 1060 1910 3350
2020-11-22 19:30 5.26 460 5800 (1993) 81 (1955) 752 103 130 171 206 341 862 1060 1910 3350
2020-11-22 18:30 5.27 470 5800 (1993) 81 (1955) 752 103 130 171 206 341 862 1060 1910 3350
2020-11-22 17:30 5.27 470 5800 (1993) 81 (1955) 752 103 130 171 206 341 862 1060 1910 3350
2020-11-22 16:30 5.27 470 5800 (1993) 81 (1955) 752 103 130 171 206 341 862 1060 1910 3350
2020-11-22 15:30 5.25 451 5800 (1993) 81 (1955) 752 103 130 171 206 341 862 1060 1910 3350
2020-11-22 14:30 5.26 460 5800 (1993) 81 (1955) 752 103 130 171 206 341 862 1060 1910 3350
2020-11-22 13:30 5.25 451 5800 (1993) 81 (1955) 752 103 130 171 206 341 862 1060 1910 3350
2020-11-22 12:30 5.26 460 5800 (1993) 81 (1955) 752 103 130 171 206 341 862 1060 1910 3350
2020-11-22 11:30 5.27 470 5800 (1993) 81 (1955) 752 103 130 171 206 341 862 1060 1910 3350
2020-11-22 10:30 5.27 470 5800 (1993) 81 (1955) 752 103 130 171 206 341 862 1060 1910 3350
2020-11-22 09:30 5.28 480 5800 (1993) 81 (1955) 752 103 130 171 206 341 862 1060 1910 3350
2020-11-22 08:30 5.27 470 5800 (1993) 81 (1955) 752 103 130 171 206 341 862 1060 1910 3350
2020-11-22 07:30 5.27 470 5800 (1993) 81 (1955) 752 103 130 171 206 341 862 1060 1910 3350
2020-11-22 06:30 5.29 489 5800 (1993) 81 (1955) 752 103 130 171 206 341 862 1060 1910 3350
2020-11-22 05:30 5.28 480 5800 (1993) 81 (1955) 752 103 130 171 206 341 862 1060 1910 3350
2020-11-22 04:30 5.28 480 5800 (1993) 81 (1955) 752 103 130 171 206 341 862 1060 1910 3350
2020-11-22 03:30 5.26 460 5800 (1993) 81 (1955) 752 103 130 171 206 341 862 1060 1910 3350
2020-11-22 02:30 5.30 499 5800 (1993) 81 (1955) 752 103 130 171 206 341 862 1060 1910 3350
2020-11-22 01:30 5.29 489 5800 (1993) 81 (1955) 752 103 130 171 206 341 862 1060 1910 3350
2020-11-22 00:30 5.29 489 5800 (1993) 81 (1955) 752 103 130 171 206 341 862 1060 1910 3350
2020-11-21 23:30 5.28 480 12600 (1986) 82 (1964) 796 101 123 173 198 355 855 1110 1760 2350
2020-11-21 22:30 5.28 480 12600 (1986) 82 (1964) 796 101 123 173 198 355 855 1110 1760 2350
2020-11-21 21:30 5.26 460 12600 (1986) 82 (1964) 796 101 123 173 198 355 855 1110 1760 2350
2020-11-21 20:30 5.26 460 12600 (1986) 82 (1964) 796 101 123 173 198 355 855 1110 1760 2350
2020-11-21 19:30 5.27 470 12600 (1986) 82 (1964) 796 101 123 173 198 355 855 1110 1760 2350
2020-11-21 18:30 5.27 470 12600 (1986) 82 (1964) 796 101 123 173 198 355 855 1110 1760 2350
2020-11-21 17:30 5.27 470 12600 (1986) 82 (1964) 796 101 123 173 198 355 855 1110 1760 2350
2020-11-21 16:30 5.27 470 12600 (1986) 82 (1964) 796 101 123 173 198 355 855 1110 1760 2350
2020-11-21 15:30 5.28 480 12600 (1986) 82 (1964) 796 101 123 173 198 355 855 1110 1760 2350
2020-11-21 14:30 5.27 470 12600 (1986) 82 (1964) 796 101 123 173 198 355 855 1110 1760 2350
2020-11-21 13:30 5.28 480 12600 (1986) 82 (1964) 796 101 123 173 198 355 855 1110 1760 2350
2020-11-21 12:30 5.28 480 12600 (1986) 82 (1964) 796 101 123 173 198 355 855 1110 1760 2350
2020-11-21 11:30 5.28 480 12600 (1986) 82 (1964) 796 101 123 173 198 355 855 1110 1760 2350
2020-11-21 10:30 5.28 480 12600 (1986) 82 (1964) 796 101 123 173 198 355 855 1110 1760 2350
2020-11-21 09:30 5.28 480 12600 (1986) 82 (1964) 796 101 123 173 198 355 855 1110 1760 2350
2020-11-21 08:30 5.29 489 12600 (1986) 82 (1964) 796 101 123 173 198 355 855 1110 1760 2350
2020-11-21 07:30 5.30 499 12600 (1986) 82 (1964) 796 101 123 173 198 355 855 1110 1760 2350
2020-11-21 06:30 5.29 489 12600 (1986) 82 (1964) 796 101 123 173 198 355 855 1110 1760 2350
2020-11-21 05:30 5.29 489 12600 (1986) 82 (1964) 796 101 123 173 198 355 855 1110 1760 2350
2020-11-21 04:30 5.28 480 12600 (1986) 82 (1964) 796 101 123 173 198 355 855 1110 1760 2350
2020-11-21 03:30 5.29 489 12600 (1986) 82 (1964) 796 101 123 173 198 355 855 1110 1760 2350
2020-11-21 02:30 5.30 499 12600 (1986) 82 (1964) 796 101 123 173 198 355 855 1110 1760 2350
2020-11-21 01:30 5.29 489 12600 (1986) 82 (1964) 796 101 123 173 198 355 855 1110 1760 2350
2020-11-21 00:30 5.31 509 12600 (1986) 82 (1964) 796 101 123 173 198 355 855 1110 1760 2350
2020-11-20 22:30 5.31 509 27700 (1986) 86 (1964) 1020 99 113 172 193 319 831 1160 1860 3030
2020-11-20 21:30 5.31 509 27700 (1986) 86 (1964) 1020 99 113 172 193 319 831 1160 1860 3030
2020-11-20 20:30 5.30 499 27700 (1986) 86 (1964) 1020 99 113 172 193 319 831 1160 1860 3030
2020-11-20 19:30 5.31 509 27700 (1986) 86 (1964) 1020 99 113 172 193 319 831 1160 1860 3030
2020-11-20 18:30 5.30 499 27700 (1986) 86 (1964) 1020 99 113 172 193 319 831 1160 1860 3030
2020-11-20 17:30 5.30 499 27700 (1986) 86 (1964) 1020 99 113 172 193 319 831 1160 1860 3030
2020-11-20 16:30 5.31 509 27700 (1986) 86 (1964) 1020 99 113 172 193 319 831 1160 1860 3030
2020-11-20 15:30 5.31 509 27700 (1986) 86 (1964) 1020 99 113 172 193 319 831 1160 1860 3030
2020-11-20 14:30 5.31 509 27700 (1986) 86 (1964) 1020 99 113 172 193 319 831 1160 1860 3030
2020-11-20 13:30 5.31 509 27700 (1986) 86 (1964) 1020 99 113 172 193 319 831 1160 1860 3030
2020-11-20 12:30 5.32 519 27700 (1986) 86 (1964) 1020 99 113 172 193 319 831 1160 1860 3030
2020-11-20 11:30 5.32 519 27700 (1986) 86 (1964) 1020 99 113 172 193 319 831 1160 1860 3030
2020-11-20 10:30 5.31 509 27700 (1986) 86 (1964) 1020 99 113 172 193 319 831 1160 1860 3030
2020-11-20 09:30 5.31 509 27700 (1986) 86 (1964) 1020 99 113 172 193 319 831 1160 1860 3030
2020-11-20 08:30 5.34 540 27700 (1986) 86 (1964) 1020 99 113 172 193 319 831 1160 1860 3030
2020-11-20 07:30 5.34 540 27700 (1986) 86 (1964) 1020 99 113 172 193 319 831 1160 1860 3030
2020-11-20 06:30 5.32 519 27700 (1986) 86 (1964) 1020 99 113 172 193 319 831 1160 1860 3030
2020-11-20 05:30 5.33 529 27700 (1986) 86 (1964) 1020 99 113 172 193 319 831 1160 1860 3030
2020-11-20 04:30 5.34 540 27700 (1986) 86 (1964) 1020 99 113 172 193 319 831 1160 1860 3030
2020-11-20 03:30 5.34 540 27700 (1986) 86 (1964) 1020 99 113 172 193 319 831 1160 1860 3030
2020-11-20 02:30 5.34 540 27700 (1986) 86 (1964) 1020 99 113 172 193 319 831 1160 1860 3030
2020-11-20 01:30 5.33 529 27700 (1986) 86 (1964) 1020 99 113 172 193 319 831 1160 1860 3030
2020-11-20 00:30 5.34 540 27700 (1986) 86 (1964) 1020 99 113 172 193 319 831 1160 1860 3030
2020-11-19 23:30 5.34 540 12900 (1986) 54 (1957) 949 87 111 180 186 291 883 1090 2470 4070
2020-11-19 22:30 5.33 529 12900 (1986) 54 (1957) 949 87 111 180 186 291 883 1090 2470 4070
2020-11-19 21:30 5.34 540 12900 (1986) 54 (1957) 949 87 111 180 186 291 883 1090 2470 4070
2020-11-19 20:30 5.35 550 12900 (1986) 54 (1957) 949 87 111 180 186 291 883 1090 2470 4070
2020-11-19 19:30 5.35 550 12900 (1986) 54 (1957) 949 87 111 180 186 291 883 1090 2470 4070
2020-11-19 18:30 5.34 540 12900 (1986) 54 (1957) 949 87 111 180 186 291 883 1090 2470 4070
2020-11-19 17:30 5.34 540 12900 (1986) 54 (1957) 949 87 111 180 186 291 883 1090 2470 4070
2020-11-19 16:30 5.35 550 12900 (1986) 54 (1957) 949 87 111 180 186 291 883 1090 2470 4070
2020-11-19 15:30 5.34 540 12900 (1986) 54 (1957) 949 87 111 180 186 291 883 1090 2470 4070
2020-11-19 14:30 5.35 550 12900 (1986) 54 (1957) 949 87 111 180 186 291 883 1090 2470 4070
2020-11-19 13:30 5.34 540 12900 (1986) 54 (1957) 949 87 111 180 186 291 883 1090 2470 4070
2020-11-19 12:30 5.35 550 12900 (1986) 54 (1957) 949 87 111 180 186 291 883 1090 2470 4070
2020-11-19 11:30 5.35 550 12900 (1986) 54 (1957) 949 87 111 180 186 291 883 1090 2470 4070
2020-11-19 10:30 5.35 550 12900 (1986) 54 (1957) 949 87 111 180 186 291 883 1090 2470 4070
2020-11-19 09:30 5.37 572 12900 (1986) 54 (1957) 949 87 111 180 186 291 883 1090 2470 4070
2020-11-19 08:30 5.38 582 12900 (1986) 54 (1957) 949 87 111 180 186 291 883 1090 2470 4070
2020-11-19 07:30 5.39 593 12900 (1986) 54 (1957) 949 87 111 180 186 291 883 1090 2470 4070
2020-11-19 06:30 5.37 572 12900 (1986) 54 (1957) 949 87 111 180 186 291 883 1090 2470 4070
2020-11-19 05:30 5.39 593 12900 (1986) 54 (1957) 949 87 111 180 186 291 883 1090 2470 4070
2020-11-19 04:30 5.38 582 12900 (1986) 54 (1957) 949 87 111 180 186 291 883 1090 2470 4070
2020-11-19 03:30 5.39 593 12900 (1986) 54 (1957) 949 87 111 180 186 291 883 1090 2470 4070
2020-11-19 02:30 5.39 593 12900 (1986) 54 (1957) 949 87 111 180 186 291 883 1090 2470 4070
2020-11-19 01:30 5.40 605 12900 (1986) 54 (1957) 949 87 111 180 186 291 883 1090 2470 4070
2020-11-19 00:30 5.40 605 12900 (1986) 54 (1957) 949 87 111 180 186 291 883 1090 2470 4070
2020-11-18 23:30 5.40 605 8330 (1992) 61 (1957) 865 82 106 167 184 300 823 1130 2050 4140
2020-11-18 22:30 5.40 605 8330 (1992) 61 (1957) 865 82 106 167 184 300 823 1130 2050 4140
2020-11-18 21:30 5.40 605 8330 (1992) 61 (1957) 865 82 106 167 184 300 823 1130 2050 4140
2020-11-18 20:30 5.41 616 8330 (1992) 61 (1957) 865 82 106 167 184 300 823 1130 2050 4140
2020-11-18 19:30 5.41 616 8330 (1992) 61 (1957) 865 82 106 167 184 300 823 1130 2050 4140
2020-11-18 18:30 5.40 605 8330 (1992) 61 (1957) 865 82 106 167 184 300 823 1130 2050 4140
2020-11-18 17:30 5.40 605 8330 (1992) 61 (1957) 865 82 106 167 184 300 823 1130 2050 4140
2020-11-18 16:30 5.41 616 8330 (1992) 61 (1957) 865 82 106 167 184 300 823 1130 2050 4140
2020-11-18 15:30 5.41 616 8330 (1992) 61 (1957) 865 82 106 167 184 300 823 1130 2050 4140
2020-11-18 14:30 5.41 616 8330 (1992) 61 (1957) 865 82 106 167 184 300 823 1130 2050 4140
2020-11-18 13:30 5.43 639 8330 (1992) 61 (1957) 865 82 106 167 184 300 823 1130 2050 4140
2020-11-18 12:30 5.42 627 8330 (1992) 61 (1957) 865 82 106 167 184 300 823 1130 2050 4140
2020-11-18 11:30 5.41 616 8330 (1992) 61 (1957) 865 82 106 167 184 300 823 1130 2050 4140
2020-11-18 10:30 5.44 651 8330 (1992) 61 (1957) 865 82 106 167 184 300 823 1130 2050 4140
2020-11-18 09:30 5.44 651 8330 (1992) 61 (1957) 865 82 106 167 184 300 823 1130 2050 4140
2020-11-18 08:30 5.44 651 8330 (1992) 61 (1957) 865 82 106 167 184 300 823 1130 2050 4140
2020-11-18 07:30 5.45 662 8330 (1992) 61 (1957) 865 82 106 167 184 300 823 1130 2050 4140
2020-11-18 06:30 5.45 662 8330 (1992) 61 (1957) 865 82 106 167 184 300 823 1130 2050 4140
2020-11-18 05:30 5.45 662 8330 (1992) 61 (1957) 865 82 106 167 184 300 823 1130 2050 4140
2020-11-18 04:30 5.45 662 8330 (1992) 61 (1957) 865 82 106 167 184 300 823 1130 2050 4140
2020-11-18 03:30 5.45 662 8330 (1992) 61 (1957) 865 82 106 167 184 300 823 1130 2050 4140
2020-11-18 02:30 5.45 662 8330 (1992) 61 (1957) 865 82 106 167 184 300 823 1130 2050 4140
2020-11-18 01:30 5.46 674 8330 (1992) 61 (1957) 865 82 106 167 184 300 823 1130 2050 4140
2020-11-18 00:30 5.44 651 8330 (1992) 61 (1957) 865 82 106 167 184 300 823 1130 2050 4140
2020-11-17 23:30 5.46 674 5930 (1994) 68 (1964) 674 82 107 161 179 311 753 912 1900 2190
2020-11-17 22:30 5.47 687 5930 (1994) 68 (1964) 674 82 107 161 179 311 753 912 1900 2190
2020-11-17 21:30 5.46 674 5930 (1994) 68 (1964) 674 82 107 161 179 311 753 912 1900 2190
2020-11-17 20:30 5.47 687 5930 (1994) 68 (1964) 674 82 107 161 179 311 753 912 1900 2190
2020-11-17 19:30 5.48 699 5930 (1994) 68 (1964) 674 82 107 161 179 311 753 912 1900 2190
2020-11-17 18:30 5.47 687 5930 (1994) 68 (1964) 674 82 107 161 179 311 753 912 1900 2190
2020-11-17 17:30 5.49 711 5930 (1994) 68 (1964) 674 82 107 161 179 311 753 912 1900 2190
2020-11-17 16:30 5.48 699 5930 (1994) 68 (1964) 674 82 107 161 179 311 753 912 1900 2190
2020-11-17 15:30 5.49 711 5930 (1994) 68 (1964) 674 82 107 161 179 311 753 912 1900 2190
2020-11-17 14:30 5.49 711 5930 (1994) 68 (1964) 674 82 107 161 179 311 753 912 1900 2190
2020-11-17 13:30 5.51 736 5930 (1994) 68 (1964) 674 82 107 161 179 311 753 912 1900 2190
2020-11-17 12:30 5.51 736 5930 (1994) 68 (1964) 674 82 107 161 179 311 753 912 1900 2190
2020-11-17 11:30 5.51 736 5930 (1994) 68 (1964) 674 82 107 161 179 311 753 912 1900 2190
2020-11-17 10:30 5.51 736 5930 (1994) 68 (1964) 674 82 107 161 179 311 753 912 1900 2190
2020-11-17 09:30 5.52 749 5930 (1994) 68 (1964) 674 82 107 161 179 311 753 912 1900 2190
2020-11-17 08:30 5.55 789 5930 (1994) 68 (1964) 674 82 107 161 179 311 753 912 1900 2190
2020-11-17 07:30 5.55 789 5930 (1994) 68 (1964) 674 82 107 161 179 311 753 912 1900 2190
2020-11-17 06:30 5.54 775 5930 (1994) 68 (1964) 674 82 107 161 179 311 753 912 1900 2190
2020-11-17 05:30 5.54 775 5930 (1994) 68 (1964) 674 82 107 161 179 311 753 912 1900 2190
2020-11-17 04:30 5.55 789 5930 (1994) 68 (1964) 674 82 107 161 179 311 753 912 1900 2190
2020-11-17 03:30 5.54 775 5930 (1994) 68 (1964) 674 82 107 161 179 311 753 912 1900 2190
2020-11-17 02:30 5.57 816 5930 (1994) 68 (1964) 674 82 107 161 179 311 753 912 1900 2190
2020-11-17 01:30 5.56 802 5930 (1994) 68 (1964) 674 82 107 161 179 311 753 912 1900 2190
2020-11-17 00:30 5.57 816 5930 (1994) 68 (1964) 674 82 107 161 179 311 753 912 1900 2190
2020-11-16 23:30 5.57 816 7640 (1994) 66 (1964) 613 82 102 161 177 312 724 829 1380 2190
2020-11-16 22:30 5.56 802 7640 (1994) 66 (1964) 613 82 102 161 177 312 724 829 1380 2190
2020-11-16 21:30 5.55 789 7640 (1994) 66 (1964) 613 82 102 161 177 312 724 829 1380 2190
2020-11-16 20:30 5.57 816 7640 (1994) 66 (1964) 613 82 102 161 177 312 724 829 1380 2190
2020-11-16 19:30 5.57 816 7640 (1994) 66 (1964) 613 82 102 161 177 312 724 829 1380 2190
2020-11-16 18:30 5.57 816 7640 (1994) 66 (1964) 613 82 102 161 177 312 724 829 1380 2190
2020-11-16 17:30 5.56 802 7640 (1994) 66 (1964) 613 82 102 161 177 312 724 829 1380 2190
2020-11-16 16:30 5.57 816 7640 (1994) 66 (1964) 613 82 102 161 177 312 724 829 1380 2190
2020-11-16 15:30 5.58 829 7640 (1994) 66 (1964) 613 82 102 161 177 312 724 829 1380 2190
2020-11-16 14:30 5.57 816 7640 (1994) 66 (1964) 613 82 102 161 177 312 724 829 1380 2190
2020-11-16 13:30 5.58 829 7640 (1994) 66 (1964) 613 82 102 161 177 312 724 829 1380 2190
2020-11-16 12:30 5.57 816 7640 (1994) 66 (1964) 613 82 102 161 177 312 724 829 1380 2190
2020-11-16 11:30 5.58 829 7640 (1994) 66 (1964) 613 82 102 161 177 312 724 829 1380 2190
2020-11-16 10:30 5.56 802 7640 (1994) 66 (1964) 613 82 102 161 177 312 724 829 1380 2190
2020-11-16 09:30 5.55 789 7640 (1994) 66 (1964) 613 82 102 161 177 312 724 829 1380 2190
2020-11-16 08:30 5.53 762 7640 (1994) 66 (1964) 613 82 102 161 177 312 724 829 1380 2190
2020-11-16 07:30 5.52 749 7640 (1994) 66 (1964) 613 82 102 161 177 312 724 829 1380 2190
2020-11-16 06:30 5.50 724 7640 (1994) 66 (1964) 613 82 102 161 177 312 724 829 1380 2190
2020-11-16 05:30 5.46 674 7640 (1994) 66 (1964) 613 82 102 161 177 312 724 829 1380 2190
2020-11-16 04:30 5.44 651 7640 (1994) 66 (1964) 613 82 102 161 177 312 724 829 1380 2190
2020-11-16 03:30 5.40 605 7640 (1994) 66 (1964) 613 82 102 161 177 312 724 829 1380 2190
2020-11-16 02:30 5.38 582 7640 (1994) 66 (1964) 613 82 102 161 177 312 724 829 1380 2190
2020-11-16 01:30 5.37 572 7640 (1994) 66 (1964) 613 82 102 161 177 312 724 829 1380 2190
2020-11-16 00:30 5.35 550 7640 (1994) 66 (1964) 613 82 102 161 177 312 724 829 1380 2190
2020-11-15 23:30 5.35 550 15200 (1994) 56 (1957) 717 81 105 167 190 283 628 835 1440 2120
2020-11-15 22:30 5.34 540 15200 (1994) 56 (1957) 717 81 105 167 190 283 628 835 1440 2120
2020-11-15 21:30 5.33 529 15200 (1994) 56 (1957) 717 81 105 167 190 283 628 835 1440 2120
2020-11-15 20:30 5.32 519 15200 (1994) 56 (1957) 717 81 105 167 190 283 628 835 1440 2120
2020-11-15 19:30 5.31 509 15200 (1994) 56 (1957) 717 81 105 167 190 283 628 835 1440 2120
2020-11-15 18:30 5.31 509 15200 (1994) 56 (1957) 717 81 105 167 190 283 628 835 1440 2120
2020-11-15 17:30 5.31 509 15200 (1994) 56 (1957) 717 81 105 167 190 283 628 835 1440 2120
2020-11-15 16:30 5.30 499 15200 (1994) 56 (1957) 717 81 105 167 190 283 628 835 1440 2120
2020-11-15 15:30 5.28 480 15200 (1994) 56 (1957) 717 81 105 167 190 283 628 835 1440 2120
2020-11-15 14:30 5.29 489 15200 (1994) 56 (1957) 717 81 105 167 190 283 628 835 1440 2120
2020-11-15 13:30 5.29 489 15200 (1994) 56 (1957) 717 81 105 167 190 283 628 835 1440 2120
2020-11-15 12:30 5.30 499 15200 (1994) 56 (1957) 717 81 105 167 190 283 628 835 1440 2120
2020-11-15 11:30 5.30 499 15200 (1994) 56 (1957) 717 81 105 167 190 283 628 835 1440 2120
2020-11-15 10:30 5.31 509 15200 (1994) 56 (1957) 717 81 105 167 190 283 628 835 1440 2120
2020-11-15 09:30 5.30 499 15200 (1994) 56 (1957) 717 81 105 167 190 283 628 835 1440 2120
2020-11-15 08:30 5.32 519 15200 (1994) 56 (1957) 717 81 105 167 190 283 628 835 1440 2120
2020-11-15 07:30 5.31 509 15200 (1994) 56 (1957) 717 81 105 167 190 283 628 835 1440 2120
2020-11-15 06:30 5.33 529 15200 (1994) 56 (1957) 717 81 105 167 190 283 628 835 1440 2120
2020-11-15 05:30 5.32 519 15200 (1994) 56 (1957) 717 81 105 167 190 283 628 835 1440 2120
2020-11-15 04:30 5.31 509 15200 (1994) 56 (1957) 717 81 105 167 190 283 628 835 1440 2120
2020-11-15 03:30 5.31 509 15200 (1994) 56 (1957) 717 81 105 167 190 283 628 835 1440 2120
2020-11-15 02:30 5.30 499 15200 (1994) 56 (1957) 717 81 105 167 190 283 628 835 1440 2120
2020-11-15 01:30 5.31 509 15200 (1994) 56 (1957) 717 81 105 167 190 283 628 835 1440 2120
2020-11-15 00:30 5.31 509 15200 (1994) 56 (1957) 717 81 105 167 190 283 628 835 1440 2120
2020-11-14 23:30 5.33 529 5960 (1994) 52 (1957) 640 80 111 166 203 285 671 896 1460 2460
2020-11-14 22:30 5.31 509 5960 (1994) 52 (1957) 640 80 111 166 203 285 671 896 1460 2460
2020-11-14 21:30 5.30 499 5960 (1994) 52 (1957) 640 80 111 166 203 285 671 896 1460 2460
2020-11-14 20:30 5.31 509 5960 (1994) 52 (1957) 640 80 111 166 203 285 671 896 1460 2460
2020-11-14 19:30 5.31 509 5960 (1994) 52 (1957) 640 80 111 166 203 285 671 896 1460 2460
2020-11-14 18:30 5.31 509 5960 (1994) 52 (1957) 640 80 111 166 203 285 671 896 1460 2460
2020-11-14 17:30 5.31 509 5960 (1994) 52 (1957) 640 80 111 166 203 285 671 896 1460 2460
2020-11-14 16:30 5.31 509 5960 (1994) 52 (1957) 640 80 111 166 203 285 671 896 1460 2460
2020-11-14 15:30 5.32 519 5960 (1994) 52 (1957) 640 80 111 166 203 285 671 896 1460 2460
2020-11-14 14:30 5.32 519 5960 (1994) 52 (1957) 640 80 111 166 203 285 671 896 1460 2460
2020-11-14 13:30 5.33 529 5960 (1994) 52 (1957) 640 80 111 166 203 285 671 896 1460 2460
2020-11-14 12:30 5.33 529 5960 (1994) 52 (1957) 640 80 111 166 203 285 671 896 1460 2460
2020-11-14 11:30 5.33 529 5960 (1994) 52 (1957) 640 80 111 166 203 285 671 896 1460 2460
2020-11-14 10:30 5.34 540 5960 (1994) 52 (1957) 640 80 111 166 203 285 671 896 1460 2460
2020-11-14 09:30 5.33 529 5960 (1994) 52 (1957) 640 80 111 166 203 285 671 896 1460 2460
2020-11-14 08:30 5.32 519 5960 (1994) 52 (1957) 640 80 111 166 203 285 671 896 1460 2460
2020-11-14 07:30 5.30 499 5960 (1994) 52 (1957) 640 80 111 166 203 285 671 896 1460 2460
2020-11-14 06:30 5.30 499 5960 (1994) 52 (1957) 640 80 111 166 203 285 671 896 1460 2460
2020-11-14 05:30 5.30 499 5960 (1994) 52 (1957) 640 80 111 166 203 285 671 896 1460 2460
2020-11-14 04:30 5.31 509 5960 (1994) 52 (1957) 640 80 111 166 203 285 671 896 1460 2460
2020-11-14 03:30 5.30 499 5960 (1994) 52 (1957) 640 80 111 166 203 285 671 896 1460 2460
2020-11-14 02:30 5.31 509 5960 (1994) 52 (1957) 640 80 111 166 203 285 671 896 1460 2460
2020-11-14 01:30 5.30 499 5960 (1994) 52 (1957) 640 80 111 166 203 285 671 896 1460 2460
2020-11-14 00:30 5.31 509 5960 (1994) 52 (1957) 640 80 111 166 203 285 671 896 1460 2460
2020-11-13 23:30 5.31 509 4050 (1975) 56 (1957) 606 81 113 168 195 286 653 912 1610 2320
2020-11-13 22:30 5.31 509 4050 (1975) 56 (1957) 606 81 113 168 195 286 653 912 1610 2320
2020-11-13 21:30 5.31 509 4050 (1975) 56 (1957) 606 81 113 168 195 286 653 912 1610 2320
2020-11-13 20:30 5.31 509 4050 (1975) 56 (1957) 606 81 113 168 195 286 653 912 1610 2320
2020-11-13 19:30 5.31 509 4050 (1975) 56 (1957) 606 81 113 168 195 286 653 912 1610 2320
2020-11-13 18:30 5.30 499 4050 (1975) 56 (1957) 606 81 113 168 195 286 653 912 1610 2320
2020-11-13 17:30 5.30 499 4050 (1975) 56 (1957) 606 81 113 168 195 286 653 912 1610 2320
2020-11-13 16:30 5.30 499 4050 (1975) 56 (1957) 606 81 113 168 195 286 653 912 1610 2320
2020-11-13 15:30 5.30 499 4050 (1975) 56 (1957) 606 81 113 168 195 286 653 912 1610 2320
2020-11-13 14:30 5.30 499 4050 (1975) 56 (1957) 606 81 113 168 195 286 653 912 1610 2320
2020-11-13 13:30 5.30 499 4050 (1975) 56 (1957) 606 81 113 168 195 286 653 912 1610 2320
2020-11-13 12:30 5.30 499 4050 (1975) 56 (1957) 606 81 113 168 195 286 653 912 1610 2320
2020-11-13 11:30 5.32 519 4050 (1975) 56 (1957) 606 81 113 168 195 286 653 912 1610 2320
2020-11-13 10:30 5.33 529 4050 (1975) 56 (1957) 606 81 113 168 195 286 653 912 1610 2320
2020-11-13 09:30 5.32 519 4050 (1975) 56 (1957) 606 81 113 168 195 286 653 912 1610 2320
2020-11-13 08:30 5.33 529 4050 (1975) 56 (1957) 606 81 113 168 195 286 653 912 1610 2320
2020-11-13 07:30 5.34 540 4050 (1975) 56 (1957) 606 81 113 168 195 286 653 912 1610 2320
2020-11-13 06:30 5.33 529 4050 (1975) 56 (1957) 606 81 113 168 195 286 653 912 1610 2320
2020-11-13 05:30 5.33 529 4050 (1975) 56 (1957) 606 81 113 168 195 286 653 912 1610 2320
2020-11-13 04:30 5.33 529 4050 (1975) 56 (1957) 606 81 113 168 195 286 653 912 1610 2320
2020-11-13 03:30 5.33 529 4050 (1975) 56 (1957) 606 81 113 168 195 286 653 912 1610 2320
2020-11-13 02:30 5.34 540 4050 (1975) 56 (1957) 606 81 113 168 195 286 653 912 1610 2320
2020-11-13 01:30 5.33 529 4050 (1975) 56 (1957) 606 81 113 168 195 286 653 912 1610 2320
2020-11-13 00:30 5.33 529 4050 (1975) 56 (1957) 606 81 113 168 195 286 653 912 1610 2320
2020-11-12 23:30 5.34 540 6330 (1975) 59 (1957) 653 81 108 168 184 287 727 937 1580 2890
2020-11-12 22:30 5.34 540 6330 (1975) 59 (1957) 653 81 108 168 184 287 727 937 1580 2890
2020-11-12 21:30 5.33 529 6330 (1975) 59 (1957) 653 81 108 168 184 287 727 937 1580 2890
2020-11-12 20:30 5.33 529 6330 (1975) 59 (1957) 653 81 108 168 184 287 727 937 1580 2890
2020-11-12 19:30 5.33 529 6330 (1975) 59 (1957) 653 81 108 168 184 287 727 937 1580 2890
2020-11-12 18:30 5.34 540 6330 (1975) 59 (1957) 653 81 108 168 184 287 727 937 1580 2890
2020-11-12 17:30 5.33 529 6330 (1975) 59 (1957) 653 81 108 168 184 287 727 937 1580 2890
2020-11-12 16:30 5.33 529 6330 (1975) 59 (1957) 653 81 108 168 184 287 727 937 1580 2890
2020-11-12 15:30 5.32 519 6330 (1975) 59 (1957) 653 81 108 168 184 287 727 937 1580 2890
2020-11-12 14:30 5.34 540 6330 (1975) 59 (1957) 653 81 108 168 184 287 727 937 1580 2890
2020-11-12 13:30 5.34 540 6330 (1975) 59 (1957) 653 81 108 168 184 287 727 937 1580 2890
2020-11-12 12:30 5.35 550 6330 (1975) 59 (1957) 653 81 108 168 184 287 727 937 1580 2890
2020-11-12 11:30 5.36 561 6330 (1975) 59 (1957) 653 81 108 168 184 287 727 937 1580 2890
2020-11-12 10:30 5.35 550 6330 (1975) 59 (1957) 653 81 108 168 184 287 727 937 1580 2890
2020-11-12 09:30 5.35 550 6330 (1975) 59 (1957) 653 81 108 168 184 287 727 937 1580 2890
2020-11-12 08:30 5.34 540 6330 (1975) 59 (1957) 653 81 108 168 184 287 727 937 1580 2890
2020-11-12 07:30 5.35 550 6330 (1975) 59 (1957) 653 81 108 168 184 287 727 937 1580 2890
2020-11-12 06:30 5.37 572 6330 (1975) 59 (1957) 653 81 108 168 184 287 727 937 1580 2890
2020-11-12 05:30 5.36 561 6330 (1975) 59 (1957) 653 81 108 168 184 287 727 937 1580 2890
2020-11-12 04:30 5.36 561 6330 (1975) 59 (1957) 653 81 108 168 184 287 727 937 1580 2890
2020-11-12 03:30 5.35 550 6330 (1975) 59 (1957) 653 81 108 168 184 287 727 937 1580 2890
2020-11-12 02:30 5.36 561 6330 (1975) 59 (1957) 653 81 108 168 184 287 727 937 1580 2890
2020-11-12 01:30 5.38 582 6330 (1975) 59 (1957) 653 81 108 168 184 287 727 937 1580 2890
2020-11-12 00:30 5.38 582 6330 (1975) 59 (1957) 653 81 108 168 184 287 727 937 1580 2890
2020-11-11 23:30 5.38 582 8620 (1947) 63 (1957) 757 82 112 161 174 301 757 888 1830 3690
2020-11-11 22:30 5.37 572 8620 (1947) 63 (1957) 757 82 112 161 174 301 757 888 1830 3690
2020-11-11 21:30 5.37 572 8620 (1947) 63 (1957) 757 82 112 161 174 301 757 888 1830 3690
2020-11-11 20:30 5.37 572 8620 (1947) 63 (1957) 757 82 112 161 174 301 757 888 1830 3690
2020-11-11 19:30 5.36 561 8620 (1947) 63 (1957) 757 82 112 161 174 301 757 888 1830 3690
2020-11-11 18:30 5.37 572 8620 (1947) 63 (1957) 757 82 112 161 174 301 757 888 1830 3690
2020-11-11 17:30 5.35 550 8620 (1947) 63 (1957) 757 82 112 161 174 301 757 888 1830 3690
2020-11-11 16:30 5.35 550 8620 (1947) 63 (1957) 757 82 112 161 174 301 757 888 1830 3690
2020-11-11 15:30 5.35 550 8620 (1947) 63 (1957) 757 82 112 161 174 301 757 888 1830 3690
2020-11-11 14:30 5.35 550 8620 (1947) 63 (1957) 757 82 112 161 174 301 757 888 1830 3690
2020-11-11 13:30 5.36 561 8620 (1947) 63 (1957) 757 82 112 161 174 301 757 888 1830 3690
2020-11-11 12:30 5.36 561 8620 (1947) 63 (1957) 757 82 112 161 174 301 757 888 1830 3690
2020-11-11 11:30 5.36 561 8620 (1947) 63 (1957) 757 82 112 161 174 301 757 888 1830 3690
2020-11-11 10:30 5.38 582 8620 (1947) 63 (1957) 757 82 112 161 174 301 757 888 1830 3690
2020-11-11 09:30 5.38 582 8620 (1947) 63 (1957) 757 82 112 161 174 301 757 888 1830 3690
2020-11-11 08:30 5.39 593 8620 (1947) 63 (1957) 757 82 112 161 174 301 757 888 1830 3690
2020-11-11 07:30 5.40 605 8620 (1947) 63 (1957) 757 82 112 161 174 301 757 888 1830 3690
2020-11-11 06:30 5.39 593 8620 (1947) 63 (1957) 757 82 112 161 174 301 757 888 1830 3690
2020-11-11 05:30 5.39 593 8620 (1947) 63 (1957) 757 82 112 161 174 301 757 888 1830 3690
2020-11-11 04:30 5.39 593 8620 (1947) 63 (1957) 757 82 112 161 174 301 757 888 1830 3690
2020-11-11 03:30 5.39 593 8620 (1947) 63 (1957) 757 82 112 161 174 301 757 888 1830 3690
2020-11-11 02:30 5.40 605 8620 (1947) 63 (1957) 757 82 112 161 174 301 757 888 1830 3690
2020-11-11 01:30 5.39 593 8620 (1947) 63 (1957) 757 82 112 161 174 301 757 888 1830 3690
2020-11-11 00:30 5.39 593 8620 (1947) 63 (1957) 757 82 112 161 174 301 757 888 1830 3690
2020-11-10 23:30 5.39 593 7780 (2012) 64 (1964) 781 82 110 161 174 299 794 918 2170 3320
2020-11-10 22:30 5.39 593 7780 (2012) 64 (1964) 781 82 110 161 174 299 794 918 2170 3320
2020-11-10 21:30 5.40 605 7780 (2012) 64 (1964) 781 82 110 161 174 299 794 918 2170 3320
2020-11-10 20:30 5.40 605 7780 (2012) 64 (1964) 781 82 110 161 174 299 794 918 2170 3320
2020-11-10 19:30 5.39 593 7780 (2012) 64 (1964) 781 82 110 161 174 299 794 918 2170 3320
2020-11-10 18:30 5.39 593 7780 (2012) 64 (1964) 781 82 110 161 174 299 794 918 2170 3320
2020-11-10 17:30 5.41 616 7780 (2012) 64 (1964) 781 82 110 161 174 299 794 918 2170 3320
2020-11-10 16:30 5.41 616 7780 (2012) 64 (1964) 781 82 110 161 174 299 794 918 2170 3320
2020-11-10 15:30 5.41 616 7780 (2012) 64 (1964) 781 82 110 161 174 299 794 918 2170 3320
2020-11-10 14:30 5.42 627 7780 (2012) 64 (1964) 781 82 110 161 174 299 794 918 2170 3320
2020-11-10 13:30 5.41 616 7780 (2012) 64 (1964) 781 82 110 161 174 299 794 918 2170 3320
2020-11-10 12:30 5.42 627 7780 (2012) 64 (1964) 781 82 110 161 174 299 794 918 2170 3320
2020-11-10 11:30 5.40 605 7780 (2012) 64 (1964) 781 82 110 161 174 299 794 918 2170 3320
2020-11-10 10:30 5.41 616 7780 (2012) 64 (1964) 781 82 110 161 174 299 794 918 2170 3320
2020-11-10 09:30 5.42 627 7780 (2012) 64 (1964) 781 82 110 161 174 299 794 918 2170 3320
2020-11-10 08:30 5.42 627 7780 (2012) 64 (1964) 781 82 110 161 174 299 794 918 2170 3320
2020-11-10 07:30 5.42 627 7780 (2012) 64 (1964) 781 82 110 161 174 299 794 918 2170 3320
2020-11-10 06:30 5.42 627 7780 (2012) 64 (1964) 781 82 110 161 174 299 794 918 2170 3320
2020-11-10 05:30 5.42 627 7780 (2012) 64 (1964) 781 82 110 161 174 299 794 918 2170 3320
2020-11-10 04:30 5.43 639 7780 (2012) 64 (1964) 781 82 110 161 174 299 794 918 2170 3320
2020-11-10 03:30 5.44 651 7780 (2012) 64 (1964) 781 82 110 161 174 299 794 918 2170 3320
2020-11-10 02:30 5.42 627 7780 (2012) 64 (1964) 781 82 110 161 174 299 794 918 2170 3320
2020-11-10 01:30 5.43 639 7780 (2012) 64 (1964) 781 82 110 161 174 299 794 918 2170 3320
2020-11-10 00:30 5.43 639 7780 (2012) 64 (1964) 781 82 110 161 174 299 794 918 2170 3320
2020-11-09 23:30 5.42 627 10000 (1943) 60 (1964) 935 82 105 161 173 306 764 1050 2080 5930
2020-11-09 22:30 5.43 639 10000 (1943) 60 (1964) 935 82 105 161 173 306 764 1050 2080 5930
2020-11-09 21:30 5.43 639 10000 (1943) 60 (1964) 935 82 105 161 173 306 764 1050 2080 5930
2020-11-09 20:30 5.43 639 10000 (1943) 60 (1964) 935 82 105 161 173 306 764 1050 2080 5930
2020-11-09 19:30 5.43 639 10000 (1943) 60 (1964) 935 82 105 161 173 306 764 1050 2080 5930
2020-11-09 18:30 5.44 651 10000 (1943) 60 (1964) 935 82 105 161 173 306 764 1050 2080 5930
2020-11-09 17:30 5.43 639 10000 (1943) 60 (1964) 935 82 105 161 173 306 764 1050 2080 5930
2020-11-09 16:30 5.43 639 10000 (1943) 60 (1964) 935 82 105 161 173 306 764 1050 2080 5930
2020-11-09 15:30 5.45 662 10000 (1943) 60 (1964) 935 82 105 161 173 306 764 1050 2080 5930
2020-11-09 14:30 5.46 674 10000 (1943) 60 (1964) 935 82 105 161 173 306 764 1050 2080 5930
2020-11-09 13:30 5.45 662 10000 (1943) 60 (1964) 935 82 105 161 173 306 764 1050 2080 5930
2020-11-09 12:30 5.46 674 10000 (1943) 60 (1964) 935 82 105 161 173 306 764 1050 2080 5930
2020-11-09 11:30 5.46 674 10000 (1943) 60 (1964) 935 82 105 161 173 306 764 1050 2080 5930
2020-11-09 10:30 5.47 687 10000 (1943) 60 (1964) 935 82 105 161 173 306 764 1050 2080 5930
2020-11-09 09:30 5.46 674 10000 (1943) 60 (1964) 935 82 105 161 173 306 764 1050 2080 5930
2020-11-09 08:30 5.46 674 10000 (1943) 60 (1964) 935 82 105 161 173 306 764 1050 2080 5930
2020-11-09 07:30 5.47 687 10000 (1943) 60 (1964) 935 82 105 161 173 306 764 1050 2080 5930
2020-11-09 06:30 5.47 687 10000 (1943) 60 (1964) 935 82 105 161 173 306 764 1050 2080 5930
2020-11-09 05:30 5.48 699 10000 (1943) 60 (1964) 935 82 105 161 173 306 764 1050 2080 5930
2020-11-09 04:30 5.47 687 10000 (1943) 60 (1964) 935 82 105 161 173 306 764 1050 2080 5930
2020-11-09 03:30 5.48 699 10000 (1943) 60 (1964) 935 82 105 161 173 306 764 1050 2080 5930
2020-11-09 02:30 5.48 699 10000 (1943) 60 (1964) 935 82 105 161 173 306 764 1050 2080 5930
2020-11-09 01:30 5.47 687 10000 (1943) 60 (1964) 935 82 105 161 173 306 764 1050 2080 5930
2020-11-09 00:30 5.47 687 10000 (1943) 60 (1964) 935 82 105 161 173 306 764 1050 2080 5930
2020-11-08 23:30 5.50 724 15300 (2020) 58 (1964) 1080 82 109 160 174 304 860 1080 2000 5870
2020-11-08 22:30 5.49 711 15300 (2020) 58 (1964) 1080 82 109 160 174 304 860 1080 2000 5870
2020-11-08 21:30 5.49 711 15300 (2020) 58 (1964) 1080 82 109 160 174 304 860 1080 2000 5870
2020-11-08 20:30 5.49 711 15300 (2020) 58 (1964) 1080 82 109 160 174 304 860 1080 2000 5870
2020-11-08 19:30 5.49 711 15300 (2020) 58 (1964) 1080 82 109 160 174 304 860 1080 2000 5870
2020-11-08 18:30 5.49 711 15300 (2020) 58 (1964) 1080 82 109 160 174 304 860 1080 2000 5870
2020-11-08 17:30 5.49 711 15300 (2020) 58 (1964) 1080 82 109 160 174 304 860 1080 2000 5870
2020-11-08 16:30 5.49 711 15300 (2020) 58 (1964) 1080 82 109 160 174 304 860 1080 2000 5870
2020-11-08 15:30 5.49 711 15300 (2020) 58 (1964) 1080 82 109 160 174 304 860 1080 2000 5870
2020-11-08 14:30 5.49 711 15300 (2020) 58 (1964) 1080 82 109 160 174 304 860 1080 2000 5870
2020-11-08 13:30 5.50 724 15300 (2020) 58 (1964) 1080 82 109 160 174 304 860 1080 2000 5870
2020-11-08 12:30 5.52 749 15300 (2020) 58 (1964) 1080 82 109 160 174 304 860 1080 2000 5870
2020-11-08 11:30 5.52 749 15300 (2020) 58 (1964) 1080 82 109 160 174 304 860 1080 2000 5870
2020-11-08 10:30 5.52 749 15300 (2020) 58 (1964) 1080 82 109 160 174 304 860 1080 2000 5870
2020-11-08 09:30 5.51 736 15300 (2020) 58 (1964) 1080 82 109 160 174 304 860 1080 2000 5870
2020-11-08 08:30 5.51 736 15300 (2020) 58 (1964) 1080 82 109 160 174 304 860 1080 2000 5870
2020-11-08 07:30 5.52 749 15300 (2020) 58 (1964) 1080 82 109 160 174 304 860 1080 2000 5870
2020-11-08 06:30 5.53 762 15300 (2020) 58 (1964) 1080 82 109 160 174 304 860 1080 2000 5870
2020-11-08 05:30 5.53 762 15300 (2020) 58 (1964) 1080 82 109 160 174 304 860 1080 2000 5870
2020-11-08 04:30 5.53 762 15300 (2020) 58 (1964) 1080 82 109 160 174 304 860 1080 2000 5870
2020-11-08 03:30 5.53 762 15300 (2020) 58 (1964) 1080 82 109 160 174 304 860 1080 2000 5870
2020-11-08 02:30 5.54 775 15300 (2020) 58 (1964) 1080 82 109 160 174 304 860 1080 2000 5870
2020-11-08 01:30 5.53 762 15300 (2020) 58 (1964) 1080 82 109 160 174 304 860 1080 2000 5870
2020-11-08 00:30 5.55 789 15300 (2020) 58 (1964) 1080 82 109 160 174 304 860 1080 2000 5870
2020-11-07 23:30 5.53 762 9020 (1943) 56 (1964) 885 82 106 163 179 279 783 1230 1910 5270
2020-11-07 22:30 5.54 775 9020 (1943) 56 (1964) 885 82 106 163 179 279 783 1230 1910 5270
2020-11-07 21:30 5.56 802 9020 (1943) 56 (1964) 885 82 106 163 179 279 783 1230 1910 5270
2020-11-07 20:30 5.56 802 9020 (1943) 56 (1964) 885 82 106 163 179 279 783 1230 1910 5270
2020-11-07 19:30 5.55 789 9020 (1943) 56 (1964) 885 82 106 163 179 279 783 1230 1910 5270
2020-11-07 18:30 5.55 789 9020 (1943) 56 (1964) 885 82 106 163 179 279 783 1230 1910 5270
2020-11-07 17:30 5.56 802 9020 (1943) 56 (1964) 885 82 106 163 179 279 783 1230 1910 5270
2020-11-07 16:30 5.56 802 9020 (1943) 56 (1964) 885 82 106 163 179 279 783 1230 1910 5270
2020-11-07 15:30 5.55 789 9020 (1943) 56 (1964) 885 82 106 163 179 279 783 1230 1910 5270
2020-11-07 14:30 5.56 802 9020 (1943) 56 (1964) 885 82 106 163 179 279 783 1230 1910 5270
2020-11-07 13:30 5.56 802 9020 (1943) 56 (1964) 885 82 106 163 179 279 783 1230 1910 5270
2020-11-07 12:30 5.57 816 9020 (1943) 56 (1964) 885 82 106 163 179 279 783 1230 1910 5270
2020-11-07 11:30 5.59 843 9020 (1943) 56 (1964) 885 82 106 163 179 279 783 1230 1910 5270
2020-11-07 10:30 5.57 816 9020 (1943) 56 (1964) 885 82 106 163 179 279 783 1230 1910 5270
2020-11-07 09:30 5.58 829 9020 (1943) 56 (1964) 885 82 106 163 179 279 783 1230 1910 5270
2020-11-07 08:30 5.60 857 9020 (1943) 56 (1964) 885 82 106 163 179 279 783 1230 1910 5270
2020-11-07 07:30 5.60 857 9020 (1943) 56 (1964) 885 82 106 163 179 279 783 1230 1910 5270
2020-11-07 06:30 5.61 871 9020 (1943) 56 (1964) 885 82 106 163 179 279 783 1230 1910 5270
2020-11-07 05:30 5.62 886 9020 (1943) 56 (1964) 885 82 106 163 179 279 783 1230 1910 5270
2020-11-07 04:30 5.61 871 9020 (1943) 56 (1964) 885 82 106 163 179 279 783 1230 1910 5270
2020-11-07 03:30 5.61 871 9020 (1943) 56 (1964) 885 82 106 163 179 279 783 1230 1910 5270
2020-11-07 02:30 5.64 915 9020 (1943) 56 (1964) 885 82 106 163 179 279 783 1230 1910 5270
2020-11-07 01:30 5.64 915 9020 (1943) 56 (1964) 885 82 106 163 179 279 783 1230 1910 5270
2020-11-07 00:30 5.63 900 9020 (1943) 56 (1964) 885 82 106 163 179 279 783 1230 1910 5270
2020-11-06 23:30 5.64 915 12100 (1995) 56 (1964) 1010 83 112 169 181 284 817 1210 2190 5500
2020-11-06 22:30 5.64 915 12100 (1995) 56 (1964) 1010 83 112 169 181 284 817 1210 2190 5500
2020-11-06 21:30 5.63 900 12100 (1995) 56 (1964) 1010 83 112 169 181 284 817 1210 2190 5500
2020-11-06 20:30 5.64 915 12100 (1995) 56 (1964) 1010 83 112 169 181 284 817 1210 2190 5500
2020-11-06 19:30 5.63 900 12100 (1995) 56 (1964) 1010 83 112 169 181 284 817 1210 2190 5500
2020-11-06 18:30 5.63 900 12100 (1995) 56 (1964) 1010 83 112 169 181 284 817 1210 2190 5500
2020-11-06 17:30 5.64 915 12100 (1995) 56 (1964) 1010 83 112 169 181 284 817 1210 2190 5500
2020-11-06 16:30 5.62 886 12100 (1995) 56 (1964) 1010 83 112 169 181 284 817 1210 2190 5500
2020-11-06 15:30 5.65 929 12100 (1995) 56 (1964) 1010 83 112 169 181 284 817 1210 2190 5500
2020-11-06 14:30 5.66 944 12100 (1995) 56 (1964) 1010 83 112 169 181 284 817 1210 2190 5500
2020-11-06 13:30 5.67 959 12100 (1995) 56 (1964) 1010 83 112 169 181 284 817 1210 2190 5500
2020-11-06 12:30 5.66 944 12100 (1995) 56 (1964) 1010 83 112 169 181 284 817 1210 2190 5500
2020-11-06 11:30 5.67 959 12100 (1995) 56 (1964) 1010 83 112 169 181 284 817 1210 2190 5500
2020-11-06 10:30 5.67 959 12100 (1995) 56 (1964) 1010 83 112 169 181 284 817 1210 2190 5500
2020-11-06 09:30 5.66 944 12100 (1995) 56 (1964) 1010 83 112 169 181 284 817 1210 2190 5500
2020-11-06 08:30 5.69 990 12100 (1995) 56 (1964) 1010 83 112 169 181 284 817 1210 2190 5500
2020-11-06 07:30 5.71 1020 12100 (1995) 56 (1964) 1010 83 112 169 181 284 817 1210 2190 5500
2020-11-06 06:30 5.70 1010 12100 (1995) 56 (1964) 1010 83 112 169 181 284 817 1210 2190 5500
2020-11-06 05:30 5.70 1010 12100 (1995) 56 (1964) 1010 83 112 169 181 284 817 1210 2190 5500
2020-11-06 04:30 5.71 1020 12100 (1995) 56 (1964) 1010 83 112 169 181 284 817 1210 2190 5500
2020-11-06 03:30 5.70 1010 12100 (1995) 56 (1964) 1010 83 112 169 181 284 817 1210 2190 5500
2020-11-06 02:30 5.70 1010 12100 (1995) 56 (1964) 1010 83 112 169 181 284 817 1210 2190 5500
2020-11-06 01:30 5.72 1040 12100 (1995) 56 (1964) 1010 83 112 169 181 284 817 1210 2190 5500
2020-11-06 00:30 5.73 1050 12100 (1995) 56 (1964) 1010 83 112 169 181 284 817 1210 2190 5500
2020-11-05 23:30 5.72 1040 25900 (1975) 50 (1964) 1150 84 114 164 182 284 912 1460 2320 2980
2020-11-05 22:30 5.75 1070 25900 (1975) 50 (1964) 1150 84 114 164 182 284 912 1460 2320 2980
2020-11-05 21:30 5.74 1060 25900 (1975) 50 (1964) 1150 84 114 164 182 284 912 1460 2320 2980
2020-11-05 20:30 5.76 1070 25900 (1975) 50 (1964) 1150 84 114 164 182 284 912 1460 2320 2980
2020-11-05 19:30 5.75 1070 25900 (1975) 50 (1964) 1150 84 114 164 182 284 912 1460 2320 2980
2020-11-05 18:30 5.75 1070 25900 (1975) 50 (1964) 1150 84 114 164 182 284 912 1460 2320 2980
2020-11-05 17:30 5.74 1060 25900 (1975) 50 (1964) 1150 84 114 164 182 284 912 1460 2320 2980
2020-11-05 16:30 5.76 1070 25900 (1975) 50 (1964) 1150 84 114 164 182 284 912 1460 2320 2980
2020-11-05 15:30 5.76 1070 25900 (1975) 50 (1964) 1150 84 114 164 182 284 912 1460 2320 2980
2020-11-05 14:30 5.78 1090 25900 (1975) 50 (1964) 1150 84 114 164 182 284 912 1460 2320 2980
2020-11-05 13:30 5.77 1080 25900 (1975) 50 (1964) 1150 84 114 164 182 284 912 1460 2320 2980
2020-11-05 12:30 5.78 1090 25900 (1975) 50 (1964) 1150 84 114 164 182 284 912 1460 2320 2980
2020-11-05 11:30 5.78 1090 25900 (1975) 50 (1964) 1150 84 114 164 182 284 912 1460 2320 2980
2020-11-05 10:30 5.79 1090 25900 (1975) 50 (1964) 1150 84 114 164 182 284 912 1460 2320 2980
2020-11-05 09:30 5.81 1110 25900 (1975) 50 (1964) 1150 84 114 164 182 284 912 1460 2320 2980
2020-11-05 08:30 5.81 1110 25900 (1975) 50 (1964) 1150 84 114 164 182 284 912 1460 2320 2980
2020-11-05 07:30 5.83 1120 25900 (1975) 50 (1964) 1150 84 114 164 182 284 912 1460 2320 2980
2020-11-05 06:30 5.81 1110 25900 (1975) 50 (1964) 1150 84 114 164 182 284 912 1460 2320 2980
2020-11-05 05:30 5.83 1120 25900 (1975) 50 (1964) 1150 84 114 164 182 284 912 1460 2320 2980
2020-11-05 04:30 5.83 1120 25900 (1975) 50 (1964) 1150 84 114 164 182 284 912 1460 2320 2980
2020-11-05 03:30 5.86 1140 25900 (1975) 50 (1964) 1150 84 114 164 182 284 912 1460 2320 2980
2020-11-05 02:30 5.84 1130 25900 (1975) 50 (1964) 1150 84 114 164 182 284 912 1460 2320 2980
2020-11-05 01:30 5.84 1130 25900 (1975) 50 (1964) 1150 84 114 164 182 284 912 1460 2320 2980
2020-11-05 00:30 5.86 1140 25900 (1975) 50 (1964) 1150 84 114 164 182 284 912 1460 2320 2980
2020-11-04 23:30 5.87 1150 23900 (1975) 52 (1964) 1040 81 116 167 183 292 917 1140 2650 3200
2020-11-04 22:30 5.88 1160 23900 (1975) 52 (1964) 1040 81 116 167 183 292 917 1140 2650 3200
2020-11-04 21:30 5.87 1150 23900 (1975) 52 (1964) 1040 81 116 167 183 292 917 1140 2650 3200
2020-11-04 20:30 5.88 1160 23900 (1975) 52 (1964) 1040 81 116 167 183 292 917 1140 2650 3200
2020-11-04 19:30 5.88 1160 23900 (1975) 52 (1964) 1040 81 116 167 183 292 917 1140 2650 3200
2020-11-04 18:30 5.89 1160 23900 (1975) 52 (1964) 1040 81 116 167 183 292 917 1140 2650 3200
2020-11-04 17:30 5.89 1160 23900 (1975) 52 (1964) 1040 81 116 167 183 292 917 1140 2650 3200
2020-11-04 16:30 5.90 1170 23900 (1975) 52 (1964) 1040 81 116 167 183 292 917 1140 2650 3200
2020-11-04 15:30 5.91 1180 23900 (1975) 52 (1964) 1040 81 116 167 183 292 917 1140 2650 3200
2020-11-04 14:30 5.91 1180 23900 (1975) 52 (1964) 1040 81 116 167 183 292 917 1140 2650 3200
2020-11-04 13:30 5.93 1190 23900 (1975) 52 (1964) 1040 81 116 167 183 292 917 1140 2650 3200
2020-11-04 12:30 5.95 1210 23900 (1975) 52 (1964) 1040 81 116 167 183 292 917 1140 2650 3200
2020-11-04 11:30 5.94 1200 23900 (1975) 52 (1964) 1040 81 116 167 183 292 917 1140 2650 3200
2020-11-04 10:30 5.94 1200 23900 (1975) 52 (1964) 1040 81 116 167 183 292 917 1140 2650 3200
2020-11-04 09:30 5.96 1210 23900 (1975) 52 (1964) 1040 81 116 167 183 292 917 1140 2650 3200
2020-11-04 08:30 5.94 1200 23900 (1975) 52 (1964) 1040 81 116 167 183 292 917 1140 2650 3200
2020-11-04 07:30 5.96 1210 23900 (1975) 52 (1964) 1040 81 116 167 183 292 917 1140 2650 3200
2020-11-04 06:30 5.97 1220 23900 (1975) 52 (1964) 1040 81 116 167 183 292 917 1140 2650 3200
2020-11-04 05:30 5.97 1220 23900 (1975) 52 (1964) 1040 81 116 167 183 292 917 1140 2650 3200
2020-11-04 04:30 5.99 1230 23900 (1975) 52 (1964) 1040 81 116 167 183 292 917 1140 2650 3200
2020-11-04 03:30 6.00 1240 23900 (1975) 52 (1964) 1040 81 116 167 183 292 917 1140 2650 3200
2020-11-04 02:30 6.00 1240 23900 (1975) 52 (1964) 1040 81 116 167 183 292 917 1140 2650 3200
2020-11-04 01:30 6.01 1250 23900 (1975) 52 (1964) 1040 81 116 167 183 292 917 1140 2650 3200
2020-11-04 00:30 6.00 1240 23900 (1975) 52 (1964) 1040 81 116 167 183 292 917 1140 2650 3200
2020-11-03 23:30 6.02 1260 7630 (1973) 40 (1957) 830 84 120 168 186 289 744 1110 2600 3740
2020-11-03 22:30 6.03 1260 7630 (1973) 40 (1957) 830 84 120 168 186 289 744 1110 2600 3740
2020-11-03 21:30 6.01 1250 7630 (1973) 40 (1957) 830 84 120 168 186 289 744 1110 2600 3740
2020-11-03 20:30 6.04 1270 7630 (1973) 40 (1957) 830 84 120 168 186 289 744 1110 2600 3740
2020-11-03 19:30 6.02 1260 7630 (1973) 40 (1957) 830 84 120 168 186 289 744 1110 2600 3740
2020-11-03 18:30 6.05 1280 7630 (1973) 40 (1957) 830 84 120 168 186 289 744 1110 2600 3740
2020-11-03 17:30 6.05 1280 7630 (1973) 40 (1957) 830 84 120 168 186 289 744 1110 2600 3740
2020-11-03 16:30 6.04 1270 7630 (1973) 40 (1957) 830 84 120 168 186 289 744 1110 2600 3740
2020-11-03 15:30 6.06 1290 7630 (1973) 40 (1957) 830 84 120 168 186 289 744 1110 2600 3740
2020-11-03 14:30 6.06 1290 7630 (1973) 40 (1957) 830 84 120 168 186 289 744 1110 2600 3740
2020-11-03 13:30 6.08 1300 7630 (1973) 40 (1957) 830 84 120 168 186 289 744 1110 2600 3740
2020-11-03 12:30 6.09 1310 7630 (1973) 40 (1957) 830 84 120 168 186 289 744 1110 2600 3740
2020-11-03 11:30 6.10 1320 7630 (1973) 40 (1957) 830 84 120 168 186 289 744 1110 2600 3740
2020-11-03 10:30 6.11 1320 7630 (1973) 40 (1957) 830 84 120 168 186 289 744 1110 2600 3740
2020-11-03 09:30 6.12 1330 7630 (1973) 40 (1957) 830 84 120 168 186 289 744 1110 2600 3740
2020-11-03 08:30 6.13 1340 7630 (1973) 40 (1957) 830 84 120 168 186 289 744 1110 2600 3740
2020-11-03 07:30 6.15 1360 7630 (1973) 40 (1957) 830 84 120 168 186 289 744 1110 2600 3740
2020-11-03 06:30 6.16 1360 7630 (1973) 40 (1957) 830 84 120 168 186 289 744 1110 2600 3740
2020-11-03 05:30 6.16 1360 7630 (1973) 40 (1957) 830 84 120 168 186 289 744 1110 2600 3740
2020-11-03 04:30 6.19 1390 7630 (1973) 40 (1957) 830 84 120 168 186 289 744 1110 2600 3740
2020-11-03 03:30 6.19 1390 7630 (1973) 40 (1957) 830 84 120 168 186 289 744 1110 2600 3740
2020-11-03 02:30 6.19 1390 7630 (1973) 40 (1957) 830 84 120 168 186 289 744 1110 2600 3740
2020-11-03 01:30 6.20 1390 7630 (1973) 40 (1957) 830 84 120 168 186 289 744 1110 2600 3740
2020-11-02 23:30 6.22 1410 8890 (1942) 37 (1957) 929 85 110 171 177 283 663 1030 2600 5520
2020-11-02 22:30 6.24 1430 8890 (1942) 37 (1957) 929 85 110 171 177 283 663 1030 2600 5520
2020-11-02 21:30 6.24 1430 8890 (1942) 37 (1957) 929 85 110 171 177 283 663 1030 2600 5520
2020-11-02 20:30 6.27 1450 8890 (1942) 37 (1957) 929 85 110 171 177 283 663 1030 2600 5520
2020-11-02 19:30 6.25 1430 8890 (1942) 37 (1957) 929 85 110 171 177 283 663 1030 2600 5520
2020-11-02 18:30 6.28 1460 8890 (1942) 37 (1957) 929 85 110 171 177 283 663 1030 2600 5520
2020-11-02 17:30 6.28 1460 8890 (1942) 37 (1957) 929 85 110 171 177 283 663 1030 2600 5520
2020-11-02 16:30 6.28 1460 8890 (1942) 37 (1957) 929 85 110 171 177 283 663 1030 2600 5520
2020-11-02 15:30 6.31 1480 8890 (1942) 37 (1957) 929 85 110 171 177 283 663 1030 2600 5520
2020-11-02 14:30 6.32 1490 8890 (1942) 37 (1957) 929 85 110 171 177 283 663 1030 2600 5520
2020-11-02 13:30 6.34 1510 8890 (1942) 37 (1957) 929 85 110 171 177 283 663 1030 2600 5520
2020-11-02 12:30 6.38 1540 8890 (1942) 37 (1957) 929 85 110 171 177 283 663 1030 2600 5520
2020-11-02 11:30 6.36 1530 8890 (1942) 37 (1957) 929 85 110 171 177 283 663 1030 2600 5520
2020-11-02 10:30 6.39 1550 8890 (1942) 37 (1957) 929 85 110 171 177 283 663 1030 2600 5520
2020-11-02 09:30 6.40 1560 8890 (1942) 37 (1957) 929 85 110 171 177 283 663 1030 2600 5520
2020-11-02 08:30 6.42 1580 8890 (1942) 37 (1957) 929 85 110 171 177 283 663 1030 2600 5520
2020-11-02 07:30 6.40 1560 8890 (1942) 37 (1957) 929 85 110 171 177 283 663 1030 2600 5520
2020-11-02 06:30 6.44 1590 8890 (1942) 37 (1957) 929 85 110 171 177 283 663 1030 2600 5520
2020-11-02 05:30 6.47 1620 8890 (1942) 37 (1957) 929 85 110 171 177 283 663 1030 2600 5520
2020-11-02 04:30 6.52 1660 8890 (1942) 37 (1957) 929 85 110 171 177 283 663 1030 2600 5520
2020-11-02 03:30 6.52 1660 8890 (1942) 37 (1957) 929 85 110 171 177 283 663 1030 2600 5520
2020-11-02 02:30 6.51 1650 8890 (1942) 37 (1957) 929 85 110 171 177 283 663 1030 2600 5520
2020-11-02 01:30 6.53 1670 8890 (1942) 37 (1957) 929 85 110 171 177 283 663 1030 2600 5520
2020-11-02 00:30 6.53 1670 8890 (1942) 37 (1957) 929 85 110 171 177 283 663 1030 2600 5520
2020-11-01 23:30 6.55 1690 25000 (1942) 31 (1957) 1050 86 106 172 179 264 625 821 3020 4930
2020-11-01 22:30 6.55 1690 25000 (1942) 31 (1957) 1050 86 106 172 179 264 625 821 3020 4930
2020-11-01 21:30 6.59 1730 25000 (1942) 31 (1957) 1050 86 106 172 179 264 625 821 3020 4930
2020-11-01 20:30 6.60 1740 25000 (1942) 31 (1957) 1050 86 106 172 179 264 625 821 3020 4930
2020-11-01 19:30 6.64 1770 25000 (1942) 31 (1957) 1050 86 106 172 179 264 625 821 3020 4930
2020-11-01 18:30 6.64 1770 25000 (1942) 31 (1957) 1050 86 106 172 179 264 625 821 3020 4930
2020-11-01 17:30 6.68 1810 25000 (1942) 31 (1957) 1050 86 106 172 179 264 625 821 3020 4930
2020-11-01 16:30 6.65 1780 25000 (1942) 31 (1957) 1050 86 106 172 179 264 625 821 3020 4930
2020-11-01 15:30 6.69 1820 25000 (1942) 31 (1957) 1050 86 106 172 179 264 625 821 3020 4930
2020-11-01 14:30 6.68 1810 25000 (1942) 31 (1957) 1050 86 106 172 179 264 625 821 3020 4930
2020-11-01 07:30 6.93 2060 25000 (1942) 31 (1957) 1050 86 106 172 179 264 625 821 3020 4930
2020-11-01 06:30 6.95 2080 25000 (1942) 31 (1957) 1050 86 106 172 179 264 625 821 3020 4930
2020-11-01 05:30 6.96 2090 25000 (1942) 31 (1957) 1050 86 106 172 179 264 625 821 3020 4930
2020-11-01 03:30 6.99 2120 25000 (1942) 31 (1957) 1050 86 106 172 179 264 625 821 3020 4930
2020-11-01 02:30 7.05 2190 25000 (1942) 31 (1957) 1050 86 106 172 179 264 625 821 3020 4930
2020-11-01 00:30 7.09 2240 25000 (1942) 31 (1957) 1050 86 106 172 179 264 625 821 3020 4930
2020-10-31 23:30 7.16 2330 21500 (1942) 31 (1957) 1070 89 110 156 180 262 527 676 1560 5780
2020-10-31 22:30 7.18 2350 21500 (1942) 31 (1957) 1070 89 110 156 180 262 527 676 1560 5780
2020-10-31 21:30 7.25 2440 21500 (1942) 31 (1957) 1070 89 110 156 180 262 527 676 1560 5780
2020-10-31 20:30 7.29 2490 21500 (1942) 31 (1957) 1070 89 110 156 180 262 527 676 1560 5780
2020-10-31 19:30 7.31 2520 21500 (1942) 31 (1957) 1070 89 110 156 180 262 527 676 1560 5780
2020-10-31 18:30 7.37 2590 21500 (1942) 31 (1957) 1070 89 110 156 180 262 527 676 1560 5780
2020-10-31 17:30 7.44 2690 21500 (1942) 31 (1957) 1070 89 110 156 180 262 527 676 1560 5780
2020-10-31 16:30 7.44 2690 21500 (1942) 31 (1957) 1070 89 110 156 180 262 527 676 1560 5780
2020-10-31 15:30 7.51 2780 21500 (1942) 31 (1957) 1070 89 110 156 180 262 527 676 1560 5780
2020-10-31 14:30 7.51 2780 21500 (1942) 31 (1957) 1070 89 110 156 180 262 527 676 1560 5780
2020-10-31 13:30 7.59 2890 21500 (1942) 31 (1957) 1070 89 110 156 180 262 527 676 1560 5780
2020-10-31 12:30 7.68 3020 21500 (1942) 31 (1957) 1070 89 110 156 180 262 527 676 1560 5780
2020-10-31 11:30 7.71 3060 21500 (1942) 31 (1957) 1070 89 110 156 180 262 527 676 1560 5780
2020-10-31 10:30 7.83 3230 21500 (1942) 31 (1957) 1070 89 110 156 180 262 527 676 1560 5780
2020-10-31 09:30 7.86 3280 21500 (1942) 31 (1957) 1070 89 110 156 180 262 527 676 1560 5780
2020-10-31 08:30 8.01 3500 21500 (1942) 31 (1957) 1070 89 110 156 180 262 527 676 1560 5780
2020-10-31 07:30 8.10 3640 21500 (1942) 31 (1957) 1070 89 110 156 180 262 527 676 1560 5780
2020-10-31 06:30 8.18 3760 21500 (1942) 31 (1957) 1070 89 110 156 180 262 527 676 1560 5780
2020-10-31 05:30 8.22 3820 21500 (1942) 31 (1957) 1070 89 110 156 180 262 527 676 1560 5780
2020-10-31 04:30 8.32 3970 21500 (1942) 31 (1957) 1070 89 110 156 180 262 527 676 1560 5780
2020-10-31 03:30 8.43 4150 21500 (1942) 31 (1957) 1070 89 110 156 180 262 527 676 1560 5780
2020-10-31 02:30 8.57 4370 21500 (1942) 31 (1957) 1070 89 110 156 180 262 527 676 1560 5780
2020-10-31 01:30 8.66 4510 21500 (1942) 31 (1957) 1070 89 110 156 180 262 527 676 1560 5780
2020-10-31 00:30 8.77 4690 21500 (1942) 31 (1957) 1070 89 110 156 180 262 527 676 1560 5780
2020-10-30 23:30 8.83 4790 7500 (1942) 26 (1957) 642 88 105 154 180 266 479 598 1220 4300
2020-10-30 22:30 8.92 4930 7500 (1942) 26 (1957) 642 88 105 154 180 266 479 598 1220 4300
2020-10-30 21:30 8.99 5040 7500 (1942) 26 (1957) 642 88 105 154 180 266 479 598 1220 4300
2020-10-30 20:30 9.07 5170 7500 (1942) 26 (1957) 642 88 105 154 180 266 479 598 1220 4300
2020-10-30 19:30 9.07 5170 7500 (1942) 26 (1957) 642 88 105 154 180 266 479 598 1220 4300
2020-10-30 18:30 9.06 5150 7500 (1942) 26 (1957) 642 88 105 154 180 266 479 598 1220 4300
2020-10-30 17:30 9.04 5120 7500 (1942) 26 (1957) 642 88 105 154 180 266 479 598 1220 4300
2020-10-30 16:30 9.03 5110 7500 (1942) 26 (1957) 642 88 105 154 180 266 479 598 1220 4300
2020-10-30 15:30 8.99 5040 7500 (1942) 26 (1957) 642 88 105 154 180 266 479 598 1220 4300
2020-10-30 14:30 8.98 5020 7500 (1942) 26 (1957) 642 88 105 154 180 266 479 598 1220 4300
2020-10-30 13:30 8.99 5040 7500 (1942) 26 (1957) 642 88 105 154 180 266 479 598 1220 4300
2020-10-30 12:30 9.05 5140 7500 (1942) 26 (1957) 642 88 105 154 180 266 479 598 1220 4300
2020-10-30 11:30 9.11 5230 7500 (1942) 26 (1957) 642 88 105 154 180 266 479 598 1220 4300
2020-10-30 10:30 9.21 5390 7500 (1942) 26 (1957) 642 88 105 154 180 266 479 598 1220 4300
2020-10-30 09:30 9.29 5520 7500 (1942) 26 (1957) 642 88 105 154 180 266 479 598 1220 4300
2020-10-30 08:30 9.44 5760 7500 (1942) 26 (1957) 642 88 105 154 180 266 479 598 1220 4300
2020-10-30 07:30 9.60 6050 7500 (1942) 26 (1957) 642 88 105 154 180 266 479 598 1220 4300
2020-10-30 06:30 9.70 6240 7500 (1942) 26 (1957) 642 88 105 154 180 266 479 598 1220 4300
2020-10-30 05:30 9.83 6500 7500 (1942) 26 (1957) 642 88 105 154 180 266 479 598 1220 4300
2020-10-30 04:30 9.92 6680 7500 (1942) 26 (1957) 642 88 105 154 180 266 479 598 1220 4300
2020-10-30 03:30 9.97 6780 7500 (1942) 26 (1957) 642 88 105 154 180 266 479 598 1220 4300
2020-10-30 02:30 9.96 6760 7500 (1942) 26 (1957) 642 88 105 154 180 266 479 598 1220 4300
2020-10-30 01:30 9.86 6560 7500 (1942) 26 (1957) 642 88 105 154 180 266 479 598 1220 4300
2020-10-30 00:30 9.69 6220 7500 (1942) 26 (1957) 642 88 105 154 180 266 479 598 1220 4300
2020-10-29 23:30 9.42 5730 12400 (1971) 22 (1957) 616 88 102 154 169 269 470 622 1010 2290
2020-10-29 22:30 9.06 5150 12400 (1971) 22 (1957) 616 88 102 154 169 269 470 622 1010 2290
2020-10-29 21:30 8.59 4400 12400 (1971) 22 (1957) 616 88 102 154 169 269 470 622 1010 2290
2020-10-29 20:30 7.97 3440 12400 (1971) 22 (1957) 616 88 102 154 169 269 470 622 1010 2290
2020-10-29 19:30 7.52 2790 12400 (1971) 22 (1957) 616 88 102 154 169 269 470 622 1010 2290
2020-10-29 18:30 7.08 2230 12400 (1971) 22 (1957) 616 88 102 154 169 269 470 622 1010 2290
2020-10-29 17:30 6.91 2030 12400 (1971) 22 (1957) 616 88 102 154 169 269 470 622 1010 2290
2020-10-29 16:30 6.84 1960 12400 (1971) 22 (1957) 616 88 102 154 169 269 470 622 1010 2290
2020-10-29 15:30 6.78 1910 12400 (1971) 22 (1957) 616 88 102 154 169 269 470 622 1010 2290
2020-10-29 14:30 6.74 1870 12400 (1971) 22 (1957) 616 88 102 154 169 269 470 622 1010 2290
2020-10-29 13:30 6.71 1840 12400 (1971) 22 (1957) 616 88 102 154 169 269 470 622 1010 2290
2020-10-29 12:30 6.71 1840 12400 (1971) 22 (1957) 616 88 102 154 169 269 470 622 1010 2290
2020-10-29 11:30 6.72 1850 12400 (1971) 22 (1957) 616 88 102 154 169 269 470 622 1010 2290
2020-10-29 10:30 6.72 1850 12400 (1971) 22 (1957) 616 88 102 154 169 269 470 622 1010 2290
2020-10-29 09:30 6.71 1840 12400 (1971) 22 (1957) 616 88 102 154 169 269 470 622 1010 2290
2020-10-29 08:30 6.73 1860 12400 (1971) 22 (1957) 616 88 102 154 169 269 470 622 1010 2290
2020-10-29 07:30 6.73 1860 12400 (1971) 22 (1957) 616 88 102 154 169 269 470 622 1010 2290
2020-10-29 06:30 6.70 1830 12400 (1971) 22 (1957) 616 88 102 154 169 269 470 622 1010 2290
2020-10-29 05:30 6.73 1860 12400 (1971) 22 (1957) 616 88 102 154 169 269 470 622 1010 2290
2020-10-29 04:30 6.75 1880 12400 (1971) 22 (1957) 616 88 102 154 169 269 470 622 1010 2290
2020-10-29 03:30 6.75 1880 12400 (1971) 22 (1957) 616 88 102 154 169 269 470 622 1010 2290
2020-10-29 02:30 6.75 1880 12400 (1971) 22 (1957) 616 88 102 154 169 269 470 622 1010 2290
2020-10-29 01:30 6.78 1910 12400 (1971) 22 (1957) 616 88 102 154 169 269 470 622 1010 2290
2020-10-29 00:30 6.77 1900 12400 (1971) 22 (1957) 616 88 102 154 169 269 470 622 1010 2290
2020-10-28 23:30 6.80 1930 14400 (1971) 19 (1957) 672 87 97 153 169 266 498 612 1120 2830
2020-10-28 22:30 6.80 1930 14400 (1971) 19 (1957) 672 87 97 153 169 266 498 612 1120 2830
2020-10-28 21:30 6.79 1920 14400 (1971) 19 (1957) 672 87 97 153 169 266 498 612 1120 2830
2020-10-28 20:30 6.76 1890 14400 (1971) 19 (1957) 672 87 97 153 169 266 498 612 1120 2830
2020-10-28 19:30 6.75 1880 14400 (1971) 19 (1957) 672 87 97 153 169 266 498 612 1120 2830
2020-10-28 18:30 6.71 1840 14400 (1971) 19 (1957) 672 87 97 153 169 266 498 612 1120 2830
2020-10-28 17:30 6.66 1790 14400 (1971) 19 (1957) 672 87 97 153 169 266 498 612 1120 2830
2020-10-28 16:30 6.63 1760 14400 (1971) 19 (1957) 672 87 97 153 169 266 498 612 1120 2830
2020-10-28 15:30 6.53 1670 14400 (1971) 19 (1957) 672 87 97 153 169 266 498 612 1120 2830
2020-10-28 14:30 6.47 1620 14400 (1971) 19 (1957) 672 87 97 153 169 266 498 612 1120 2830
2020-10-28 13:30 6.36 1530 14400 (1971) 19 (1957) 672 87 97 153 169 266 498 612 1120 2830
2020-10-28 12:30 6.25 1430 14400 (1971) 19 (1957) 672 87 97 153 169 266 498 612 1120 2830
2020-10-28 11:30 6.17 1370 14400 (1971) 19 (1957) 672 87 97 153 169 266 498 612 1120 2830
2020-10-28 10:30 6.06 1290 14400 (1971) 19 (1957) 672 87 97 153 169 266 498 612 1120 2830
2020-10-28 09:30 5.98 1230 14400 (1971) 19 (1957) 672 87 97 153 169 266 498 612 1120 2830
2020-10-28 08:30 5.88 1160 14400 (1971) 19 (1957) 672 87 97 153 169 266 498 612 1120 2830
2020-10-28 07:30 5.75 1070 14400 (1971) 19 (1957) 672 87 97 153 169 266 498 612 1120 2830
2020-10-28 06:30 5.66 944 14400 (1971) 19 (1957) 672 87 97 153 169 266 498 612 1120 2830
2020-10-28 05:30 5.61 871 14400 (1971) 19 (1957) 672 87 97 153 169 266 498 612 1120 2830
2020-10-28 04:30 5.59 843 14400 (1971) 19 (1957) 672 87 97 153 169 266 498 612 1120 2830
2020-10-28 03:30 5.58 829 14400 (1971) 19 (1957) 672 87 97 153 169 266 498 612 1120 2830
2020-10-28 02:30 5.56 802 14400 (1971) 19 (1957) 672 87 97 153 169 266 498 612 1120 2830
2020-10-28 01:30 5.56 802 14400 (1971) 19 (1957) 672 87 97 153 169 266 498 612 1120 2830
2020-10-28 00:30 5.54 775 14400 (1971) 19 (1957) 672 87 97 153 169 266 498 612 1120 2830
2020-10-27 23:30 5.53 762 8190 (2020) 16 (1957) 597 81 98 151 169 257 464 551 1090 2690
2020-10-27 22:30 5.52 749 8190 (2020) 16 (1957) 597 81 98 151 169 257 464 551 1090 2690
2020-10-27 21:30 5.49 711 8190 (2020) 16 (1957) 597 81 98 151 169 257 464 551 1090 2690
2020-10-27 20:30 5.48 699 8190 (2020) 16 (1957) 597 81 98 151 169 257 464 551 1090 2690
2020-10-27 19:30 5.47 687 8190 (2020) 16 (1957) 597 81 98 151 169 257 464 551 1090 2690
2020-10-27 18:30 5.44 651 8190 (2020) 16 (1957) 597 81 98 151 169 257 464 551 1090 2690
2020-10-27 17:30 5.42 627 8190 (2020) 16 (1957) 597 81 98 151 169 257 464 551 1090 2690
2020-10-27 16:30 5.40 605 8190 (2020) 16 (1957) 597 81 98 151 169 257 464 551 1090 2690
2020-10-27 15:30 5.39 593 8190 (2020) 16 (1957) 597 81 98 151 169 257 464 551 1090 2690
2020-10-27 14:30 5.38 582 8190 (2020) 16 (1957) 597 81 98 151 169 257 464 551 1090 2690
2020-10-27 13:30 5.36 561 8190 (2020) 16 (1957) 597 81 98 151 169 257 464 551 1090 2690
2020-10-27 12:30 5.35 550 8190 (2020) 16 (1957) 597 81 98 151 169 257 464 551 1090 2690
2020-10-27 11:30 5.33 529 8190 (2020) 16 (1957) 597 81 98 151 169 257 464 551 1090 2690
2020-10-27 10:30 5.32 519 8190 (2020) 16 (1957) 597 81 98 151 169 257 464 551 1090 2690
2020-10-27 09:30 5.29 489 8190 (2020) 16 (1957) 597 81 98 151 169 257 464 551 1090 2690
2020-10-27 08:30 5.30 499 8190 (2020) 16 (1957) 597 81 98 151 169 257 464 551 1090 2690
2020-10-27 07:30 5.29 489 8190 (2020) 16 (1957) 597 81 98 151 169 257 464 551 1090 2690
2020-10-27 06:30 5.29 489 8190 (2020) 16 (1957) 597 81 98 151 169 257 464 551 1090 2690
2020-10-27 05:30 5.28 480 8190 (2020) 16 (1957) 597 81 98 151 169 257 464 551 1090 2690
2020-10-27 04:30 5.24 442 8190 (2020) 16 (1957) 597 81 98 151 169 257 464 551 1090 2690
2020-10-27 03:30 5.21 415 8190 (2020) 16 (1957) 597 81 98 151 169 257 464 551 1090 2690
2020-10-27 02:30 5.18 389 8190 (2020) 16 (1957) 597 81 98 151 169 257 464 551 1090 2690
2020-10-27 01:30 5.17 381 8190 (2020) 16 (1957) 597 81 98 151 169 257 464 551 1090 2690
2020-10-27 00:30 5.19 398 8190 (2020) 16 (1957) 597 81 98 151 169 257 464 551 1090 2690
2020-10-26 23:30 5.18 389 11100 (2020) 16 (1957) 548 79 97 151 167 270 461 498 1120 1690
2020-10-26 22:30 5.19 398 11100 (2020) 16 (1957) 548 79 97 151 167 270 461 498 1120 1690
2020-10-26 21:30 5.21 415 11100 (2020) 16 (1957) 548 79 97 151 167 270 461 498 1120 1690
2020-10-26 20:30 5.20 406 11100 (2020) 16 (1957) 548 79 97 151 167 270 461 498 1120 1690
2020-10-26 19:30 5.19 398 11100 (2020) 16 (1957) 548 79 97 151 167 270 461 498 1120 1690
2020-10-26 18:30 5.19 398 11100 (2020) 16 (1957) 548 79 97 151 167 270 461 498 1120 1690
2020-10-26 17:30 5.17 381 11100 (2020) 16 (1957) 548 79 97 151 167 270 461 498 1120 1690
2020-10-26 16:30 5.15 365 11100 (2020) 16 (1957) 548 79 97 151 167 270 461 498 1120 1690
2020-10-26 15:30 5.14 357 11100 (2020) 16 (1957) 548 79 97 151 167 270 461 498 1120 1690
2020-10-26 14:30 5.12 341 11100 (2020) 16 (1957) 548 79 97 151 167 270 461 498 1120 1690
2020-10-26 13:30 5.07 315 11100 (2020) 16 (1957) 548 79 97 151 167 270 461 498 1120 1690
2020-10-26 12:30 5.05 308 11100 (2020) 16 (1957) 548 79 97 151 167 270 461 498 1120 1690
2020-10-26 11:30 5.02 297 11100 (2020) 16 (1957) 548 79 97 151 167 270 461 498 1120 1690
2020-10-26 10:30 5.08 318 11100 (2020) 16 (1957) 548 79 97 151 167 270 461 498 1120 1690
2020-10-26 09:30 5.00 290 11100 (2020) 16 (1957) 548 79 97 151 167 270 461 498 1120 1690
2020-10-26 08:30 5.05 308 11100 (2020) 16 (1957) 548 79 97 151 167 270 461 498 1120 1690
2020-10-26 07:30 5.01 294 11100 (2020) 16 (1957) 548 79 97 151 167 270 461 498 1120 1690
2020-10-26 06:30 5.05 308 11100 (2020) 16 (1957) 548 79 97 151 167 270 461 498 1120 1690
2020-10-26 05:30 5.06 311 11100 (2020) 16 (1957) 548 79 97 151 167 270 461 498 1120 1690
2020-10-26 04:30 5.06 311 11100 (2020) 16 (1957) 548 79 97 151 167 270 461 498 1120 1690
2020-10-26 03:30 5.06 311 11100 (2020) 16 (1957) 548 79 97 151 167 270 461 498 1120 1690
2020-10-26 02:30 5.06 311 11100 (2020) 16 (1957) 548 79 97 151 167 270 461 498 1120 1690
2020-10-26 01:30 5.06 311 11100 (2020) 16 (1957) 548 79 97 151 167 270 461 498 1120 1690
2020-10-26 00:30 5.07 315 11100 (2020) 16 (1957) 548 79 97 151 167 270 461 498 1120 1690
2020-10-25 23:30 5.07 315 10400 (2020) 14 (1957) 513 77 94 148 174 256 431 506 1070 1400
2020-10-25 22:30 5.06 311 10400 (2020) 14 (1957) 513 77 94 148 174 256 431 506 1070 1400
2020-10-25 21:30 5.06 311 10400 (2020) 14 (1957) 513 77 94 148 174 256 431 506 1070 1400
2020-10-25 20:30 5.05 308 10400 (2020) 14 (1957) 513 77 94 148 174 256 431 506 1070 1400
2020-10-25 19:30 5.04 304 10400 (2020) 14 (1957) 513 77 94 148 174 256 431 506 1070 1400
2020-10-25 18:30 5.03 301 10400 (2020) 14 (1957) 513 77 94 148 174 256 431 506 1070 1400
2020-10-25 17:30 5.01 294 10400 (2020) 14 (1957) 513 77 94 148 174 256 431 506 1070 1400
2020-10-25 16:30 5.00 290 10400 (2020) 14 (1957) 513 77 94 148 174 256 431 506 1070 1400
2020-10-25 15:30 4.98 284 10400 (2020) 14 (1957) 513 77 94 148 174 256 431 506 1070 1400
2020-10-25 14:30 4.96 277 10400 (2020) 14 (1957) 513 77 94 148 174 256 431 506 1070 1400
2020-10-25 13:30 4.95 274 10400 (2020) 14 (1957) 513 77 94 148 174 256 431 506 1070 1400
2020-10-25 12:30 4.93 267 10400 (2020) 14 (1957) 513 77 94 148 174 256 431 506 1070 1400
2020-10-25 11:30 4.92 264 10400 (2020) 14 (1957) 513 77 94 148 174 256 431 506 1070 1400
2020-10-25 10:30 4.91 261 10400 (2020) 14 (1957) 513 77 94 148 174 256 431 506 1070 1400
2020-10-25 09:30 4.90 258 10400 (2020) 14 (1957) 513 77 94 148 174 256 431 506 1070 1400
2020-10-25 08:30 4.90 258 10400 (2020) 14 (1957) 513 77 94 148 174 256 431 506 1070 1400
2020-10-25 07:30 4.89 255 10400 (2020) 14 (1957) 513 77 94 148 174 256 431 506 1070 1400
2020-10-25 06:30 4.89 255 10400 (2020) 14 (1957) 513 77 94 148 174 256 431 506 1070 1400
2020-10-25 05:30 4.88 252 10400 (2020) 14 (1957) 513 77 94 148 174 256 431 506 1070 1400
2020-10-25 04:30 4.89 255 10400 (2020) 14 (1957) 513 77 94 148 174 256 431 506 1070 1400
2020-10-25 03:30 4.89 255 10400 (2020) 14 (1957) 513 77 94 148 174 256 431 506 1070 1400
2020-10-25 02:30 4.89 255 10400 (2020) 14 (1957) 513 77 94 148 174 256 431 506 1070 1400
2020-10-25 01:30 4.89 255 10400 (2020) 14 (1957) 513 77 94 148 174 256 431 506 1070 1400
2020-10-25 00:30 4.89 255 10400 (2020) 14 (1957) 513 77 94 148 174 256 431 506 1070 1400
2020-10-24 23:30 4.88 252 2570 (1985) 12 (1957) 412 66 92 149 171 244 394 471 1110 1430
2020-10-24 22:30 4.88 252 2570 (1985) 12 (1957) 412 66 92 149 171 244 394 471 1110 1430
2020-10-24 21:30 4.88 252 2570 (1985) 12 (1957) 412 66 92 149 171 244 394 471 1110 1430
2020-10-24 20:30 4.88 252 2570 (1985) 12 (1957) 412 66 92 149 171 244 394 471 1110 1430
2020-10-24 19:30 4.88 252 2570 (1985) 12 (1957) 412 66 92 149 171 244 394 471 1110 1430
2020-10-24 18:30 4.88 252 2570 (1985) 12 (1957) 412 66 92 149 171 244 394 471 1110 1430
2020-10-24 17:30 4.88 252 2570 (1985) 12 (1957) 412 66 92 149 171 244 394 471 1110 1430
2020-10-24 16:30 4.88 252 2570 (1985) 12 (1957) 412 66 92 149 171 244 394 471 1110 1430
2020-10-24 15:30 4.88 252 2570 (1985) 12 (1957) 412 66 92 149 171 244 394 471 1110 1430
2020-10-24 14:30 4.88 252 2570 (1985) 12 (1957) 412 66 92 149 171 244 394 471 1110 1430
2020-10-24 13:30 4.88 252 2570 (1985) 12 (1957) 412 66 92 149 171 244 394 471 1110 1430
2020-10-24 12:30 4.88 252 2570 (1985) 12 (1957) 412 66 92 149 171 244 394 471 1110 1430
2020-10-24 11:30 4.89 255 2570 (1985) 12 (1957) 412 66 92 149 171 244 394 471 1110 1430
2020-10-24 10:30 4.89 255 2570 (1985) 12 (1957) 412 66 92 149 171 244 394 471 1110 1430
2020-10-24 09:30 4.89 348 2570 (1985) 12 (1957) 412 66 92 149 171 244 394 471 1110 1430
2020-10-24 08:30 4.90 352 2570 (1985) 12 (1957) 412 66 92 149 171 244 394 471 1110 1430
2020-10-24 07:30 4.90 352 2570 (1985) 12 (1957) 412 66 92 149 171 244 394 471 1110 1430
2020-10-24 06:30 4.90 352 2570 (1985) 12 (1957) 412 66 92 149 171 244 394 471 1110 1430
2020-10-24 05:30 4.90 352 2570 (1985) 12 (1957) 412 66 92 149 171 244 394 471 1110 1430
2020-10-24 04:30 4.91 356 2570 (1985) 12 (1957) 412 66 92 149 171 244 394 471 1110 1430
2020-10-24 03:30 4.91 356 2570 (1985) 12 (1957) 412 66 92 149 171 244 394 471 1110 1430
2020-10-24 02:30 4.91 356 2570 (1985) 12 (1957) 412 66 92 149 171 244 394 471 1110 1430
2020-10-24 01:30 4.91 356 2570 (1985) 12 (1957) 412 66 92 149 171 244 394 471 1110 1430
2020-10-24 00:30 4.91 356 2570 (1985) 12 (1957) 412 66 92 149 171 244 394 471 1110 1430
2020-10-23 23:30 4.92 360 3800 (1985) 9 (1957) 420 66 92 146 166 248 402 469 1030 1580
2020-10-23 22:30 4.92 360 3800 (1985) 9 (1957) 420 66 92 146 166 248 402 469 1030 1580
2020-10-23 21:30 4.92 360 3800 (1985) 9 (1957) 420 66 92 146 166 248 402 469 1030 1580
2020-10-23 20:30 4.92 360 3800 (1985) 9 (1957) 420 66 92 146 166 248 402 469 1030 1580
2020-10-23 19:30 4.93 364 3800 (1985) 9 (1957) 420 66 92 146 166 248 402 469 1030 1580
2020-10-23 18:30 4.93 364 3800 (1985) 9 (1957) 420 66 92 146 166 248 402 469 1030 1580
2020-10-23 17:30 4.93 364 3800 (1985) 9 (1957) 420 66 92 146 166 248 402 469 1030 1580
2020-10-23 16:30 4.93 364 3800 (1985) 9 (1957) 420 66 92 146 166 248 402 469 1030 1580
2020-10-23 15:30 4.94 368 3800 (1985) 9 (1957) 420 66 92 146 166 248 402 469 1030 1580
2020-10-23 14:30 4.94 368 3800 (1985) 9 (1957) 420 66 92 146 166 248 402 469 1030 1580
2020-10-23 13:30 4.95 372 3800 (1985) 9 (1957) 420 66 92 146 166 248 402 469 1030 1580
2020-10-23 12:30 4.95 372 3800 (1985) 9 (1957) 420 66 92 146 166 248 402 469 1030 1580
2020-10-23 11:30 4.96 376 3800 (1985) 9 (1957) 420 66 92 146 166 248 402 469 1030 1580
2020-10-23 10:30 4.96 376 3800 (1985) 9 (1957) 420 66 92 146 166 248 402 469 1030 1580
2020-10-23 09:30 4.96 376 3800 (1985) 9 (1957) 420 66 92 146 166 248 402 469 1030 1580
2020-10-23 08:30 4.97 380 3800 (1985) 9 (1957) 420 66 92 146 166 248 402 469 1030 1580
2020-10-23 07:30 4.97 380 3800 (1985) 9 (1957) 420 66 92 146 166 248 402 469 1030 1580
2020-10-23 06:30 4.95 372 3800 (1985) 9 (1957) 420 66 92 146 166 248 402 469 1030 1580
2020-10-23 05:30 4.96 376 3800 (1985) 9 (1957) 420 66 92 146 166 248 402 469 1030 1580
2020-10-23 04:30 4.95 372 3800 (1985) 9 (1957) 420 66 92 146 166 248 402 469 1030 1580
2020-10-23 03:30 4.95 372 3800 (1985) 9 (1957) 420 66 92 146 166 248 402 469 1030 1580
2020-10-23 02:30 4.95 372 3800 (1985) 9 (1957) 420 66 92 146 166 248 402 469 1030 1580
2020-10-23 00:30 4.95 372 3800 (1985) 9 (1957) 420 66 92 146 166 248 402 469 1030 1580
2020-10-22 23:30 4.95 372 7000 (1985) 8 (1957) 462 62 89 135 161 252 405 481 849 1530
2020-10-22 22:30 4.95 372 7000 (1985) 8 (1957) 462 62 89 135 161 252 405 481 849 1530
2020-10-22 21:30 4.95 372 7000 (1985) 8 (1957) 462 62 89 135 161 252 405 481 849 1530
2020-10-22 20:30 4.94 368 7000 (1985) 8 (1957) 462 62 89 135 161 252 405 481 849 1530
2020-10-22 19:30 4.94 368 7000 (1985) 8 (1957) 462 62 89 135 161 252 405 481 849 1530
2020-10-22 18:30 4.94 368 7000 (1985) 8 (1957) 462 62 89 135 161 252 405 481 849 1530
2020-10-22 17:30 4.93 364 7000 (1985) 8 (1957) 462 62 89 135 161 252 405 481 849 1530
2020-10-22 16:30 4.94 368 7000 (1985) 8 (1957) 462 62 89 135 161 252 405 481 849 1530
2020-10-22 15:30 4.93 364 7000 (1985) 8 (1957) 462 62 89 135 161 252 405 481 849 1530
2020-10-22 14:30 4.94 368 7000 (1985) 8 (1957) 462 62 89 135 161 252 405 481 849 1530
2020-10-22 13:30 4.94 368 7000 (1985) 8 (1957) 462 62 89 135 161 252 405 481 849 1530
2020-10-22 12:30 4.94 368 7000 (1985) 8 (1957) 462 62 89 135 161 252 405 481 849 1530
2020-10-22 11:30 4.95</